<?xml version="1.0" encoding="UTF-8" standalone="no" ?>
<gpx xmlns="http://www.topografix.com/GPX/1/1" xmlns:xsi="http://www.w3.org/2001/XMLSchema-instance" xsi:schemaLocation="http://www.topografix.com/GPX/1/1 http://www.topografix.com/GPX/1/1/gpx.xsd" version="1.1" creator="VisuGPX - https://www.visugpx.com">
  <metadata>
    <name>Thollon - Dent d\'Oche</name>
    <desc><![CDATA[Vol du 31 juillet à Thollon les Mémises. Transition dent d\'Oche]]></desc>
  </metadata>
  <trk>
    <name><![CDATA[ACTIVE LOG_28]]></name>
    <trkseg>
      <trkpt lat="46.37983" lon="6.72479">
        <ele>1195.06</ele>
        <time>2011-07-31T13:52:26.000Z</time>
      </trkpt>
      <trkpt lat="46.38246" lon="6.72331">
        <ele>1195.06</ele>
        <time>2011-07-31T13:53:36.000Z</time>
      </trkpt>
      <trkpt lat="46.38237" lon="6.72332">
        <ele>1195.06</ele>
        <time>2011-07-31T13:53:45.000Z</time>
      </trkpt>
      <trkpt lat="46.37835" lon="6.72843">
        <ele>1194.58</ele>
        <time>2011-07-31T13:53:49.000Z</time>
      </trkpt>
      <trkpt lat="46.38047" lon="6.72782">
        <ele>1194.58</ele>
        <time>2011-07-31T13:53:51.000Z</time>
      </trkpt>
      <trkpt lat="46.38051" lon="6.72785">
        <ele>1195.06</ele>
        <time>2011-07-31T13:55:50.000Z</time>
      </trkpt>
      <trkpt lat="46.38053" lon="6.72783">
        <ele>1194.58</ele>
        <time>2011-07-31T13:57:24.000Z</time>
      </trkpt>
      <trkpt lat="46.38054" lon="6.72783">
        <ele>1591.12</ele>
        <time>2011-07-31T13:57:26.000Z</time>
      </trkpt>
      <trkpt lat="46.38054" lon="6.72784">
        <ele>1591.12</ele>
        <time>2011-07-31T13:57:27.000Z</time>
      </trkpt>
      <trkpt lat="46.38054" lon="6.72784">
        <ele>1586.79</ele>
        <time>2011-07-31T13:57:30.000Z</time>
      </trkpt>
      <trkpt lat="46.38054" lon="6.72784">
        <ele>1582.47</ele>
        <time>2011-07-31T13:57:33.000Z</time>
      </trkpt>
      <trkpt lat="46.38054" lon="6.72784">
        <ele>1580.06</ele>
        <time>2011-07-31T13:57:36.000Z</time>
      </trkpt>
      <trkpt lat="46.38057" lon="6.72783">
        <ele>1580.54</ele>
        <time>2011-07-31T13:58:41.000Z</time>
      </trkpt>
      <trkpt lat="46.38072" lon="6.72807">
        <ele>1579.58</ele>
        <time>2011-07-31T13:58:44.000Z</time>
      </trkpt>
      <trkpt lat="46.38078" lon="6.72813">
        <ele>1574.78</ele>
        <time>2011-07-31T13:58:47.000Z</time>
      </trkpt>
      <trkpt lat="46.38084" lon="6.72814">
        <ele>1570.93</ele>
        <time>2011-07-31T13:58:48.000Z</time>
      </trkpt>
      <trkpt lat="46.38105" lon="6.72811">
        <ele>1569.97</ele>
        <time>2011-07-31T13:58:50.000Z</time>
      </trkpt>
      <trkpt lat="46.38111" lon="6.72803">
        <ele>1574.3</ele>
        <time>2011-07-31T13:58:51.000Z</time>
      </trkpt>
      <trkpt lat="46.38124" lon="6.72783">
        <ele>1578.14</ele>
        <time>2011-07-31T13:58:53.000Z</time>
      </trkpt>
      <trkpt lat="46.38115" lon="6.72718">
        <ele>1579.58</ele>
        <time>2011-07-31T13:58:58.000Z</time>
      </trkpt>
      <trkpt lat="46.3811" lon="6.72708">
        <ele>1583.91</ele>
        <time>2011-07-31T13:58:59.000Z</time>
      </trkpt>
      <trkpt lat="46.38104" lon="6.72682">
        <ele>1591.12</ele>
        <time>2011-07-31T13:59:02.000Z</time>
      </trkpt>
      <trkpt lat="46.38131" lon="6.72673">
        <ele>1590.64</ele>
        <time>2011-07-31T13:59:06.000Z</time>
      </trkpt>
      <trkpt lat="46.38137" lon="6.72685">
        <ele>1587.27</ele>
        <time>2011-07-31T13:59:07.000Z</time>
      </trkpt>
      <trkpt lat="46.38138" lon="6.72701">
        <ele>1583.43</ele>
        <time>2011-07-31T13:59:08.000Z</time>
      </trkpt>
      <trkpt lat="46.38135" lon="6.72716">
        <ele>1585.83</ele>
        <time>2011-07-31T13:59:09.000Z</time>
      </trkpt>
      <trkpt lat="46.3813" lon="6.72729">
        <ele>1590.16</ele>
        <time>2011-07-31T13:59:10.000Z</time>
      </trkpt>
      <trkpt lat="46.38129" lon="6.72771">
        <ele>1602.17</ele>
        <time>2011-07-31T13:59:14.000Z</time>
      </trkpt>
      <trkpt lat="46.3815" lon="6.72764">
        <ele>1603.14</ele>
        <time>2011-07-31T13:59:18.000Z</time>
      </trkpt>
      <trkpt lat="46.38145" lon="6.7274">
        <ele>1597.85</ele>
        <time>2011-07-31T13:59:20.000Z</time>
      </trkpt>
      <trkpt lat="46.38137" lon="6.72728">
        <ele>1594</ele>
        <time>2011-07-31T13:59:21.000Z</time>
      </trkpt>
      <trkpt lat="46.38121" lon="6.72706">
        <ele>1597.37</ele>
        <time>2011-07-31T13:59:23.000Z</time>
      </trkpt>
      <trkpt lat="46.38111" lon="6.72683">
        <ele>1604.1</ele>
        <time>2011-07-31T13:59:25.000Z</time>
      </trkpt>
      <trkpt lat="46.38087" lon="6.72668">
        <ele>1610.83</ele>
        <time>2011-07-31T13:59:28.000Z</time>
      </trkpt>
      <trkpt lat="46.38072" lon="6.72644">
        <ele>1615.15</ele>
        <time>2011-07-31T13:59:31.000Z</time>
      </trkpt>
      <trkpt lat="46.38089" lon="6.72628">
        <ele>1616.11</ele>
        <time>2011-07-31T13:59:35.000Z</time>
      </trkpt>
      <trkpt lat="46.38096" lon="6.72637">
        <ele>1615.63</ele>
        <time>2011-07-31T13:59:36.000Z</time>
      </trkpt>
      <trkpt lat="46.381" lon="6.72665">
        <ele>1613.71</ele>
        <time>2011-07-31T13:59:38.000Z</time>
      </trkpt>
      <trkpt lat="46.38106" lon="6.72702">
        <ele>1616.11</ele>
        <time>2011-07-31T13:59:41.000Z</time>
      </trkpt>
      <trkpt lat="46.38117" lon="6.7272">
        <ele>1619</ele>
        <time>2011-07-31T13:59:43.000Z</time>
      </trkpt>
      <trkpt lat="46.38121" lon="6.7274">
        <ele>1629.09</ele>
        <time>2011-07-31T13:59:45.000Z</time>
      </trkpt>
      <trkpt lat="46.38121" lon="6.72748">
        <ele>1631.98</ele>
        <time>2011-07-31T13:59:46.000Z</time>
      </trkpt>
      <trkpt lat="46.38129" lon="6.7276">
        <ele>1634.86</ele>
        <time>2011-07-31T13:59:48.000Z</time>
      </trkpt>
      <trkpt lat="46.38146" lon="6.72752">
        <ele>1634.38</ele>
        <time>2011-07-31T13:59:50.000Z</time>
      </trkpt>
      <trkpt lat="46.38136" lon="6.72709">
        <ele>1636.3</ele>
        <time>2011-07-31T13:59:54.000Z</time>
      </trkpt>
      <trkpt lat="46.38118" lon="6.72705">
        <ele>1639.19</ele>
        <time>2011-07-31T13:59:56.000Z</time>
      </trkpt>
      <trkpt lat="46.381" lon="6.72704">
        <ele>1646.4</ele>
        <time>2011-07-31T13:59:58.000Z</time>
      </trkpt>
      <trkpt lat="46.38087" lon="6.72664">
        <ele>1647.84</ele>
        <time>2011-07-31T14:00:03.000Z</time>
      </trkpt>
      <trkpt lat="46.38105" lon="6.72656">
        <ele>1651.68</ele>
        <time>2011-07-31T14:00:06.000Z</time>
      </trkpt>
      <trkpt lat="46.38117" lon="6.72668">
        <ele>1652.16</ele>
        <time>2011-07-31T14:00:08.000Z</time>
      </trkpt>
      <trkpt lat="46.38121" lon="6.72707">
        <ele>1650.24</ele>
        <time>2011-07-31T14:00:11.000Z</time>
      </trkpt>
      <trkpt lat="46.38134" lon="6.7276">
        <ele>1654.57</ele>
        <time>2011-07-31T14:00:15.000Z</time>
      </trkpt>
      <trkpt lat="46.38139" lon="6.72768">
        <ele>1659.37</ele>
        <time>2011-07-31T14:00:16.000Z</time>
      </trkpt>
      <trkpt lat="46.38145" lon="6.72772">
        <ele>1662.74</ele>
        <time>2011-07-31T14:00:17.000Z</time>
      </trkpt>
      <trkpt lat="46.38158" lon="6.72762">
        <ele>1666.58</ele>
        <time>2011-07-31T14:00:19.000Z</time>
      </trkpt>
      <trkpt lat="46.38161" lon="6.72749">
        <ele>1665.14</ele>
        <time>2011-07-31T14:00:20.000Z</time>
      </trkpt>
      <trkpt lat="46.38148" lon="6.72714">
        <ele>1670.43</ele>
        <time>2011-07-31T14:00:23.000Z</time>
      </trkpt>
      <trkpt lat="46.38127" lon="6.72711">
        <ele>1674.27</ele>
        <time>2011-07-31T14:00:25.000Z</time>
      </trkpt>
      <trkpt lat="46.38107" lon="6.72738">
        <ele>1676.2</ele>
        <time>2011-07-31T14:00:28.000Z</time>
      </trkpt>
      <trkpt lat="46.38114" lon="6.72773">
        <ele>1679.56</ele>
        <time>2011-07-31T14:00:31.000Z</time>
      </trkpt>
      <trkpt lat="46.38132" lon="6.72771">
        <ele>1682.93</ele>
        <time>2011-07-31T14:00:34.000Z</time>
      </trkpt>
      <trkpt lat="46.3814" lon="6.72745">
        <ele>1687.25</ele>
        <time>2011-07-31T14:00:37.000Z</time>
      </trkpt>
      <trkpt lat="46.38136" lon="6.72722">
        <ele>1691.1</ele>
        <time>2011-07-31T14:00:39.000Z</time>
      </trkpt>
      <trkpt lat="46.38103" lon="6.72669">
        <ele>1696.86</ele>
        <time>2011-07-31T14:00:44.000Z</time>
      </trkpt>
      <trkpt lat="46.381" lon="6.72647">
        <ele>1700.71</ele>
        <time>2011-07-31T14:00:46.000Z</time>
      </trkpt>
      <trkpt lat="46.38124" lon="6.7264">
        <ele>1700.23</ele>
        <time>2011-07-31T14:00:50.000Z</time>
      </trkpt>
      <trkpt lat="46.38134" lon="6.72685">
        <ele>1703.11</ele>
        <time>2011-07-31T14:00:54.000Z</time>
      </trkpt>
      <trkpt lat="46.3813" lon="6.72698">
        <ele>1703.11</ele>
        <time>2011-07-31T14:00:55.000Z</time>
      </trkpt>
      <trkpt lat="46.38092" lon="6.7272">
        <ele>1706</ele>
        <time>2011-07-31T14:00:59.000Z</time>
      </trkpt>
      <trkpt lat="46.38053" lon="6.72675">
        <ele>1709.36</ele>
        <time>2011-07-31T14:01:04.000Z</time>
      </trkpt>
      <trkpt lat="46.38052" lon="6.72653">
        <ele>1710.8</ele>
        <time>2011-07-31T14:01:06.000Z</time>
      </trkpt>
      <trkpt lat="46.38076" lon="6.72642">
        <ele>1707.44</ele>
        <time>2011-07-31T14:01:10.000Z</time>
      </trkpt>
      <trkpt lat="46.38088" lon="6.72655">
        <ele>1707.92</ele>
        <time>2011-07-31T14:01:12.000Z</time>
      </trkpt>
      <trkpt lat="46.38101" lon="6.72719">
        <ele>1709.84</ele>
        <time>2011-07-31T14:01:18.000Z</time>
      </trkpt>
      <trkpt lat="46.38093" lon="6.72789">
        <ele>1712.73</ele>
        <time>2011-07-31T14:01:24.000Z</time>
      </trkpt>
      <trkpt lat="46.381" lon="6.72816">
        <ele>1706.96</ele>
        <time>2011-07-31T14:01:27.000Z</time>
      </trkpt>
      <trkpt lat="46.38107" lon="6.72822">
        <ele>1703.11</ele>
        <time>2011-07-31T14:01:28.000Z</time>
      </trkpt>
      <trkpt lat="46.3812" lon="6.72833">
        <ele>1705.52</ele>
        <time>2011-07-31T14:01:30.000Z</time>
      </trkpt>
      <trkpt lat="46.38137" lon="6.72867">
        <ele>1702.15</ele>
        <time>2011-07-31T14:01:34.000Z</time>
      </trkpt>
      <trkpt lat="46.38144" lon="6.72892">
        <ele>1699.75</ele>
        <time>2011-07-31T14:01:36.000Z</time>
      </trkpt>
      <trkpt lat="46.38165" lon="6.72964">
        <ele>1699.75</ele>
        <time>2011-07-31T14:01:43.000Z</time>
      </trkpt>
      <trkpt lat="46.38147" lon="6.73037">
        <ele>1693.5</ele>
        <time>2011-07-31T14:01:46.000Z</time>
      </trkpt>
      <trkpt lat="46.38147" lon="6.73037">
        <ele>1691.58</ele>
        <time>2011-07-31T14:01:47.000Z</time>
      </trkpt>
      <trkpt lat="46.38147" lon="6.73043">
        <ele>1689.65</ele>
        <time>2011-07-31T14:01:50.000Z</time>
      </trkpt>
      <trkpt lat="46.38213" lon="6.73068">
        <ele>1689.65</ele>
        <time>2011-07-31T14:01:56.000Z</time>
      </trkpt>
      <trkpt lat="46.38224" lon="6.73092">
        <ele>1692.06</ele>
        <time>2011-07-31T14:02:00.000Z</time>
      </trkpt>
      <trkpt lat="46.38237" lon="6.73115">
        <ele>1689.17</ele>
        <time>2011-07-31T14:02:03.000Z</time>
      </trkpt>
      <trkpt lat="46.38244" lon="6.73161">
        <ele>1691.58</ele>
        <time>2011-07-31T14:02:07.000Z</time>
      </trkpt>
      <trkpt lat="46.38244" lon="6.73198">
        <ele>1693.98</ele>
        <time>2011-07-31T14:02:10.000Z</time>
      </trkpt>
      <trkpt lat="46.38235" lon="6.73249">
        <ele>1690.62</ele>
        <time>2011-07-31T14:02:14.000Z</time>
      </trkpt>
      <trkpt lat="46.38233" lon="6.73265">
        <ele>1690.62</ele>
        <time>2011-07-31T14:02:15.000Z</time>
      </trkpt>
      <trkpt lat="46.38182" lon="6.733">
        <ele>1697.83</ele>
        <time>2011-07-31T14:02:17.000Z</time>
      </trkpt>
      <trkpt lat="46.38185" lon="6.73328">
        <ele>1703.59</ele>
        <time>2011-07-31T14:02:20.000Z</time>
      </trkpt>
      <trkpt lat="46.38255" lon="6.73327">
        <ele>1702.15</ele>
        <time>2011-07-31T14:02:24.000Z</time>
      </trkpt>
      <trkpt lat="46.3825" lon="6.73282">
        <ele>1703.59</ele>
        <time>2011-07-31T14:02:28.000Z</time>
      </trkpt>
      <trkpt lat="46.38224" lon="6.73272">
        <ele>1707.92</ele>
        <time>2011-07-31T14:02:31.000Z</time>
      </trkpt>
      <trkpt lat="46.38184" lon="6.73325">
        <ele>1705.04</ele>
        <time>2011-07-31T14:02:35.000Z</time>
      </trkpt>
      <trkpt lat="46.38185" lon="6.73335">
        <ele>1705.04</ele>
        <time>2011-07-31T14:02:36.000Z</time>
      </trkpt>
      <trkpt lat="46.38185" lon="6.7335">
        <ele>1711.76</ele>
        <time>2011-07-31T14:02:38.000Z</time>
      </trkpt>
      <trkpt lat="46.38185" lon="6.73356">
        <ele>1711.76</ele>
        <time>2011-07-31T14:02:39.000Z</time>
      </trkpt>
      <trkpt lat="46.38251" lon="6.73345">
        <ele>1711.28</ele>
        <time>2011-07-31T14:02:45.000Z</time>
      </trkpt>
      <trkpt lat="46.38251" lon="6.73335">
        <ele>1710.8</ele>
        <time>2011-07-31T14:02:46.000Z</time>
      </trkpt>
      <trkpt lat="46.38248" lon="6.73316">
        <ele>1714.65</ele>
        <time>2011-07-31T14:02:48.000Z</time>
      </trkpt>
      <trkpt lat="46.38243" lon="6.73307">
        <ele>1714.65</ele>
        <time>2011-07-31T14:02:49.000Z</time>
      </trkpt>
      <trkpt lat="46.38182" lon="6.73302">
        <ele>1719.94</ele>
        <time>2011-07-31T14:02:51.000Z</time>
      </trkpt>
      <trkpt lat="46.38179" lon="6.73264">
        <ele>1724.26</ele>
        <time>2011-07-31T14:02:57.000Z</time>
      </trkpt>
      <trkpt lat="46.38184" lon="6.73314">
        <ele>1726.67</ele>
        <time>2011-07-31T14:03:01.000Z</time>
      </trkpt>
      <trkpt lat="46.38211" lon="6.73327">
        <ele>1730.51</ele>
        <time>2011-07-31T14:03:03.000Z</time>
      </trkpt>
      <trkpt lat="46.38183" lon="6.7331">
        <ele>1730.51</ele>
        <time>2011-07-31T14:03:06.000Z</time>
      </trkpt>
      <trkpt lat="46.38182" lon="6.73295">
        <ele>1733.39</ele>
        <time>2011-07-31T14:03:07.000Z</time>
      </trkpt>
      <trkpt lat="46.38179" lon="6.73262">
        <ele>1740.6</ele>
        <time>2011-07-31T14:03:11.000Z</time>
      </trkpt>
      <trkpt lat="46.3818" lon="6.73273">
        <ele>1743.97</ele>
        <time>2011-07-31T14:03:16.000Z</time>
      </trkpt>
      <trkpt lat="46.38181" lon="6.73281">
        <ele>1744.45</ele>
        <time>2011-07-31T14:03:17.000Z</time>
      </trkpt>
      <trkpt lat="46.38182" lon="6.73301">
        <ele>1744.45</ele>
        <time>2011-07-31T14:03:19.000Z</time>
      </trkpt>
      <trkpt lat="46.38185" lon="6.7335">
        <ele>1747.81</ele>
        <time>2011-07-31T14:03:23.000Z</time>
      </trkpt>
      <trkpt lat="46.38185" lon="6.73353">
        <ele>1751.66</ele>
        <time>2011-07-31T14:03:27.000Z</time>
      </trkpt>
      <trkpt lat="46.38183" lon="6.73308">
        <ele>1755.99</ele>
        <time>2011-07-31T14:03:30.000Z</time>
      </trkpt>
      <trkpt lat="46.38176" lon="6.73297">
        <ele>1759.35</ele>
        <time>2011-07-31T14:03:32.000Z</time>
      </trkpt>
      <trkpt lat="46.38182" lon="6.73305">
        <ele>1762.71</ele>
        <time>2011-07-31T14:03:35.000Z</time>
      </trkpt>
      <trkpt lat="46.38185" lon="6.73367">
        <ele>1762.23</ele>
        <time>2011-07-31T14:03:40.000Z</time>
      </trkpt>
      <trkpt lat="46.38184" lon="6.7338">
        <ele>1763.68</ele>
        <time>2011-07-31T14:03:43.000Z</time>
      </trkpt>
      <trkpt lat="46.38185" lon="6.73357">
        <ele>1760.31</ele>
        <time>2011-07-31T14:03:45.000Z</time>
      </trkpt>
      <trkpt lat="46.38185" lon="6.73343">
        <ele>1761.27</ele>
        <time>2011-07-31T14:03:46.000Z</time>
      </trkpt>
      <trkpt lat="46.38184" lon="6.73326">
        <ele>1765.12</ele>
        <time>2011-07-31T14:03:47.000Z</time>
      </trkpt>
      <trkpt lat="46.3818" lon="6.73274">
        <ele>1768.48</ele>
        <time>2011-07-31T14:03:52.000Z</time>
      </trkpt>
      <trkpt lat="46.3817" lon="6.73246">
        <ele>1767.04</ele>
        <time>2011-07-31T14:03:57.000Z</time>
      </trkpt>
      <trkpt lat="46.3818" lon="6.73276">
        <ele>1766.08</ele>
        <time>2011-07-31T14:04:01.000Z</time>
      </trkpt>
      <trkpt lat="46.38184" lon="6.73322">
        <ele>1761.27</ele>
        <time>2011-07-31T14:04:05.000Z</time>
      </trkpt>
      <trkpt lat="46.38185" lon="6.73339">
        <ele>1760.79</ele>
        <time>2011-07-31T14:04:07.000Z</time>
      </trkpt>
      <trkpt lat="46.38185" lon="6.7336">
        <ele>1765.6</ele>
        <time>2011-07-31T14:04:09.000Z</time>
      </trkpt>
      <trkpt lat="46.38184" lon="6.73411">
        <ele>1763.68</ele>
        <time>2011-07-31T14:04:13.000Z</time>
      </trkpt>
      <trkpt lat="46.38253" lon="6.73523">
        <ele>1764.16</ele>
        <time>2011-07-31T14:04:21.000Z</time>
      </trkpt>
      <trkpt lat="46.38257" lon="6.73553">
        <ele>1765.12</ele>
        <time>2011-07-31T14:04:23.000Z</time>
      </trkpt>
      <trkpt lat="46.3826" lon="6.73599">
        <ele>1762.23</ele>
        <time>2011-07-31T14:04:26.000Z</time>
      </trkpt>
      <trkpt lat="46.38265" lon="6.73631">
        <ele>1760.31</ele>
        <time>2011-07-31T14:04:28.000Z</time>
      </trkpt>
      <trkpt lat="46.38269" lon="6.73657">
        <ele>1764.64</ele>
        <time>2011-07-31T14:04:30.000Z</time>
      </trkpt>
      <trkpt lat="46.38271" lon="6.73668">
        <ele>1764.64</ele>
        <time>2011-07-31T14:04:31.000Z</time>
      </trkpt>
      <trkpt lat="46.38273" lon="6.73696">
        <ele>1760.31</ele>
        <time>2011-07-31T14:04:33.000Z</time>
      </trkpt>
      <trkpt lat="46.38277" lon="6.73757">
        <ele>1764.16</ele>
        <time>2011-07-31T14:04:37.000Z</time>
      </trkpt>
      <trkpt lat="46.38278" lon="6.73785">
        <ele>1764.64</ele>
        <time>2011-07-31T14:04:39.000Z</time>
      </trkpt>
      <trkpt lat="46.38279" lon="6.7383">
        <ele>1762.71</ele>
        <time>2011-07-31T14:04:42.000Z</time>
      </trkpt>
      <trkpt lat="46.38278" lon="6.73873">
        <ele>1761.27</ele>
        <time>2011-07-31T14:04:45.000Z</time>
      </trkpt>
      <trkpt lat="46.38269" lon="6.73926">
        <ele>1764.16</ele>
        <time>2011-07-31T14:04:49.000Z</time>
      </trkpt>
      <trkpt lat="46.38266" lon="6.73968">
        <ele>1760.31</ele>
        <time>2011-07-31T14:04:52.000Z</time>
      </trkpt>
      <trkpt lat="46.38267" lon="6.74007">
        <ele>1757.43</ele>
        <time>2011-07-31T14:04:55.000Z</time>
      </trkpt>
      <trkpt lat="46.38252" lon="6.74075">
        <ele>1754.54</ele>
        <time>2011-07-31T14:05:00.000Z</time>
      </trkpt>
      <trkpt lat="46.3824" lon="6.7411">
        <ele>1751.18</ele>
        <time>2011-07-31T14:05:03.000Z</time>
      </trkpt>
      <trkpt lat="46.38227" lon="6.74165">
        <ele>1745.89</ele>
        <time>2011-07-31T14:05:07.000Z</time>
      </trkpt>
      <trkpt lat="46.38211" lon="6.74227">
        <ele>1741.57</ele>
        <time>2011-07-31T14:05:12.000Z</time>
      </trkpt>
      <trkpt lat="46.38192" lon="6.74288">
        <ele>1743.01</ele>
        <time>2011-07-31T14:05:17.000Z</time>
      </trkpt>
      <trkpt lat="46.38184" lon="6.74345">
        <ele>1748.29</ele>
        <time>2011-07-31T14:05:21.000Z</time>
      </trkpt>
      <trkpt lat="46.38168" lon="6.74387">
        <ele>1754.06</ele>
        <time>2011-07-31T14:05:25.000Z</time>
      </trkpt>
      <trkpt lat="46.38134" lon="6.74374">
        <ele>1756.47</ele>
        <time>2011-07-31T14:05:30.000Z</time>
      </trkpt>
      <trkpt lat="46.38132" lon="6.74343">
        <ele>1753.1</ele>
        <time>2011-07-31T14:05:33.000Z</time>
      </trkpt>
      <trkpt lat="46.38147" lon="6.74313">
        <ele>1749.26</ele>
        <time>2011-07-31T14:05:36.000Z</time>
      </trkpt>
      <trkpt lat="46.38183" lon="6.74316">
        <ele>1751.66</ele>
        <time>2011-07-31T14:05:40.000Z</time>
      </trkpt>
      <trkpt lat="46.38202" lon="6.74343">
        <ele>1755.02</ele>
        <time>2011-07-31T14:05:43.000Z</time>
      </trkpt>
      <trkpt lat="46.38208" lon="6.74369">
        <ele>1755.99</ele>
        <time>2011-07-31T14:05:45.000Z</time>
      </trkpt>
      <trkpt lat="46.38188" lon="6.74417">
        <ele>1755.99</ele>
        <time>2011-07-31T14:05:49.000Z</time>
      </trkpt>
      <trkpt lat="46.38155" lon="6.74401">
        <ele>1759.83</ele>
        <time>2011-07-31T14:05:54.000Z</time>
      </trkpt>
      <trkpt lat="46.38152" lon="6.74394">
        <ele>1759.35</ele>
        <time>2011-07-31T14:05:55.000Z</time>
      </trkpt>
      <trkpt lat="46.38148" lon="6.74361">
        <ele>1756.47</ele>
        <time>2011-07-31T14:05:58.000Z</time>
      </trkpt>
      <trkpt lat="46.3815" lon="6.74349">
        <ele>1756.47</ele>
        <time>2011-07-31T14:05:59.000Z</time>
      </trkpt>
      <trkpt lat="46.38152" lon="6.74339">
        <ele>1755.5</ele>
        <time>2011-07-31T14:06:00.000Z</time>
      </trkpt>
      <trkpt lat="46.38157" lon="6.74319">
        <ele>1754.06</ele>
        <time>2011-07-31T14:06:02.000Z</time>
      </trkpt>
      <trkpt lat="46.38159" lon="6.74298">
        <ele>1753.1</ele>
        <time>2011-07-31T14:06:04.000Z</time>
      </trkpt>
      <trkpt lat="46.38158" lon="6.74279">
        <ele>1755.5</ele>
        <time>2011-07-31T14:06:06.000Z</time>
      </trkpt>
      <trkpt lat="46.38155" lon="6.74264">
        <ele>1756.47</ele>
        <time>2011-07-31T14:06:08.000Z</time>
      </trkpt>
      <trkpt lat="46.3816" lon="6.74232">
        <ele>1750.22</ele>
        <time>2011-07-31T14:06:11.000Z</time>
      </trkpt>
      <trkpt lat="46.38164" lon="6.7422">
        <ele>1750.22</ele>
        <time>2011-07-31T14:06:12.000Z</time>
      </trkpt>
      <trkpt lat="46.38173" lon="6.74204">
        <ele>1756.47</ele>
        <time>2011-07-31T14:06:14.000Z</time>
      </trkpt>
      <trkpt lat="46.38178" lon="6.74199">
        <ele>1757.91</ele>
        <time>2011-07-31T14:06:15.000Z</time>
      </trkpt>
      <trkpt lat="46.38189" lon="6.74186">
        <ele>1756.47</ele>
        <time>2011-07-31T14:06:17.000Z</time>
      </trkpt>
      <trkpt lat="46.38201" lon="6.74169">
        <ele>1759.35</ele>
        <time>2011-07-31T14:06:19.000Z</time>
      </trkpt>
      <trkpt lat="46.38211" lon="6.74163">
        <ele>1760.31</ele>
        <time>2011-07-31T14:06:21.000Z</time>
      </trkpt>
      <trkpt lat="46.38226" lon="6.74169">
        <ele>1755.02</ele>
        <time>2011-07-31T14:06:23.000Z</time>
      </trkpt>
      <trkpt lat="46.38235" lon="6.74175">
        <ele>1750.7</ele>
        <time>2011-07-31T14:06:24.000Z</time>
      </trkpt>
      <trkpt lat="46.38247" lon="6.74198">
        <ele>1746.37</ele>
        <time>2011-07-31T14:06:26.000Z</time>
      </trkpt>
      <trkpt lat="46.38251" lon="6.74223">
        <ele>1742.53</ele>
        <time>2011-07-31T14:06:28.000Z</time>
      </trkpt>
      <trkpt lat="46.38251" lon="6.74235">
        <ele>1739.16</ele>
        <time>2011-07-31T14:06:29.000Z</time>
      </trkpt>
      <trkpt lat="46.38251" lon="6.7425">
        <ele>1737.24</ele>
        <time>2011-07-31T14:06:30.000Z</time>
      </trkpt>
      <trkpt lat="46.3825" lon="6.74292">
        <ele>1730.51</ele>
        <time>2011-07-31T14:06:33.000Z</time>
      </trkpt>
      <trkpt lat="46.38253" lon="6.74332">
        <ele>1723.78</ele>
        <time>2011-07-31T14:06:36.000Z</time>
      </trkpt>
      <trkpt lat="46.38256" lon="6.74344">
        <ele>1722.34</ele>
        <time>2011-07-31T14:06:37.000Z</time>
      </trkpt>
      <trkpt lat="46.38264" lon="6.74376">
        <ele>1718.49</ele>
        <time>2011-07-31T14:06:40.000Z</time>
      </trkpt>
      <trkpt lat="46.38277" lon="6.744">
        <ele>1712.25</ele>
        <time>2011-07-31T14:06:43.000Z</time>
      </trkpt>
      <trkpt lat="46.38284" lon="6.74404">
        <ele>1711.76</ele>
        <time>2011-07-31T14:06:44.000Z</time>
      </trkpt>
      <trkpt lat="46.38311" lon="6.74394">
        <ele>1710.32</ele>
        <time>2011-07-31T14:06:49.000Z</time>
      </trkpt>
      <trkpt lat="46.38326" lon="6.74361">
        <ele>1714.17</ele>
        <time>2011-07-31T14:06:53.000Z</time>
      </trkpt>
      <trkpt lat="46.3833" lon="6.74311">
        <ele>1717.05</ele>
        <time>2011-07-31T14:06:58.000Z</time>
      </trkpt>
      <trkpt lat="46.38329" lon="6.74287">
        <ele>1717.05</ele>
        <time>2011-07-31T14:07:00.000Z</time>
      </trkpt>
      <trkpt lat="46.38342" lon="6.74243">
        <ele>1718.97</ele>
        <time>2011-07-31T14:07:05.000Z</time>
      </trkpt>
      <trkpt lat="46.38367" lon="6.74271">
        <ele>1716.57</ele>
        <time>2011-07-31T14:07:10.000Z</time>
      </trkpt>
      <trkpt lat="46.38353" lon="6.74319">
        <ele>1720.42</ele>
        <time>2011-07-31T14:07:14.000Z</time>
      </trkpt>
      <trkpt lat="46.38305" lon="6.7433">
        <ele>1720.42</ele>
        <time>2011-07-31T14:07:19.000Z</time>
      </trkpt>
      <trkpt lat="46.38288" lon="6.74315">
        <ele>1722.34</ele>
        <time>2011-07-31T14:07:21.000Z</time>
      </trkpt>
      <trkpt lat="46.38274" lon="6.74299">
        <ele>1722.82</ele>
        <time>2011-07-31T14:07:23.000Z</time>
      </trkpt>
      <trkpt lat="46.38261" lon="6.74267">
        <ele>1717.53</ele>
        <time>2011-07-31T14:07:26.000Z</time>
      </trkpt>
      <trkpt lat="46.38261" lon="6.74253">
        <ele>1714.17</ele>
        <time>2011-07-31T14:07:27.000Z</time>
      </trkpt>
      <trkpt lat="46.38264" lon="6.74241">
        <ele>1710.8</ele>
        <time>2011-07-31T14:07:28.000Z</time>
      </trkpt>
      <trkpt lat="46.38268" lon="6.7423">
        <ele>1706</ele>
        <time>2011-07-31T14:07:29.000Z</time>
      </trkpt>
      <trkpt lat="46.38273" lon="6.74198">
        <ele>1695.42</ele>
        <time>2011-07-31T14:07:32.000Z</time>
      </trkpt>
      <trkpt lat="46.3827" lon="6.74184">
        <ele>1688.21</ele>
        <time>2011-07-31T14:07:33.000Z</time>
      </trkpt>
      <trkpt lat="46.38267" lon="6.74169">
        <ele>1683.89</ele>
        <time>2011-07-31T14:07:34.000Z</time>
      </trkpt>
      <trkpt lat="46.38263" lon="6.74142">
        <ele>1681</ele>
        <time>2011-07-31T14:07:36.000Z</time>
      </trkpt>
      <trkpt lat="46.3826" lon="6.74104">
        <ele>1673.31</ele>
        <time>2011-07-31T14:07:39.000Z</time>
      </trkpt>
      <trkpt lat="46.38258" lon="6.74075">
        <ele>1668.51</ele>
        <time>2011-07-31T14:07:41.000Z</time>
      </trkpt>
      <trkpt lat="46.38261" lon="6.73959">
        <ele>1664.66</ele>
        <time>2011-07-31T14:07:50.000Z</time>
      </trkpt>
      <trkpt lat="46.38263" lon="6.73941">
        <ele>1670.91</ele>
        <time>2011-07-31T14:07:52.000Z</time>
      </trkpt>
      <trkpt lat="46.38264" lon="6.73934">
        <ele>1672.35</ele>
        <time>2011-07-31T14:07:53.000Z</time>
      </trkpt>
      <trkpt lat="46.38261" lon="6.73902">
        <ele>1668.99</ele>
        <time>2011-07-31T14:07:56.000Z</time>
      </trkpt>
      <trkpt lat="46.38261" lon="6.73871">
        <ele>1673.31</ele>
        <time>2011-07-31T14:07:59.000Z</time>
      </trkpt>
      <trkpt lat="46.38261" lon="6.73863">
        <ele>1673.79</ele>
        <time>2011-07-31T14:08:00.000Z</time>
      </trkpt>
      <trkpt lat="46.3826" lon="6.73831">
        <ele>1671.87</ele>
        <time>2011-07-31T14:08:03.000Z</time>
      </trkpt>
      <trkpt lat="46.38258" lon="6.7381">
        <ele>1676.2</ele>
        <time>2011-07-31T14:08:05.000Z</time>
      </trkpt>
      <trkpt lat="46.38254" lon="6.73792">
        <ele>1677.16</ele>
        <time>2011-07-31T14:08:07.000Z</time>
      </trkpt>
      <trkpt lat="46.38253" lon="6.73782">
        <ele>1674.27</ele>
        <time>2011-07-31T14:08:08.000Z</time>
      </trkpt>
      <trkpt lat="46.38257" lon="6.7375">
        <ele>1677.64</ele>
        <time>2011-07-31T14:08:11.000Z</time>
      </trkpt>
      <trkpt lat="46.38255" lon="6.73706">
        <ele>1677.16</ele>
        <time>2011-07-31T14:08:15.000Z</time>
      </trkpt>
      <trkpt lat="46.38255" lon="6.73671">
        <ele>1679.56</ele>
        <time>2011-07-31T14:08:18.000Z</time>
      </trkpt>
      <trkpt lat="46.38253" lon="6.7364">
        <ele>1679.56</ele>
        <time>2011-07-31T14:08:21.000Z</time>
      </trkpt>
      <trkpt lat="46.38256" lon="6.73594">
        <ele>1683.41</ele>
        <time>2011-07-31T14:08:25.000Z</time>
      </trkpt>
      <trkpt lat="46.38256" lon="6.73574">
        <ele>1684.85</ele>
        <time>2011-07-31T14:08:27.000Z</time>
      </trkpt>
      <trkpt lat="46.38255" lon="6.73494">
        <ele>1681.96</ele>
        <time>2011-07-31T14:08:34.000Z</time>
      </trkpt>
      <trkpt lat="46.38252" lon="6.73471">
        <ele>1678.12</ele>
        <time>2011-07-31T14:08:36.000Z</time>
      </trkpt>
      <trkpt lat="46.38251" lon="6.73459">
        <ele>1675.23</ele>
        <time>2011-07-31T14:08:37.000Z</time>
      </trkpt>
      <trkpt lat="46.38256" lon="6.73423">
        <ele>1667.06</ele>
        <time>2011-07-31T14:08:40.000Z</time>
      </trkpt>
      <trkpt lat="46.38258" lon="6.73411">
        <ele>1665.14</ele>
        <time>2011-07-31T14:08:41.000Z</time>
      </trkpt>
      <trkpt lat="46.38263" lon="6.7336">
        <ele>1658.89</ele>
        <time>2011-07-31T14:08:45.000Z</time>
      </trkpt>
      <trkpt lat="46.38264" lon="6.73331">
        <ele>1654.09</ele>
        <time>2011-07-31T14:08:47.000Z</time>
      </trkpt>
      <trkpt lat="46.38265" lon="6.73273">
        <ele>1650.24</ele>
        <time>2011-07-31T14:08:51.000Z</time>
      </trkpt>
      <trkpt lat="46.38264" lon="6.73242">
        <ele>1648.8</ele>
        <time>2011-07-31T14:08:53.000Z</time>
      </trkpt>
      <trkpt lat="46.38263" lon="6.73198">
        <ele>1650.24</ele>
        <time>2011-07-31T14:08:56.000Z</time>
      </trkpt>
      <trkpt lat="46.38263" lon="6.73184">
        <ele>1649.76</ele>
        <time>2011-07-31T14:08:57.000Z</time>
      </trkpt>
      <trkpt lat="46.38246" lon="6.73097">
        <ele>1649.28</ele>
        <time>2011-07-31T14:09:03.000Z</time>
      </trkpt>
      <trkpt lat="46.38242" lon="6.73069">
        <ele>1648.32</ele>
        <time>2011-07-31T14:09:05.000Z</time>
      </trkpt>
      <trkpt lat="46.38234" lon="6.73029">
        <ele>1647.36</ele>
        <time>2011-07-31T14:09:08.000Z</time>
      </trkpt>
      <trkpt lat="46.38232" lon="6.72992">
        <ele>1649.76</ele>
        <time>2011-07-31T14:09:11.000Z</time>
      </trkpt>
      <trkpt lat="46.38232" lon="6.7298">
        <ele>1652.64</ele>
        <time>2011-07-31T14:09:12.000Z</time>
      </trkpt>
      <trkpt lat="46.38228" lon="6.72951">
        <ele>1657.45</ele>
        <time>2011-07-31T14:09:15.000Z</time>
      </trkpt>
      <trkpt lat="46.38222" lon="6.72906">
        <ele>1658.41</ele>
        <time>2011-07-31T14:09:19.000Z</time>
      </trkpt>
      <trkpt lat="46.38221" lon="6.72887">
        <ele>1659.37</ele>
        <time>2011-07-31T14:09:21.000Z</time>
      </trkpt>
      <trkpt lat="46.38219" lon="6.72867">
        <ele>1659.85</ele>
        <time>2011-07-31T14:09:23.000Z</time>
      </trkpt>
      <trkpt lat="46.3821" lon="6.7282">
        <ele>1656.01</ele>
        <time>2011-07-31T14:09:27.000Z</time>
      </trkpt>
      <trkpt lat="46.38198" lon="6.7279">
        <ele>1656.97</ele>
        <time>2011-07-31T14:09:30.000Z</time>
      </trkpt>
      <trkpt lat="46.38184" lon="6.72762">
        <ele>1655.05</ele>
        <time>2011-07-31T14:09:33.000Z</time>
      </trkpt>
      <trkpt lat="46.38136" lon="6.72671">
        <ele>1651.2</ele>
        <time>2011-07-31T14:09:42.000Z</time>
      </trkpt>
      <trkpt lat="46.38119" lon="6.72637">
        <ele>1646.4</ele>
        <time>2011-07-31T14:09:45.000Z</time>
      </trkpt>
      <trkpt lat="46.38115" lon="6.72626">
        <ele>1644.47</ele>
        <time>2011-07-31T14:09:46.000Z</time>
      </trkpt>
      <trkpt lat="46.38102" lon="6.72587">
        <ele>1641.11</ele>
        <time>2011-07-31T14:09:49.000Z</time>
      </trkpt>
      <trkpt lat="46.38087" lon="6.72554">
        <ele>1643.99</ele>
        <time>2011-07-31T14:09:52.000Z</time>
      </trkpt>
      <trkpt lat="46.38074" lon="6.72515">
        <ele>1647.36</ele>
        <time>2011-07-31T14:09:55.000Z</time>
      </trkpt>
      <trkpt lat="46.38071" lon="6.72504">
        <ele>1651.2</ele>
        <time>2011-07-31T14:09:56.000Z</time>
      </trkpt>
      <trkpt lat="46.3805" lon="6.72467">
        <ele>1649.76</ele>
        <time>2011-07-31T14:10:00.000Z</time>
      </trkpt>
      <trkpt lat="46.38043" lon="6.72396">
        <ele>1644.47</ele>
        <time>2011-07-31T14:10:06.000Z</time>
      </trkpt>
      <trkpt lat="46.38046" lon="6.72372">
        <ele>1639.67</ele>
        <time>2011-07-31T14:10:08.000Z</time>
      </trkpt>
      <trkpt lat="46.38047" lon="6.7236">
        <ele>1638.22</ele>
        <time>2011-07-31T14:10:09.000Z</time>
      </trkpt>
      <trkpt lat="46.3805" lon="6.72324">
        <ele>1636.3</ele>
        <time>2011-07-31T14:10:12.000Z</time>
      </trkpt>
      <trkpt lat="46.38055" lon="6.72291">
        <ele>1636.3</ele>
        <time>2011-07-31T14:10:15.000Z</time>
      </trkpt>
      <trkpt lat="46.38064" lon="6.72213">
        <ele>1635.82</ele>
        <time>2011-07-31T14:10:22.000Z</time>
      </trkpt>
      <trkpt lat="46.38068" lon="6.72158">
        <ele>1631.98</ele>
        <time>2011-07-31T14:10:27.000Z</time>
      </trkpt>
      <trkpt lat="46.38072" lon="6.72126">
        <ele>1627.17</ele>
        <time>2011-07-31T14:10:30.000Z</time>
      </trkpt>
      <trkpt lat="46.38072" lon="6.72114">
        <ele>1624.77</ele>
        <time>2011-07-31T14:10:31.000Z</time>
      </trkpt>
      <trkpt lat="46.38083" lon="6.72061">
        <ele>1621.4</ele>
        <time>2011-07-31T14:10:36.000Z</time>
      </trkpt>
      <trkpt lat="46.38087" lon="6.7204">
        <ele>1617.07</ele>
        <time>2011-07-31T14:10:38.000Z</time>
      </trkpt>
      <trkpt lat="46.38089" lon="6.72029">
        <ele>1614.67</ele>
        <time>2011-07-31T14:10:39.000Z</time>
      </trkpt>
      <trkpt lat="46.38102" lon="6.71995">
        <ele>1608.42</ele>
        <time>2011-07-31T14:10:42.000Z</time>
      </trkpt>
      <trkpt lat="46.3811" lon="6.71972">
        <ele>1605.06</ele>
        <time>2011-07-31T14:10:44.000Z</time>
      </trkpt>
      <trkpt lat="46.3812" lon="6.71949">
        <ele>1601.21</ele>
        <time>2011-07-31T14:10:46.000Z</time>
      </trkpt>
      <trkpt lat="46.38131" lon="6.71926">
        <ele>1599.29</ele>
        <time>2011-07-31T14:10:48.000Z</time>
      </trkpt>
      <trkpt lat="46.38137" lon="6.71901">
        <ele>1598.33</ele>
        <time>2011-07-31T14:10:50.000Z</time>
      </trkpt>
      <trkpt lat="46.38147" lon="6.71867">
        <ele>1596.41</ele>
        <time>2011-07-31T14:10:53.000Z</time>
      </trkpt>
      <trkpt lat="46.38152" lon="6.71842">
        <ele>1594.48</ele>
        <time>2011-07-31T14:10:55.000Z</time>
      </trkpt>
      <trkpt lat="46.38153" lon="6.7181">
        <ele>1597.37</ele>
        <time>2011-07-31T14:10:58.000Z</time>
      </trkpt>
      <trkpt lat="46.38161" lon="6.71774">
        <ele>1594</ele>
        <time>2011-07-31T14:11:01.000Z</time>
      </trkpt>
      <trkpt lat="46.38164" lon="6.71763">
        <ele>1597.37</ele>
        <time>2011-07-31T14:11:02.000Z</time>
      </trkpt>
      <trkpt lat="46.38169" lon="6.71751">
        <ele>1605.06</ele>
        <time>2011-07-31T14:11:04.000Z</time>
      </trkpt>
      <trkpt lat="46.38171" lon="6.71745">
        <ele>1605.54</ele>
        <time>2011-07-31T14:11:05.000Z</time>
      </trkpt>
      <trkpt lat="46.38171" lon="6.71714">
        <ele>1601.69</ele>
        <time>2011-07-31T14:11:08.000Z</time>
      </trkpt>
      <trkpt lat="46.38165" lon="6.71693">
        <ele>1606.02</ele>
        <time>2011-07-31T14:11:10.000Z</time>
      </trkpt>
      <trkpt lat="46.38158" lon="6.71672">
        <ele>1607.46</ele>
        <time>2011-07-31T14:11:12.000Z</time>
      </trkpt>
      <trkpt lat="46.38144" lon="6.71611">
        <ele>1611.79</ele>
        <time>2011-07-31T14:11:17.000Z</time>
      </trkpt>
      <trkpt lat="46.38141" lon="6.71599">
        <ele>1612.75</ele>
        <time>2011-07-31T14:11:18.000Z</time>
      </trkpt>
      <trkpt lat="46.38123" lon="6.71551">
        <ele>1615.15</ele>
        <time>2011-07-31T14:11:22.000Z</time>
      </trkpt>
      <trkpt lat="46.38118" lon="6.71507">
        <ele>1618.52</ele>
        <time>2011-07-31T14:11:26.000Z</time>
      </trkpt>
      <trkpt lat="46.38111" lon="6.71486">
        <ele>1615.15</ele>
        <time>2011-07-31T14:11:28.000Z</time>
      </trkpt>
      <trkpt lat="46.38092" lon="6.71446">
        <ele>1613.23</ele>
        <time>2011-07-31T14:11:32.000Z</time>
      </trkpt>
      <trkpt lat="46.38081" lon="6.71414">
        <ele>1607.94</ele>
        <time>2011-07-31T14:11:35.000Z</time>
      </trkpt>
      <trkpt lat="46.38064" lon="6.71371">
        <ele>1607.46</ele>
        <time>2011-07-31T14:11:39.000Z</time>
      </trkpt>
      <trkpt lat="46.38044" lon="6.713">
        <ele>1604.1</ele>
        <time>2011-07-31T14:11:45.000Z</time>
      </trkpt>
      <trkpt lat="46.38013" lon="6.71186">
        <ele>1603.14</ele>
        <time>2011-07-31T14:11:54.000Z</time>
      </trkpt>
      <trkpt lat="46.37994" lon="6.71137">
        <ele>1606.98</ele>
        <time>2011-07-31T14:11:58.000Z</time>
      </trkpt>
      <trkpt lat="46.37984" lon="6.71103">
        <ele>1607.46</ele>
        <time>2011-07-31T14:12:01.000Z</time>
      </trkpt>
      <trkpt lat="46.37954" lon="6.7105">
        <ele>1604.58</ele>
        <time>2011-07-31T14:12:06.000Z</time>
      </trkpt>
      <trkpt lat="46.37922" lon="6.71018">
        <ele>1603.62</ele>
        <time>2011-07-31T14:12:10.000Z</time>
      </trkpt>
      <trkpt lat="46.37882" lon="6.71002">
        <ele>1606.98</ele>
        <time>2011-07-31T14:12:14.000Z</time>
      </trkpt>
      <trkpt lat="46.37872" lon="6.70998">
        <ele>1606.5</ele>
        <time>2011-07-31T14:12:15.000Z</time>
      </trkpt>
      <trkpt lat="46.3783" lon="6.70971">
        <ele>1610.35</ele>
        <time>2011-07-31T14:12:20.000Z</time>
      </trkpt>
      <trkpt lat="46.37806" lon="6.70958">
        <ele>1608.42</ele>
        <time>2011-07-31T14:12:23.000Z</time>
      </trkpt>
      <trkpt lat="46.37768" lon="6.70907">
        <ele>1611.31</ele>
        <time>2011-07-31T14:12:29.000Z</time>
      </trkpt>
      <trkpt lat="46.3776" lon="6.70892">
        <ele>1614.19</ele>
        <time>2011-07-31T14:12:31.000Z</time>
      </trkpt>
      <trkpt lat="46.37749" lon="6.70861">
        <ele>1607.46</ele>
        <time>2011-07-31T14:12:34.000Z</time>
      </trkpt>
      <trkpt lat="46.37744" lon="6.70849">
        <ele>1607.46</ele>
        <time>2011-07-31T14:12:35.000Z</time>
      </trkpt>
      <trkpt lat="46.37725" lon="6.7082">
        <ele>1611.31</ele>
        <time>2011-07-31T14:12:38.000Z</time>
      </trkpt>
      <trkpt lat="46.37707" lon="6.70791">
        <ele>1607.46</ele>
        <time>2011-07-31T14:12:41.000Z</time>
      </trkpt>
      <trkpt lat="46.37701" lon="6.70781">
        <ele>1606.98</ele>
        <time>2011-07-31T14:12:42.000Z</time>
      </trkpt>
      <trkpt lat="46.37669" lon="6.70749">
        <ele>1603.14</ele>
        <time>2011-07-31T14:12:46.000Z</time>
      </trkpt>
      <trkpt lat="46.37642" lon="6.70729">
        <ele>1600.25</ele>
        <time>2011-07-31T14:12:49.000Z</time>
      </trkpt>
      <trkpt lat="46.37612" lon="6.70709">
        <ele>1596.89</ele>
        <time>2011-07-31T14:12:52.000Z</time>
      </trkpt>
      <trkpt lat="46.37574" lon="6.70681">
        <ele>1597.85</ele>
        <time>2011-07-31T14:12:56.000Z</time>
      </trkpt>
      <trkpt lat="46.37543" lon="6.70664">
        <ele>1603.14</ele>
        <time>2011-07-31T14:12:59.000Z</time>
      </trkpt>
      <trkpt lat="46.37534" lon="6.7066">
        <ele>1604.58</ele>
        <time>2011-07-31T14:13:00.000Z</time>
      </trkpt>
      <trkpt lat="46.37516" lon="6.70641">
        <ele>1598.81</ele>
        <time>2011-07-31T14:13:03.000Z</time>
      </trkpt>
      <trkpt lat="46.3751" lon="6.70628">
        <ele>1592.56</ele>
        <time>2011-07-31T14:13:04.000Z</time>
      </trkpt>
      <trkpt lat="46.37486" lon="6.70591">
        <ele>1594.48</ele>
        <time>2011-07-31T14:13:07.000Z</time>
      </trkpt>
      <trkpt lat="46.37471" lon="6.70575">
        <ele>1596.41</ele>
        <time>2011-07-31T14:13:09.000Z</time>
      </trkpt>
      <trkpt lat="46.37438" lon="6.70534">
        <ele>1600.73</ele>
        <time>2011-07-31T14:13:13.000Z</time>
      </trkpt>
      <trkpt lat="46.37411" lon="6.70509">
        <ele>1604.1</ele>
        <time>2011-07-31T14:13:16.000Z</time>
      </trkpt>
      <trkpt lat="46.37401" lon="6.705">
        <ele>1604.58</ele>
        <time>2011-07-31T14:13:17.000Z</time>
      </trkpt>
      <trkpt lat="46.37371" lon="6.70476">
        <ele>1607.94</ele>
        <time>2011-07-31T14:13:20.000Z</time>
      </trkpt>
      <trkpt lat="46.37352" lon="6.70463">
        <ele>1608.9</ele>
        <time>2011-07-31T14:13:22.000Z</time>
      </trkpt>
      <trkpt lat="46.37309" lon="6.70434">
        <ele>1612.27</ele>
        <time>2011-07-31T14:13:26.000Z</time>
      </trkpt>
      <trkpt lat="46.37288" lon="6.70425">
        <ele>1617.56</ele>
        <time>2011-07-31T14:13:28.000Z</time>
      </trkpt>
      <trkpt lat="46.37277" lon="6.70419">
        <ele>1618.52</ele>
        <time>2011-07-31T14:13:29.000Z</time>
      </trkpt>
      <trkpt lat="46.37271" lon="6.70382">
        <ele>1621.4</ele>
        <time>2011-07-31T14:13:34.000Z</time>
      </trkpt>
      <trkpt lat="46.37286" lon="6.70401">
        <ele>1624.28</ele>
        <time>2011-07-31T14:13:37.000Z</time>
      </trkpt>
      <trkpt lat="46.37288" lon="6.70411">
        <ele>1624.28</ele>
        <time>2011-07-31T14:13:38.000Z</time>
      </trkpt>
      <trkpt lat="46.37296" lon="6.70438">
        <ele>1625.25</ele>
        <time>2011-07-31T14:13:41.000Z</time>
      </trkpt>
      <trkpt lat="46.3731" lon="6.70459">
        <ele>1629.09</ele>
        <time>2011-07-31T14:13:44.000Z</time>
      </trkpt>
      <trkpt lat="46.37321" lon="6.70468">
        <ele>1636.78</ele>
        <time>2011-07-31T14:13:47.000Z</time>
      </trkpt>
      <trkpt lat="46.3733" lon="6.70454">
        <ele>1637.26</ele>
        <time>2011-07-31T14:13:49.000Z</time>
      </trkpt>
      <trkpt lat="46.37324" lon="6.70425">
        <ele>1636.3</ele>
        <time>2011-07-31T14:13:51.000Z</time>
      </trkpt>
      <trkpt lat="46.37284" lon="6.70405">
        <ele>1630.05</ele>
        <time>2011-07-31T14:13:55.000Z</time>
      </trkpt>
      <trkpt lat="46.3726" lon="6.70412">
        <ele>1624.77</ele>
        <time>2011-07-31T14:13:57.000Z</time>
      </trkpt>
      <trkpt lat="46.37235" lon="6.7042">
        <ele>1622.36</ele>
        <time>2011-07-31T14:13:59.000Z</time>
      </trkpt>
      <trkpt lat="46.37191" lon="6.70398">
        <ele>1625.25</ele>
        <time>2011-07-31T14:14:04.000Z</time>
      </trkpt>
      <trkpt lat="46.37207" lon="6.70383">
        <ele>1622.84</ele>
        <time>2011-07-31T14:14:07.000Z</time>
      </trkpt>
      <trkpt lat="46.37213" lon="6.70385">
        <ele>1624.77</ele>
        <time>2011-07-31T14:14:08.000Z</time>
      </trkpt>
      <trkpt lat="46.37245" lon="6.70398">
        <ele>1622.36</ele>
        <time>2011-07-31T14:14:14.000Z</time>
      </trkpt>
      <trkpt lat="46.3725" lon="6.70401">
        <ele>1622.36</ele>
        <time>2011-07-31T14:14:15.000Z</time>
      </trkpt>
      <trkpt lat="46.37265" lon="6.70406">
        <ele>1618.04</ele>
        <time>2011-07-31T14:14:18.000Z</time>
      </trkpt>
      <trkpt lat="46.37286" lon="6.7042">
        <ele>1621.88</ele>
        <time>2011-07-31T14:14:22.000Z</time>
      </trkpt>
      <trkpt lat="46.37297" lon="6.70427">
        <ele>1623.32</ele>
        <time>2011-07-31T14:14:24.000Z</time>
      </trkpt>
      <trkpt lat="46.37338" lon="6.70465">
        <ele>1626.21</ele>
        <time>2011-07-31T14:14:32.000Z</time>
      </trkpt>
      <trkpt lat="46.37349" lon="6.70477">
        <ele>1629.57</ele>
        <time>2011-07-31T14:14:34.000Z</time>
      </trkpt>
      <trkpt lat="46.37354" lon="6.70483">
        <ele>1630.53</ele>
        <time>2011-07-31T14:14:35.000Z</time>
      </trkpt>
      <trkpt lat="46.3738" lon="6.70528">
        <ele>1641.11</ele>
        <time>2011-07-31T14:14:40.000Z</time>
      </trkpt>
      <trkpt lat="46.37387" lon="6.70529">
        <ele>1641.11</ele>
        <time>2011-07-31T14:14:41.000Z</time>
      </trkpt>
      <trkpt lat="46.37394" lon="6.70525">
        <ele>1648.32</ele>
        <time>2011-07-31T14:14:42.000Z</time>
      </trkpt>
      <trkpt lat="46.37398" lon="6.70515">
        <ele>1648.32</ele>
        <time>2011-07-31T14:14:43.000Z</time>
      </trkpt>
      <trkpt lat="46.37377" lon="6.70488">
        <ele>1646.4</ele>
        <time>2011-07-31T14:14:46.000Z</time>
      </trkpt>
      <trkpt lat="46.37352" lon="6.70486">
        <ele>1643.03</ele>
        <time>2011-07-31T14:14:48.000Z</time>
      </trkpt>
      <trkpt lat="46.37341" lon="6.70488">
        <ele>1644.47</ele>
        <time>2011-07-31T14:14:49.000Z</time>
      </trkpt>
      <trkpt lat="46.37301" lon="6.70449">
        <ele>1655.53</ele>
        <time>2011-07-31T14:14:55.000Z</time>
      </trkpt>
      <trkpt lat="46.37312" lon="6.70439">
        <ele>1658.41</ele>
        <time>2011-07-31T14:14:57.000Z</time>
      </trkpt>
      <trkpt lat="46.3732" lon="6.70431">
        <ele>1662.74</ele>
        <time>2011-07-31T14:14:59.000Z</time>
      </trkpt>
      <trkpt lat="46.37347" lon="6.70431">
        <ele>1660.33</ele>
        <time>2011-07-31T14:15:05.000Z</time>
      </trkpt>
      <trkpt lat="46.37352" lon="6.70451">
        <ele>1655.05</ele>
        <time>2011-07-31T14:15:07.000Z</time>
      </trkpt>
      <trkpt lat="46.37355" lon="6.70475">
        <ele>1651.2</ele>
        <time>2011-07-31T14:15:09.000Z</time>
      </trkpt>
      <trkpt lat="46.37366" lon="6.70495">
        <ele>1648.8</ele>
        <time>2011-07-31T14:15:11.000Z</time>
      </trkpt>
      <trkpt lat="46.37383" lon="6.70517">
        <ele>1652.64</ele>
        <time>2011-07-31T14:15:14.000Z</time>
      </trkpt>
      <trkpt lat="46.37393" lon="6.70532">
        <ele>1656.97</ele>
        <time>2011-07-31T14:15:16.000Z</time>
      </trkpt>
      <trkpt lat="46.37411" lon="6.70548">
        <ele>1659.85</ele>
        <time>2011-07-31T14:15:19.000Z</time>
      </trkpt>
      <trkpt lat="46.37418" lon="6.70554">
        <ele>1660.81</ele>
        <time>2011-07-31T14:15:20.000Z</time>
      </trkpt>
      <trkpt lat="46.37429" lon="6.70568">
        <ele>1668.02</ele>
        <time>2011-07-31T14:15:22.000Z</time>
      </trkpt>
      <trkpt lat="46.37438" lon="6.7058">
        <ele>1668.99</ele>
        <time>2011-07-31T14:15:24.000Z</time>
      </trkpt>
      <trkpt lat="46.37444" lon="6.70586">
        <ele>1667.54</ele>
        <time>2011-07-31T14:15:25.000Z</time>
      </trkpt>
      <trkpt lat="46.37457" lon="6.70597">
        <ele>1670.91</ele>
        <time>2011-07-31T14:15:27.000Z</time>
      </trkpt>
      <trkpt lat="46.37464" lon="6.70612">
        <ele>1676.68</ele>
        <time>2011-07-31T14:15:29.000Z</time>
      </trkpt>
      <trkpt lat="46.37473" lon="6.70637">
        <ele>1681.96</ele>
        <time>2011-07-31T14:15:32.000Z</time>
      </trkpt>
      <trkpt lat="46.3748" lon="6.70654">
        <ele>1683.89</ele>
        <time>2011-07-31T14:15:34.000Z</time>
      </trkpt>
      <trkpt lat="46.37512" lon="6.70661">
        <ele>1680.04</ele>
        <time>2011-07-31T14:15:41.000Z</time>
      </trkpt>
      <trkpt lat="46.37516" lon="6.70651">
        <ele>1680.52</ele>
        <time>2011-07-31T14:15:42.000Z</time>
      </trkpt>
      <trkpt lat="46.37518" lon="6.70641">
        <ele>1684.37</ele>
        <time>2011-07-31T14:15:43.000Z</time>
      </trkpt>
      <trkpt lat="46.37518" lon="6.70631">
        <ele>1688.69</ele>
        <time>2011-07-31T14:15:44.000Z</time>
      </trkpt>
      <trkpt lat="46.37516" lon="6.70622">
        <ele>1692.06</ele>
        <time>2011-07-31T14:15:45.000Z</time>
      </trkpt>
      <trkpt lat="46.37514" lon="6.70612">
        <ele>1692.06</ele>
        <time>2011-07-31T14:15:46.000Z</time>
      </trkpt>
      <trkpt lat="46.37488" lon="6.70572">
        <ele>1697.34</ele>
        <time>2011-07-31T14:15:50.000Z</time>
      </trkpt>
      <trkpt lat="46.3747" lon="6.70567">
        <ele>1701.67</ele>
        <time>2011-07-31T14:15:52.000Z</time>
      </trkpt>
      <trkpt lat="46.3745" lon="6.70578">
        <ele>1703.11</ele>
        <time>2011-07-31T14:15:54.000Z</time>
      </trkpt>
      <trkpt lat="46.37441" lon="6.70635">
        <ele>1701.19</ele>
        <time>2011-07-31T14:15:58.000Z</time>
      </trkpt>
      <trkpt lat="46.37454" lon="6.70665">
        <ele>1703.11</ele>
        <time>2011-07-31T14:16:01.000Z</time>
      </trkpt>
      <trkpt lat="46.37476" lon="6.70698">
        <ele>1707.44</ele>
        <time>2011-07-31T14:16:05.000Z</time>
      </trkpt>
      <trkpt lat="46.3749" lon="6.70732">
        <ele>1711.76</ele>
        <time>2011-07-31T14:16:08.000Z</time>
      </trkpt>
      <trkpt lat="46.37532" lon="6.70759">
        <ele>1715.61</ele>
        <time>2011-07-31T14:16:14.000Z</time>
      </trkpt>
      <trkpt lat="46.3754" lon="6.70749">
        <ele>1718.97</ele>
        <time>2011-07-31T14:16:16.000Z</time>
      </trkpt>
      <trkpt lat="46.37547" lon="6.70725">
        <ele>1720.9</ele>
        <time>2011-07-31T14:16:19.000Z</time>
      </trkpt>
      <trkpt lat="46.3757" lon="6.70731">
        <ele>1719.46</ele>
        <time>2011-07-31T14:16:23.000Z</time>
      </trkpt>
      <trkpt lat="46.37577" lon="6.7075">
        <ele>1719.94</ele>
        <time>2011-07-31T14:16:25.000Z</time>
      </trkpt>
      <trkpt lat="46.37583" lon="6.7077">
        <ele>1717.53</ele>
        <time>2011-07-31T14:16:27.000Z</time>
      </trkpt>
      <trkpt lat="46.37602" lon="6.70778">
        <ele>1712.25</ele>
        <time>2011-07-31T14:16:30.000Z</time>
      </trkpt>
      <trkpt lat="46.37609" lon="6.70749">
        <ele>1709.36</ele>
        <time>2011-07-31T14:16:33.000Z</time>
      </trkpt>
      <trkpt lat="46.376" lon="6.7073">
        <ele>1706</ele>
        <time>2011-07-31T14:16:35.000Z</time>
      </trkpt>
      <trkpt lat="46.37592" lon="6.70723">
        <ele>1706</ele>
        <time>2011-07-31T14:16:36.000Z</time>
      </trkpt>
      <trkpt lat="46.37585" lon="6.70718">
        <ele>1705.04</ele>
        <time>2011-07-31T14:16:37.000Z</time>
      </trkpt>
      <trkpt lat="46.37559" lon="6.70704">
        <ele>1701.19</ele>
        <time>2011-07-31T14:16:40.000Z</time>
      </trkpt>
      <trkpt lat="46.37544" lon="6.70694">
        <ele>1703.11</ele>
        <time>2011-07-31T14:16:42.000Z</time>
      </trkpt>
      <trkpt lat="46.37502" lon="6.70639">
        <ele>1706</ele>
        <time>2011-07-31T14:16:49.000Z</time>
      </trkpt>
      <trkpt lat="46.37494" lon="6.70623">
        <ele>1706.48</ele>
        <time>2011-07-31T14:16:51.000Z</time>
      </trkpt>
      <trkpt lat="46.37483" lon="6.70596">
        <ele>1706.48</ele>
        <time>2011-07-31T14:16:54.000Z</time>
      </trkpt>
      <trkpt lat="46.37473" lon="6.70579">
        <ele>1705.52</ele>
        <time>2011-07-31T14:16:56.000Z</time>
      </trkpt>
      <trkpt lat="46.37449" lon="6.70569">
        <ele>1707.92</ele>
        <time>2011-07-31T14:16:59.000Z</time>
      </trkpt>
      <trkpt lat="46.37418" lon="6.70612">
        <ele>1713.21</ele>
        <time>2011-07-31T14:17:03.000Z</time>
      </trkpt>
      <trkpt lat="46.37416" lon="6.70639">
        <ele>1715.61</ele>
        <time>2011-07-31T14:17:05.000Z</time>
      </trkpt>
      <trkpt lat="46.37433" lon="6.70674">
        <ele>1714.17</ele>
        <time>2011-07-31T14:17:08.000Z</time>
      </trkpt>
      <trkpt lat="46.37456" lon="6.7066">
        <ele>1712.73</ele>
        <time>2011-07-31T14:17:13.000Z</time>
      </trkpt>
      <trkpt lat="46.37437" lon="6.70633">
        <ele>1711.28</ele>
        <time>2011-07-31T14:17:16.000Z</time>
      </trkpt>
      <trkpt lat="46.37402" lon="6.70668">
        <ele>1711.76</ele>
        <time>2011-07-31T14:17:20.000Z</time>
      </trkpt>
      <trkpt lat="46.37413" lon="6.70712">
        <ele>1710.32</ele>
        <time>2011-07-31T14:17:24.000Z</time>
      </trkpt>
      <trkpt lat="46.37426" lon="6.70723">
        <ele>1708.4</ele>
        <time>2011-07-31T14:17:26.000Z</time>
      </trkpt>
      <trkpt lat="46.37438" lon="6.70731">
        <ele>1706.96</ele>
        <time>2011-07-31T14:17:28.000Z</time>
      </trkpt>
      <trkpt lat="46.37469" lon="6.7074">
        <ele>1705.04</ele>
        <time>2011-07-31T14:17:33.000Z</time>
      </trkpt>
      <trkpt lat="46.37481" lon="6.70748">
        <ele>1709.36</ele>
        <time>2011-07-31T14:17:35.000Z</time>
      </trkpt>
      <trkpt lat="46.37491" lon="6.70754">
        <ele>1710.32</ele>
        <time>2011-07-31T14:17:37.000Z</time>
      </trkpt>
      <trkpt lat="46.3751" lon="6.7076">
        <ele>1700.71</ele>
        <time>2011-07-31T14:17:40.000Z</time>
      </trkpt>
      <trkpt lat="46.37524" lon="6.70763">
        <ele>1695.42</ele>
        <time>2011-07-31T14:17:42.000Z</time>
      </trkpt>
      <trkpt lat="46.37533" lon="6.70764">
        <ele>1693.02</ele>
        <time>2011-07-31T14:17:43.000Z</time>
      </trkpt>
      <trkpt lat="46.37571" lon="6.70772">
        <ele>1688.21</ele>
        <time>2011-07-31T14:17:48.000Z</time>
      </trkpt>
      <trkpt lat="46.37591" lon="6.70771">
        <ele>1697.83</ele>
        <time>2011-07-31T14:17:51.000Z</time>
      </trkpt>
      <trkpt lat="46.37596" lon="6.70769">
        <ele>1701.19</ele>
        <time>2011-07-31T14:17:52.000Z</time>
      </trkpt>
      <trkpt lat="46.37601" lon="6.70767">
        <ele>1701.67</ele>
        <time>2011-07-31T14:17:53.000Z</time>
      </trkpt>
      <trkpt lat="46.37618" lon="6.70778">
        <ele>1705.04</ele>
        <time>2011-07-31T14:17:56.000Z</time>
      </trkpt>
      <trkpt lat="46.37622" lon="6.70782">
        <ele>1706.48</ele>
        <time>2011-07-31T14:17:57.000Z</time>
      </trkpt>
      <trkpt lat="46.37638" lon="6.70783">
        <ele>1705.52</ele>
        <time>2011-07-31T14:18:00.000Z</time>
      </trkpt>
      <trkpt lat="46.37651" lon="6.70786">
        <ele>1700.23</ele>
        <time>2011-07-31T14:18:02.000Z</time>
      </trkpt>
      <trkpt lat="46.37665" lon="6.70795">
        <ele>1699.27</ele>
        <time>2011-07-31T14:18:04.000Z</time>
      </trkpt>
      <trkpt lat="46.37671" lon="6.708">
        <ele>1699.75</ele>
        <time>2011-07-31T14:18:05.000Z</time>
      </trkpt>
      <trkpt lat="46.3769" lon="6.7081">
        <ele>1694.94</ele>
        <time>2011-07-31T14:18:08.000Z</time>
      </trkpt>
      <trkpt lat="46.37703" lon="6.70819">
        <ele>1693.5</ele>
        <time>2011-07-31T14:18:10.000Z</time>
      </trkpt>
      <trkpt lat="46.37728" lon="6.70839">
        <ele>1689.65</ele>
        <time>2011-07-31T14:18:14.000Z</time>
      </trkpt>
      <trkpt lat="46.37764" lon="6.70869">
        <ele>1685.81</ele>
        <time>2011-07-31T14:18:19.000Z</time>
      </trkpt>
      <trkpt lat="46.37778" lon="6.70883">
        <ele>1682.44</ele>
        <time>2011-07-31T14:18:21.000Z</time>
      </trkpt>
      <trkpt lat="46.37799" lon="6.70905">
        <ele>1679.08</ele>
        <time>2011-07-31T14:18:24.000Z</time>
      </trkpt>
      <trkpt lat="46.37819" lon="6.70932">
        <ele>1676.2</ele>
        <time>2011-07-31T14:18:27.000Z</time>
      </trkpt>
      <trkpt lat="46.37831" lon="6.70951">
        <ele>1675.23</ele>
        <time>2011-07-31T14:18:29.000Z</time>
      </trkpt>
      <trkpt lat="46.3785" lon="6.70974">
        <ele>1672.35</ele>
        <time>2011-07-31T14:18:32.000Z</time>
      </trkpt>
      <trkpt lat="46.37863" lon="6.70991">
        <ele>1668.99</ele>
        <time>2011-07-31T14:18:34.000Z</time>
      </trkpt>
      <trkpt lat="46.37883" lon="6.7102">
        <ele>1665.14</ele>
        <time>2011-07-31T14:18:37.000Z</time>
      </trkpt>
      <trkpt lat="46.37889" lon="6.7103">
        <ele>1663.7</ele>
        <time>2011-07-31T14:18:38.000Z</time>
      </trkpt>
      <trkpt lat="46.37906" lon="6.71075">
        <ele>1661.3</ele>
        <time>2011-07-31T14:18:42.000Z</time>
      </trkpt>
      <trkpt lat="46.37909" lon="6.71087">
        <ele>1659.37</ele>
        <time>2011-07-31T14:18:43.000Z</time>
      </trkpt>
      <trkpt lat="46.37933" lon="6.71122">
        <ele>1656.01</ele>
        <time>2011-07-31T14:18:47.000Z</time>
      </trkpt>
      <trkpt lat="46.37959" lon="6.71151">
        <ele>1654.09</ele>
        <time>2011-07-31T14:18:51.000Z</time>
      </trkpt>
      <trkpt lat="46.37976" lon="6.71179">
        <ele>1656.01</ele>
        <time>2011-07-31T14:18:54.000Z</time>
      </trkpt>
      <trkpt lat="46.38001" lon="6.71223">
        <ele>1653.6</ele>
        <time>2011-07-31T14:18:58.000Z</time>
      </trkpt>
      <trkpt lat="46.38012" lon="6.71244">
        <ele>1656.49</ele>
        <time>2011-07-31T14:19:00.000Z</time>
      </trkpt>
      <trkpt lat="46.38021" lon="6.71265">
        <ele>1657.93</ele>
        <time>2011-07-31T14:19:02.000Z</time>
      </trkpt>
      <trkpt lat="46.38042" lon="6.7131">
        <ele>1654.57</ele>
        <time>2011-07-31T14:19:06.000Z</time>
      </trkpt>
      <trkpt lat="46.38047" lon="6.71322">
        <ele>1654.09</ele>
        <time>2011-07-31T14:19:07.000Z</time>
      </trkpt>
      <trkpt lat="46.38075" lon="6.71406">
        <ele>1652.16</ele>
        <time>2011-07-31T14:19:14.000Z</time>
      </trkpt>
      <trkpt lat="46.38087" lon="6.71442">
        <ele>1652.64</ele>
        <time>2011-07-31T14:19:17.000Z</time>
      </trkpt>
      <trkpt lat="46.38084" lon="6.71499">
        <ele>1656.97</ele>
        <time>2011-07-31T14:19:21.000Z</time>
      </trkpt>
      <trkpt lat="46.38087" lon="6.71544">
        <ele>1670.43</ele>
        <time>2011-07-31T14:19:25.000Z</time>
      </trkpt>
      <trkpt lat="46.38119" lon="6.7153">
        <ele>1671.39</ele>
        <time>2011-07-31T14:19:29.000Z</time>
      </trkpt>
      <trkpt lat="46.38105" lon="6.71488">
        <ele>1673.31</ele>
        <time>2011-07-31T14:19:33.000Z</time>
      </trkpt>
      <trkpt lat="46.38074" lon="6.71488">
        <ele>1676.68</ele>
        <time>2011-07-31T14:19:36.000Z</time>
      </trkpt>
      <trkpt lat="46.38054" lon="6.71531">
        <ele>1679.56</ele>
        <time>2011-07-31T14:19:39.000Z</time>
      </trkpt>
      <trkpt lat="46.38055" lon="6.71547">
        <ele>1682.93</ele>
        <time>2011-07-31T14:19:40.000Z</time>
      </trkpt>
      <trkpt lat="46.38061" lon="6.71559">
        <ele>1686.29</ele>
        <time>2011-07-31T14:19:41.000Z</time>
      </trkpt>
      <trkpt lat="46.3807" lon="6.71567">
        <ele>1685.81</ele>
        <time>2011-07-31T14:19:42.000Z</time>
      </trkpt>
      <trkpt lat="46.38098" lon="6.71561">
        <ele>1689.17</ele>
        <time>2011-07-31T14:19:45.000Z</time>
      </trkpt>
      <trkpt lat="46.38105" lon="6.71505">
        <ele>1691.58</ele>
        <time>2011-07-31T14:19:50.000Z</time>
      </trkpt>
      <trkpt lat="46.38074" lon="6.71476">
        <ele>1694.94</ele>
        <time>2011-07-31T14:19:54.000Z</time>
      </trkpt>
      <trkpt lat="46.38064" lon="6.71473">
        <ele>1695.42</ele>
        <time>2011-07-31T14:19:55.000Z</time>
      </trkpt>
      <trkpt lat="46.38046" lon="6.71477">
        <ele>1699.27</ele>
        <time>2011-07-31T14:19:57.000Z</time>
      </trkpt>
      <trkpt lat="46.38024" lon="6.71509">
        <ele>1698.79</ele>
        <time>2011-07-31T14:20:00.000Z</time>
      </trkpt>
      <trkpt lat="46.38012" lon="6.7156">
        <ele>1708.4</ele>
        <time>2011-07-31T14:20:04.000Z</time>
      </trkpt>
      <trkpt lat="46.38038" lon="6.71597">
        <ele>1709.36</ele>
        <time>2011-07-31T14:20:08.000Z</time>
      </trkpt>
      <trkpt lat="46.38071" lon="6.71567">
        <ele>1709.36</ele>
        <time>2011-07-31T14:20:13.000Z</time>
      </trkpt>
      <trkpt lat="46.38061" lon="6.71518">
        <ele>1713.69</ele>
        <time>2011-07-31T14:20:17.000Z</time>
      </trkpt>
      <trkpt lat="46.38014" lon="6.71503">
        <ele>1713.21</ele>
        <time>2011-07-31T14:20:22.000Z</time>
      </trkpt>
      <trkpt lat="46.37992" lon="6.71559">
        <ele>1712.73</ele>
        <time>2011-07-31T14:20:27.000Z</time>
      </trkpt>
      <trkpt lat="46.37992" lon="6.71596">
        <ele>1714.65</ele>
        <time>2011-07-31T14:20:30.000Z</time>
      </trkpt>
      <trkpt lat="46.37997" lon="6.71613">
        <ele>1717.53</ele>
        <time>2011-07-31T14:20:32.000Z</time>
      </trkpt>
      <trkpt lat="46.38007" lon="6.71629">
        <ele>1713.21</ele>
        <time>2011-07-31T14:20:34.000Z</time>
      </trkpt>
      <trkpt lat="46.38012" lon="6.71682">
        <ele>1714.17</ele>
        <time>2011-07-31T14:20:38.000Z</time>
      </trkpt>
      <trkpt lat="46.38006" lon="6.71706">
        <ele>1719.46</ele>
        <time>2011-07-31T14:20:40.000Z</time>
      </trkpt>
      <trkpt lat="46.3801" lon="6.71728">
        <ele>1722.82</ele>
        <time>2011-07-31T14:20:42.000Z</time>
      </trkpt>
      <trkpt lat="46.38034" lon="6.71727">
        <ele>1719.46</ele>
        <time>2011-07-31T14:20:46.000Z</time>
      </trkpt>
      <trkpt lat="46.38031" lon="6.71665">
        <ele>1715.61</ele>
        <time>2011-07-31T14:20:51.000Z</time>
      </trkpt>
      <trkpt lat="46.38019" lon="6.71612">
        <ele>1717.53</ele>
        <time>2011-07-31T14:20:55.000Z</time>
      </trkpt>
      <trkpt lat="46.38017" lon="6.71601">
        <ele>1723.78</ele>
        <time>2011-07-31T14:20:56.000Z</time>
      </trkpt>
      <trkpt lat="46.38035" lon="6.71566">
        <ele>1725.22</ele>
        <time>2011-07-31T14:21:01.000Z</time>
      </trkpt>
      <trkpt lat="46.38048" lon="6.71593">
        <ele>1720.9</ele>
        <time>2011-07-31T14:21:04.000Z</time>
      </trkpt>
      <trkpt lat="46.38021" lon="6.71626">
        <ele>1719.46</ele>
        <time>2011-07-31T14:21:07.000Z</time>
      </trkpt>
      <trkpt lat="46.37984" lon="6.71599">
        <ele>1723.78</ele>
        <time>2011-07-31T14:21:11.000Z</time>
      </trkpt>
      <trkpt lat="46.37976" lon="6.71539">
        <ele>1721.38</ele>
        <time>2011-07-31T14:21:16.000Z</time>
      </trkpt>
      <trkpt lat="46.37988" lon="6.71507">
        <ele>1724.26</ele>
        <time>2011-07-31T14:21:20.000Z</time>
      </trkpt>
      <trkpt lat="46.38001" lon="6.71506">
        <ele>1720.9</ele>
        <time>2011-07-31T14:21:22.000Z</time>
      </trkpt>
      <trkpt lat="46.38008" lon="6.71512">
        <ele>1721.38</ele>
        <time>2011-07-31T14:21:23.000Z</time>
      </trkpt>
      <trkpt lat="46.38018" lon="6.71558">
        <ele>1724.74</ele>
        <time>2011-07-31T14:21:27.000Z</time>
      </trkpt>
      <trkpt lat="46.38011" lon="6.71581">
        <ele>1723.3</ele>
        <time>2011-07-31T14:21:29.000Z</time>
      </trkpt>
      <trkpt lat="46.38005" lon="6.71605">
        <ele>1721.86</ele>
        <time>2011-07-31T14:21:31.000Z</time>
      </trkpt>
      <trkpt lat="46.38006" lon="6.71631">
        <ele>1720.42</ele>
        <time>2011-07-31T14:21:33.000Z</time>
      </trkpt>
      <trkpt lat="46.38005" lon="6.71644">
        <ele>1719.46</ele>
        <time>2011-07-31T14:21:34.000Z</time>
      </trkpt>
      <trkpt lat="46.37996" lon="6.71688">
        <ele>1724.26</ele>
        <time>2011-07-31T14:21:37.000Z</time>
      </trkpt>
      <trkpt lat="46.37993" lon="6.71701">
        <ele>1729.55</ele>
        <time>2011-07-31T14:21:38.000Z</time>
      </trkpt>
      <trkpt lat="46.37998" lon="6.71723">
        <ele>1736.76</ele>
        <time>2011-07-31T14:21:40.000Z</time>
      </trkpt>
      <trkpt lat="46.38013" lon="6.71737">
        <ele>1737.72</ele>
        <time>2011-07-31T14:21:42.000Z</time>
      </trkpt>
      <trkpt lat="46.38033" lon="6.71717">
        <ele>1741.08</ele>
        <time>2011-07-31T14:21:45.000Z</time>
      </trkpt>
      <trkpt lat="46.38033" lon="6.71681">
        <ele>1744.45</ele>
        <time>2011-07-31T14:21:48.000Z</time>
      </trkpt>
      <trkpt lat="46.38004" lon="6.7166">
        <ele>1748.78</ele>
        <time>2011-07-31T14:21:51.000Z</time>
      </trkpt>
      <trkpt lat="46.37976" lon="6.71683">
        <ele>1753.58</ele>
        <time>2011-07-31T14:21:54.000Z</time>
      </trkpt>
      <trkpt lat="46.37968" lon="6.71708">
        <ele>1756.95</ele>
        <time>2011-07-31T14:21:56.000Z</time>
      </trkpt>
      <trkpt lat="46.37977" lon="6.71741">
        <ele>1760.31</ele>
        <time>2011-07-31T14:21:59.000Z</time>
      </trkpt>
      <trkpt lat="46.37992" lon="6.7175">
        <ele>1763.2</ele>
        <time>2011-07-31T14:22:01.000Z</time>
      </trkpt>
      <trkpt lat="46.37999" lon="6.71749">
        <ele>1763.68</ele>
        <time>2011-07-31T14:22:02.000Z</time>
      </trkpt>
      <trkpt lat="46.38021" lon="6.71702">
        <ele>1766.08</ele>
        <time>2011-07-31T14:22:07.000Z</time>
      </trkpt>
      <trkpt lat="46.37998" lon="6.71661">
        <ele>1769.92</ele>
        <time>2011-07-31T14:22:11.000Z</time>
      </trkpt>
      <trkpt lat="46.37967" lon="6.71662">
        <ele>1775.69</ele>
        <time>2011-07-31T14:22:14.000Z</time>
      </trkpt>
      <trkpt lat="46.37943" lon="6.71706">
        <ele>1779.54</ele>
        <time>2011-07-31T14:22:18.000Z</time>
      </trkpt>
      <trkpt lat="46.37948" lon="6.71728">
        <ele>1782.9</ele>
        <time>2011-07-31T14:22:20.000Z</time>
      </trkpt>
      <trkpt lat="46.37962" lon="6.71739">
        <ele>1784.82</ele>
        <time>2011-07-31T14:22:22.000Z</time>
      </trkpt>
      <trkpt lat="46.37984" lon="6.71712">
        <ele>1786.27</ele>
        <time>2011-07-31T14:22:26.000Z</time>
      </trkpt>
      <trkpt lat="46.37978" lon="6.71679">
        <ele>1790.11</ele>
        <time>2011-07-31T14:22:29.000Z</time>
      </trkpt>
      <trkpt lat="46.37949" lon="6.71648">
        <ele>1793</ele>
        <time>2011-07-31T14:22:33.000Z</time>
      </trkpt>
      <trkpt lat="46.37907" lon="6.71654">
        <ele>1796.36</ele>
        <time>2011-07-31T14:22:37.000Z</time>
      </trkpt>
      <trkpt lat="46.379" lon="6.71663">
        <ele>1796.36</ele>
        <time>2011-07-31T14:22:38.000Z</time>
      </trkpt>
      <trkpt lat="46.37889" lon="6.71688">
        <ele>1797.32</ele>
        <time>2011-07-31T14:22:40.000Z</time>
      </trkpt>
      <trkpt lat="46.37899" lon="6.7173">
        <ele>1801.17</ele>
        <time>2011-07-31T14:22:44.000Z</time>
      </trkpt>
      <trkpt lat="46.37931" lon="6.71722">
        <ele>1802.61</ele>
        <time>2011-07-31T14:22:49.000Z</time>
      </trkpt>
      <trkpt lat="46.37941" lon="6.71706">
        <ele>1801.65</ele>
        <time>2011-07-31T14:22:51.000Z</time>
      </trkpt>
      <trkpt lat="46.3795" lon="6.71677">
        <ele>1803.57</ele>
        <time>2011-07-31T14:22:54.000Z</time>
      </trkpt>
      <trkpt lat="46.37956" lon="6.71627">
        <ele>1799.24</ele>
        <time>2011-07-31T14:22:59.000Z</time>
      </trkpt>
      <trkpt lat="46.37957" lon="6.71603">
        <ele>1794.44</ele>
        <time>2011-07-31T14:23:01.000Z</time>
      </trkpt>
      <trkpt lat="46.37953" lon="6.71565">
        <ele>1788.67</ele>
        <time>2011-07-31T14:23:04.000Z</time>
      </trkpt>
      <trkpt lat="46.37948" lon="6.71536">
        <ele>1784.82</ele>
        <time>2011-07-31T14:23:06.000Z</time>
      </trkpt>
      <trkpt lat="46.37932" lon="6.71496">
        <ele>1787.71</ele>
        <time>2011-07-31T14:23:09.000Z</time>
      </trkpt>
      <trkpt lat="46.37918" lon="6.71475">
        <ele>1792.52</ele>
        <time>2011-07-31T14:23:11.000Z</time>
      </trkpt>
      <trkpt lat="46.37911" lon="6.71453">
        <ele>1801.17</ele>
        <time>2011-07-31T14:23:13.000Z</time>
      </trkpt>
      <trkpt lat="46.37911" lon="6.71442">
        <ele>1804.53</ele>
        <time>2011-07-31T14:23:14.000Z</time>
      </trkpt>
      <trkpt lat="46.37932" lon="6.71436">
        <ele>1807.42</ele>
        <time>2011-07-31T14:23:17.000Z</time>
      </trkpt>
      <trkpt lat="46.37938" lon="6.71445">
        <ele>1810.78</ele>
        <time>2011-07-31T14:23:18.000Z</time>
      </trkpt>
      <trkpt lat="46.37939" lon="6.71472">
        <ele>1814.63</ele>
        <time>2011-07-31T14:23:20.000Z</time>
      </trkpt>
      <trkpt lat="46.37922" lon="6.71494">
        <ele>1817.99</ele>
        <time>2011-07-31T14:23:22.000Z</time>
      </trkpt>
      <trkpt lat="46.37894" lon="6.71481">
        <ele>1821.84</ele>
        <time>2011-07-31T14:23:25.000Z</time>
      </trkpt>
      <trkpt lat="46.37892" lon="6.71469">
        <ele>1821.84</ele>
        <time>2011-07-31T14:23:26.000Z</time>
      </trkpt>
      <trkpt lat="46.37899" lon="6.71449">
        <ele>1825.68</ele>
        <time>2011-07-31T14:23:28.000Z</time>
      </trkpt>
      <trkpt lat="46.37906" lon="6.71444">
        <ele>1830.01</ele>
        <time>2011-07-31T14:23:29.000Z</time>
      </trkpt>
      <trkpt lat="46.37918" lon="6.71447">
        <ele>1832.89</ele>
        <time>2011-07-31T14:23:31.000Z</time>
      </trkpt>
      <trkpt lat="46.37927" lon="6.71466">
        <ele>1837.22</ele>
        <time>2011-07-31T14:23:33.000Z</time>
      </trkpt>
      <trkpt lat="46.37925" lon="6.71508">
        <ele>1842.02</ele>
        <time>2011-07-31T14:23:36.000Z</time>
      </trkpt>
      <trkpt lat="46.3791" lon="6.71528">
        <ele>1846.83</ele>
        <time>2011-07-31T14:23:38.000Z</time>
      </trkpt>
      <trkpt lat="46.37891" lon="6.71536">
        <ele>1851.16</ele>
        <time>2011-07-31T14:23:40.000Z</time>
      </trkpt>
      <trkpt lat="46.37882" lon="6.71535">
        <ele>1851.16</ele>
        <time>2011-07-31T14:23:41.000Z</time>
      </trkpt>
      <trkpt lat="46.37862" lon="6.71525">
        <ele>1854.52</ele>
        <time>2011-07-31T14:23:43.000Z</time>
      </trkpt>
      <trkpt lat="46.37848" lon="6.71509">
        <ele>1857.89</ele>
        <time>2011-07-31T14:23:45.000Z</time>
      </trkpt>
      <trkpt lat="46.37849" lon="6.71479">
        <ele>1861.73</ele>
        <time>2011-07-31T14:23:48.000Z</time>
      </trkpt>
      <trkpt lat="46.37853" lon="6.71472">
        <ele>1862.21</ele>
        <time>2011-07-31T14:23:49.000Z</time>
      </trkpt>
      <trkpt lat="46.37879" lon="6.71484">
        <ele>1865.09</ele>
        <time>2011-07-31T14:23:53.000Z</time>
      </trkpt>
      <trkpt lat="46.37886" lon="6.71519">
        <ele>1868.94</ele>
        <time>2011-07-31T14:23:56.000Z</time>
      </trkpt>
      <trkpt lat="46.37882" lon="6.71542">
        <ele>1872.79</ele>
        <time>2011-07-31T14:23:58.000Z</time>
      </trkpt>
      <trkpt lat="46.37852" lon="6.71573">
        <ele>1876.15</ele>
        <time>2011-07-31T14:24:02.000Z</time>
      </trkpt>
      <trkpt lat="46.37842" lon="6.71576">
        <ele>1876.15</ele>
        <time>2011-07-31T14:24:03.000Z</time>
      </trkpt>
      <trkpt lat="46.37824" lon="6.71575">
        <ele>1877.59</ele>
        <time>2011-07-31T14:24:05.000Z</time>
      </trkpt>
      <trkpt lat="46.37794" lon="6.71534">
        <ele>1877.11</ele>
        <time>2011-07-31T14:24:10.000Z</time>
      </trkpt>
      <trkpt lat="46.37803" lon="6.71493">
        <ele>1880.48</ele>
        <time>2011-07-31T14:24:14.000Z</time>
      </trkpt>
      <trkpt lat="46.37814" lon="6.71475">
        <ele>1883.36</ele>
        <time>2011-07-31T14:24:17.000Z</time>
      </trkpt>
      <trkpt lat="46.37818" lon="6.71466">
        <ele>1887.21</ele>
        <time>2011-07-31T14:24:18.000Z</time>
      </trkpt>
      <trkpt lat="46.37847" lon="6.71462">
        <ele>1892.01</ele>
        <time>2011-07-31T14:24:23.000Z</time>
      </trkpt>
      <trkpt lat="46.37855" lon="6.71524">
        <ele>1894.42</ele>
        <time>2011-07-31T14:24:28.000Z</time>
      </trkpt>
      <trkpt lat="46.37841" lon="6.71545">
        <ele>1898.26</ele>
        <time>2011-07-31T14:24:30.000Z</time>
      </trkpt>
      <trkpt lat="46.37831" lon="6.71549">
        <ele>1898.26</ele>
        <time>2011-07-31T14:24:31.000Z</time>
      </trkpt>
      <trkpt lat="46.37802" lon="6.7152">
        <ele>1900.66</ele>
        <time>2011-07-31T14:24:35.000Z</time>
      </trkpt>
      <trkpt lat="46.37803" lon="6.7149">
        <ele>1904.51</ele>
        <time>2011-07-31T14:24:38.000Z</time>
      </trkpt>
      <trkpt lat="46.37819" lon="6.7148">
        <ele>1907.87</ele>
        <time>2011-07-31T14:24:41.000Z</time>
      </trkpt>
      <trkpt lat="46.37826" lon="6.71482">
        <ele>1907.87</ele>
        <time>2011-07-31T14:24:42.000Z</time>
      </trkpt>
      <trkpt lat="46.37852" lon="6.71528">
        <ele>1906.91</ele>
        <time>2011-07-31T14:24:47.000Z</time>
      </trkpt>
      <trkpt lat="46.37853" lon="6.71542">
        <ele>1907.87</ele>
        <time>2011-07-31T14:24:48.000Z</time>
      </trkpt>
      <trkpt lat="46.37855" lon="6.71578">
        <ele>1912.68</ele>
        <time>2011-07-31T14:24:51.000Z</time>
      </trkpt>
      <trkpt lat="46.37859" lon="6.71669">
        <ele>1916.53</ele>
        <time>2011-07-31T14:24:58.000Z</time>
      </trkpt>
      <trkpt lat="46.37862" lon="6.71719">
        <ele>1911.72</ele>
        <time>2011-07-31T14:25:02.000Z</time>
      </trkpt>
      <trkpt lat="46.37863" lon="6.71747">
        <ele>1908.83</ele>
        <time>2011-07-31T14:25:04.000Z</time>
      </trkpt>
      <trkpt lat="46.3786" lon="6.71791">
        <ele>1904.03</ele>
        <time>2011-07-31T14:25:07.000Z</time>
      </trkpt>
      <trkpt lat="46.37858" lon="6.71805">
        <ele>1899.7</ele>
        <time>2011-07-31T14:25:08.000Z</time>
      </trkpt>
      <trkpt lat="46.37849" lon="6.71847">
        <ele>1895.38</ele>
        <time>2011-07-31T14:25:11.000Z</time>
      </trkpt>
      <trkpt lat="46.37846" lon="6.71862">
        <ele>1890.57</ele>
        <time>2011-07-31T14:25:12.000Z</time>
      </trkpt>
      <trkpt lat="46.37841" lon="6.71878">
        <ele>1887.21</ele>
        <time>2011-07-31T14:25:13.000Z</time>
      </trkpt>
      <trkpt lat="46.37819" lon="6.71947">
        <ele>1882.4</ele>
        <time>2011-07-31T14:25:18.000Z</time>
      </trkpt>
      <trkpt lat="46.37815" lon="6.71963">
        <ele>1880</ele>
        <time>2011-07-31T14:25:19.000Z</time>
      </trkpt>
      <trkpt lat="46.37812" lon="6.72023">
        <ele>1874.71</ele>
        <time>2011-07-31T14:25:23.000Z</time>
      </trkpt>
      <trkpt lat="46.37817" lon="6.72069">
        <ele>1867.98</ele>
        <time>2011-07-31T14:25:26.000Z</time>
      </trkpt>
      <trkpt lat="46.37819" lon="6.72085">
        <ele>1865.58</ele>
        <time>2011-07-31T14:25:27.000Z</time>
      </trkpt>
      <trkpt lat="46.3783" lon="6.72127">
        <ele>1858.85</ele>
        <time>2011-07-31T14:25:30.000Z</time>
      </trkpt>
      <trkpt lat="46.37834" lon="6.72142">
        <ele>1855</ele>
        <time>2011-07-31T14:25:31.000Z</time>
      </trkpt>
      <trkpt lat="46.37839" lon="6.72157">
        <ele>1851.64</ele>
        <time>2011-07-31T14:25:32.000Z</time>
      </trkpt>
      <trkpt lat="46.37843" lon="6.72172">
        <ele>1847.79</ele>
        <time>2011-07-31T14:25:33.000Z</time>
      </trkpt>
      <trkpt lat="46.37852" lon="6.72201">
        <ele>1846.35</ele>
        <time>2011-07-31T14:25:35.000Z</time>
      </trkpt>
      <trkpt lat="46.37859" lon="6.7224">
        <ele>1841.06</ele>
        <time>2011-07-31T14:25:38.000Z</time>
      </trkpt>
      <trkpt lat="46.37862" lon="6.72254">
        <ele>1838.66</ele>
        <time>2011-07-31T14:25:39.000Z</time>
      </trkpt>
      <trkpt lat="46.37873" lon="6.72294">
        <ele>1835.29</ele>
        <time>2011-07-31T14:25:42.000Z</time>
      </trkpt>
      <trkpt lat="46.37878" lon="6.7232">
        <ele>1831.93</ele>
        <time>2011-07-31T14:25:44.000Z</time>
      </trkpt>
      <trkpt lat="46.37882" lon="6.72333">
        <ele>1830.97</ele>
        <time>2011-07-31T14:25:45.000Z</time>
      </trkpt>
      <trkpt lat="46.37896" lon="6.7237">
        <ele>1825.2</ele>
        <time>2011-07-31T14:25:48.000Z</time>
      </trkpt>
      <trkpt lat="46.37909" lon="6.72406">
        <ele>1821.84</ele>
        <time>2011-07-31T14:25:51.000Z</time>
      </trkpt>
      <trkpt lat="46.37924" lon="6.72439">
        <ele>1815.59</ele>
        <time>2011-07-31T14:25:54.000Z</time>
      </trkpt>
      <trkpt lat="46.37936" lon="6.72463">
        <ele>1810.3</ele>
        <time>2011-07-31T14:25:56.000Z</time>
      </trkpt>
      <trkpt lat="46.37945" lon="6.72487">
        <ele>1805.49</ele>
        <time>2011-07-31T14:25:58.000Z</time>
      </trkpt>
      <trkpt lat="46.37955" lon="6.72513">
        <ele>1801.17</ele>
        <time>2011-07-31T14:26:00.000Z</time>
      </trkpt>
      <trkpt lat="46.37965" lon="6.72538">
        <ele>1798.28</ele>
        <time>2011-07-31T14:26:02.000Z</time>
      </trkpt>
      <trkpt lat="46.37974" lon="6.72562">
        <ele>1796.84</ele>
        <time>2011-07-31T14:26:04.000Z</time>
      </trkpt>
      <trkpt lat="46.37982" lon="6.72585">
        <ele>1792.52</ele>
        <time>2011-07-31T14:26:06.000Z</time>
      </trkpt>
      <trkpt lat="46.37993" lon="6.72608">
        <ele>1786.27</ele>
        <time>2011-07-31T14:26:08.000Z</time>
      </trkpt>
      <trkpt lat="46.38005" lon="6.72631">
        <ele>1781.94</ele>
        <time>2011-07-31T14:26:10.000Z</time>
      </trkpt>
      <trkpt lat="46.38017" lon="6.72655">
        <ele>1775.69</ele>
        <time>2011-07-31T14:26:12.000Z</time>
      </trkpt>
      <trkpt lat="46.38022" lon="6.72669">
        <ele>1772.33</ele>
        <time>2011-07-31T14:26:13.000Z</time>
      </trkpt>
      <trkpt lat="46.38032" lon="6.72698">
        <ele>1766.56</ele>
        <time>2011-07-31T14:26:15.000Z</time>
      </trkpt>
      <trkpt lat="46.38044" lon="6.72736">
        <ele>1761.27</ele>
        <time>2011-07-31T14:26:18.000Z</time>
      </trkpt>
      <trkpt lat="46.38054" lon="6.72762">
        <ele>1754.06</ele>
        <time>2011-07-31T14:26:20.000Z</time>
      </trkpt>
      <trkpt lat="46.38059" lon="6.72777">
        <ele>1750.22</ele>
        <time>2011-07-31T14:26:21.000Z</time>
      </trkpt>
      <trkpt lat="46.38069" lon="6.72806">
        <ele>1744.93</ele>
        <time>2011-07-31T14:26:23.000Z</time>
      </trkpt>
      <trkpt lat="46.38078" lon="6.72833">
        <ele>1741.08</ele>
        <time>2011-07-31T14:26:25.000Z</time>
      </trkpt>
      <trkpt lat="46.38083" lon="6.72846">
        <ele>1738.2</ele>
        <time>2011-07-31T14:26:26.000Z</time>
      </trkpt>
      <trkpt lat="46.38088" lon="6.72859">
        <ele>1734.84</ele>
        <time>2011-07-31T14:26:27.000Z</time>
      </trkpt>
      <trkpt lat="46.38092" lon="6.72873">
        <ele>1731.47</ele>
        <time>2011-07-31T14:26:28.000Z</time>
      </trkpt>
      <trkpt lat="46.38102" lon="6.72902">
        <ele>1727.63</ele>
        <time>2011-07-31T14:26:30.000Z</time>
      </trkpt>
      <trkpt lat="46.38112" lon="6.72929">
        <ele>1723.3</ele>
        <time>2011-07-31T14:26:32.000Z</time>
      </trkpt>
      <trkpt lat="46.38124" lon="6.72954">
        <ele>1719.94</ele>
        <time>2011-07-31T14:26:34.000Z</time>
      </trkpt>
      <trkpt lat="46.38147" lon="6.73037">
        <ele>1715.61</ele>
        <time>2011-07-31T14:26:36.000Z</time>
      </trkpt>
      <trkpt lat="46.38147" lon="6.73037">
        <ele>1712.25</ele>
        <time>2011-07-31T14:26:38.000Z</time>
      </trkpt>
      <trkpt lat="46.38148" lon="6.7305">
        <ele>1708.88</ele>
        <time>2011-07-31T14:26:41.000Z</time>
      </trkpt>
      <trkpt lat="46.38153" lon="6.7308">
        <ele>1705.04</ele>
        <time>2011-07-31T14:26:43.000Z</time>
      </trkpt>
      <trkpt lat="46.38161" lon="6.73141">
        <ele>1701.19</ele>
        <time>2011-07-31T14:26:47.000Z</time>
      </trkpt>
      <trkpt lat="46.38173" lon="6.73218">
        <ele>1697.34</ele>
        <time>2011-07-31T14:26:52.000Z</time>
      </trkpt>
      <trkpt lat="46.38179" lon="6.73262">
        <ele>1693.02</ele>
        <time>2011-07-31T14:26:55.000Z</time>
      </trkpt>
      <trkpt lat="46.38182" lon="6.73294">
        <ele>1692.06</ele>
        <time>2011-07-31T14:26:57.000Z</time>
      </trkpt>
      <trkpt lat="46.38183" lon="6.73436">
        <ele>1692.06</ele>
        <time>2011-07-31T14:27:07.000Z</time>
      </trkpt>
      <trkpt lat="46.38183" lon="6.73451">
        <ele>1693.02</ele>
        <time>2011-07-31T14:27:08.000Z</time>
      </trkpt>
      <trkpt lat="46.38183" lon="6.73475">
        <ele>1698.79</ele>
        <time>2011-07-31T14:27:10.000Z</time>
      </trkpt>
      <trkpt lat="46.38183" lon="6.73482">
        <ele>1702.15</ele>
        <time>2011-07-31T14:27:11.000Z</time>
      </trkpt>
      <trkpt lat="46.38263" lon="6.73465">
        <ele>1701.19</ele>
        <time>2011-07-31T14:27:15.000Z</time>
      </trkpt>
      <trkpt lat="46.38237" lon="6.73426">
        <ele>1701.67</ele>
        <time>2011-07-31T14:27:19.000Z</time>
      </trkpt>
      <trkpt lat="46.38183" lon="6.7345">
        <ele>1703.59</ele>
        <time>2011-07-31T14:27:23.000Z</time>
      </trkpt>
      <trkpt lat="46.38183" lon="6.73501">
        <ele>1705.04</ele>
        <time>2011-07-31T14:27:27.000Z</time>
      </trkpt>
      <trkpt lat="46.38183" lon="6.73496">
        <ele>1703.59</ele>
        <time>2011-07-31T14:27:31.000Z</time>
      </trkpt>
      <trkpt lat="46.38183" lon="6.7344">
        <ele>1703.59</ele>
        <time>2011-07-31T14:27:36.000Z</time>
      </trkpt>
      <trkpt lat="46.38184" lon="6.73427">
        <ele>1702.15</ele>
        <time>2011-07-31T14:27:37.000Z</time>
      </trkpt>
      <trkpt lat="46.38185" lon="6.73371">
        <ele>1705.04</ele>
        <time>2011-07-31T14:27:42.000Z</time>
      </trkpt>
      <trkpt lat="46.38185" lon="6.73345">
        <ele>1709.36</ele>
        <time>2011-07-31T14:27:45.000Z</time>
      </trkpt>
      <trkpt lat="46.38185" lon="6.73341">
        <ele>1705.52</ele>
        <time>2011-07-31T14:27:49.000Z</time>
      </trkpt>
      <trkpt lat="46.38184" lon="6.7339">
        <ele>1705.04</ele>
        <time>2011-07-31T14:27:52.000Z</time>
      </trkpt>
      <trkpt lat="46.38184" lon="6.73422">
        <ele>1707.44</ele>
        <time>2011-07-31T14:27:54.000Z</time>
      </trkpt>
      <trkpt lat="46.38183" lon="6.73457">
        <ele>1709.36</ele>
        <time>2011-07-31T14:27:56.000Z</time>
      </trkpt>
      <trkpt lat="46.38183" lon="6.73514">
        <ele>1714.17</ele>
        <time>2011-07-31T14:28:00.000Z</time>
      </trkpt>
      <trkpt lat="46.38179" lon="6.73563">
        <ele>1711.28</ele>
        <time>2011-07-31T14:28:04.000Z</time>
      </trkpt>
      <trkpt lat="46.38229" lon="6.73628">
        <ele>1710.32</ele>
        <time>2011-07-31T14:28:08.000Z</time>
      </trkpt>
      <trkpt lat="46.38235" lon="6.73669">
        <ele>1711.28</ele>
        <time>2011-07-31T14:28:11.000Z</time>
      </trkpt>
      <trkpt lat="46.38246" lon="6.73716">
        <ele>1705.52</ele>
        <time>2011-07-31T14:28:15.000Z</time>
      </trkpt>
      <trkpt lat="46.38253" lon="6.73742">
        <ele>1703.11</ele>
        <time>2011-07-31T14:28:17.000Z</time>
      </trkpt>
      <trkpt lat="46.38263" lon="6.73792">
        <ele>1697.34</ele>
        <time>2011-07-31T14:28:21.000Z</time>
      </trkpt>
      <trkpt lat="46.38272" lon="6.73834">
        <ele>1693.02</ele>
        <time>2011-07-31T14:28:24.000Z</time>
      </trkpt>
      <trkpt lat="46.38275" lon="6.73848">
        <ele>1693.02</ele>
        <time>2011-07-31T14:28:25.000Z</time>
      </trkpt>
      <trkpt lat="46.38282" lon="6.73874">
        <ele>1689.17</ele>
        <time>2011-07-31T14:28:27.000Z</time>
      </trkpt>
      <trkpt lat="46.38288" lon="6.73904">
        <ele>1683.89</ele>
        <time>2011-07-31T14:28:29.000Z</time>
      </trkpt>
      <trkpt lat="46.38294" lon="6.73933">
        <ele>1682.44</ele>
        <time>2011-07-31T14:28:31.000Z</time>
      </trkpt>
      <trkpt lat="46.38306" lon="6.73989">
        <ele>1678.12</ele>
        <time>2011-07-31T14:28:36.000Z</time>
      </trkpt>
      <trkpt lat="46.38309" lon="6.74026">
        <ele>1675.72</ele>
        <time>2011-07-31T14:28:39.000Z</time>
      </trkpt>
      <trkpt lat="46.38307" lon="6.74074">
        <ele>1672.83</ele>
        <time>2011-07-31T14:28:43.000Z</time>
      </trkpt>
      <trkpt lat="46.38303" lon="6.74098">
        <ele>1668.51</ele>
        <time>2011-07-31T14:28:45.000Z</time>
      </trkpt>
      <trkpt lat="46.383" lon="6.74111">
        <ele>1666.58</ele>
        <time>2011-07-31T14:28:46.000Z</time>
      </trkpt>
      <trkpt lat="46.38285" lon="6.74144">
        <ele>1661.78</ele>
        <time>2011-07-31T14:28:49.000Z</time>
      </trkpt>
      <trkpt lat="46.38276" lon="6.74151">
        <ele>1658.41</ele>
        <time>2011-07-31T14:28:50.000Z</time>
      </trkpt>
      <trkpt lat="46.38255" lon="6.74161">
        <ele>1655.53</ele>
        <time>2011-07-31T14:28:52.000Z</time>
      </trkpt>
      <trkpt lat="46.38243" lon="6.74163">
        <ele>1655.05</ele>
        <time>2011-07-31T14:28:53.000Z</time>
      </trkpt>
      <trkpt lat="46.382" lon="6.74148">
        <ele>1653.6</ele>
        <time>2011-07-31T14:28:57.000Z</time>
      </trkpt>
      <trkpt lat="46.38182" lon="6.74132">
        <ele>1660.33</ele>
        <time>2011-07-31T14:28:59.000Z</time>
      </trkpt>
      <trkpt lat="46.38174" lon="6.74126">
        <ele>1666.1</ele>
        <time>2011-07-31T14:29:00.000Z</time>
      </trkpt>
      <trkpt lat="46.38167" lon="6.74122">
        <ele>1669.95</ele>
        <time>2011-07-31T14:29:01.000Z</time>
      </trkpt>
      <trkpt lat="46.38155" lon="6.74092">
        <ele>1672.35</ele>
        <time>2011-07-31T14:29:04.000Z</time>
      </trkpt>
      <trkpt lat="46.38173" lon="6.74067">
        <ele>1672.83</ele>
        <time>2011-07-31T14:29:08.000Z</time>
      </trkpt>
      <trkpt lat="46.38177" lon="6.74068">
        <ele>1672.35</ele>
        <time>2011-07-31T14:29:09.000Z</time>
      </trkpt>
      <trkpt lat="46.38188" lon="6.74089">
        <ele>1669.95</ele>
        <time>2011-07-31T14:29:12.000Z</time>
      </trkpt>
      <trkpt lat="46.38195" lon="6.74128">
        <ele>1678.6</ele>
        <time>2011-07-31T14:29:16.000Z</time>
      </trkpt>
      <trkpt lat="46.38187" lon="6.74148">
        <ele>1679.56</ele>
        <time>2011-07-31T14:29:18.000Z</time>
      </trkpt>
      <trkpt lat="46.38168" lon="6.74159">
        <ele>1682.93</ele>
        <time>2011-07-31T14:29:20.000Z</time>
      </trkpt>
      <trkpt lat="46.38142" lon="6.74148">
        <ele>1686.77</ele>
        <time>2011-07-31T14:29:23.000Z</time>
      </trkpt>
      <trkpt lat="46.38138" lon="6.74109">
        <ele>1686.77</ele>
        <time>2011-07-31T14:29:27.000Z</time>
      </trkpt>
      <trkpt lat="46.38155" lon="6.74106">
        <ele>1686.29</ele>
        <time>2011-07-31T14:29:29.000Z</time>
      </trkpt>
      <trkpt lat="46.38165" lon="6.74119">
        <ele>1692.54</ele>
        <time>2011-07-31T14:29:31.000Z</time>
      </trkpt>
      <trkpt lat="46.38166" lon="6.74126">
        <ele>1694.46</ele>
        <time>2011-07-31T14:29:32.000Z</time>
      </trkpt>
      <trkpt lat="46.38169" lon="6.74138">
        <ele>1696.38</ele>
        <time>2011-07-31T14:29:34.000Z</time>
      </trkpt>
      <trkpt lat="46.38172" lon="6.74156">
        <ele>1695.42</ele>
        <time>2011-07-31T14:29:36.000Z</time>
      </trkpt>
      <trkpt lat="46.38171" lon="6.742">
        <ele>1698.31</ele>
        <time>2011-07-31T14:29:39.000Z</time>
      </trkpt>
      <trkpt lat="46.38171" lon="6.74213">
        <ele>1701.19</ele>
        <time>2011-07-31T14:29:40.000Z</time>
      </trkpt>
      <trkpt lat="46.38205" lon="6.74244">
        <ele>1706</ele>
        <time>2011-07-31T14:29:45.000Z</time>
      </trkpt>
      <trkpt lat="46.38211" lon="6.7424">
        <ele>1708.88</ele>
        <time>2011-07-31T14:29:46.000Z</time>
      </trkpt>
      <trkpt lat="46.38214" lon="6.74212">
        <ele>1711.76</ele>
        <time>2011-07-31T14:29:49.000Z</time>
      </trkpt>
      <trkpt lat="46.38203" lon="6.7419">
        <ele>1710.32</ele>
        <time>2011-07-31T14:29:51.000Z</time>
      </trkpt>
      <trkpt lat="46.38174" lon="6.74184">
        <ele>1712.73</ele>
        <time>2011-07-31T14:29:54.000Z</time>
      </trkpt>
      <trkpt lat="46.38147" lon="6.74215">
        <ele>1715.61</ele>
        <time>2011-07-31T14:29:57.000Z</time>
      </trkpt>
      <trkpt lat="46.38144" lon="6.74243">
        <ele>1719.46</ele>
        <time>2011-07-31T14:29:59.000Z</time>
      </trkpt>
      <trkpt lat="46.38172" lon="6.74278">
        <ele>1722.82</ele>
        <time>2011-07-31T14:30:04.000Z</time>
      </trkpt>
      <trkpt lat="46.38187" lon="6.74271">
        <ele>1723.78</ele>
        <time>2011-07-31T14:30:06.000Z</time>
      </trkpt>
      <trkpt lat="46.38198" lon="6.74249">
        <ele>1728.11</ele>
        <time>2011-07-31T14:30:09.000Z</time>
      </trkpt>
      <trkpt lat="46.382" lon="6.74239">
        <ele>1728.11</ele>
        <time>2011-07-31T14:30:10.000Z</time>
      </trkpt>
      <trkpt lat="46.38196" lon="6.74217">
        <ele>1729.55</ele>
        <time>2011-07-31T14:30:12.000Z</time>
      </trkpt>
      <trkpt lat="46.38189" lon="6.74197">
        <ele>1735.32</ele>
        <time>2011-07-31T14:30:14.000Z</time>
      </trkpt>
      <trkpt lat="46.38144" lon="6.74183">
        <ele>1737.24</ele>
        <time>2011-07-31T14:30:19.000Z</time>
      </trkpt>
      <trkpt lat="46.38111" lon="6.74217">
        <ele>1739.64</ele>
        <time>2011-07-31T14:30:23.000Z</time>
      </trkpt>
      <trkpt lat="46.38109" lon="6.74231">
        <ele>1742.53</ele>
        <time>2011-07-31T14:30:24.000Z</time>
      </trkpt>
      <trkpt lat="46.38112" lon="6.74245">
        <ele>1742.53</ele>
        <time>2011-07-31T14:30:25.000Z</time>
      </trkpt>
      <trkpt lat="46.38146" lon="6.74255">
        <ele>1741.57</ele>
        <time>2011-07-31T14:30:29.000Z</time>
      </trkpt>
      <trkpt lat="46.38143" lon="6.74205">
        <ele>1742.05</ele>
        <time>2011-07-31T14:30:33.000Z</time>
      </trkpt>
      <trkpt lat="46.38097" lon="6.74201">
        <ele>1743.49</ele>
        <time>2011-07-31T14:30:38.000Z</time>
      </trkpt>
      <trkpt lat="46.3809" lon="6.74206">
        <ele>1746.37</ele>
        <time>2011-07-31T14:30:39.000Z</time>
      </trkpt>
      <trkpt lat="46.38057" lon="6.74243">
        <ele>1748.78</ele>
        <time>2011-07-31T14:30:44.000Z</time>
      </trkpt>
      <trkpt lat="46.38023" lon="6.74241">
        <ele>1743.49</ele>
        <time>2011-07-31T14:30:48.000Z</time>
      </trkpt>
      <trkpt lat="46.38031" lon="6.74181">
        <ele>1742.05</ele>
        <time>2011-07-31T14:30:54.000Z</time>
      </trkpt>
      <trkpt lat="46.38047" lon="6.74148">
        <ele>1741.08</ele>
        <time>2011-07-31T14:30:59.000Z</time>
      </trkpt>
      <trkpt lat="46.3806" lon="6.74131">
        <ele>1736.76</ele>
        <time>2011-07-31T14:31:02.000Z</time>
      </trkpt>
      <trkpt lat="46.38078" lon="6.74125">
        <ele>1733.39</ele>
        <time>2011-07-31T14:31:05.000Z</time>
      </trkpt>
      <trkpt lat="46.38102" lon="6.74137">
        <ele>1732.91</ele>
        <time>2011-07-31T14:31:08.000Z</time>
      </trkpt>
      <trkpt lat="46.38127" lon="6.74206">
        <ele>1740.12</ele>
        <time>2011-07-31T14:31:15.000Z</time>
      </trkpt>
      <trkpt lat="46.3813" lon="6.74245">
        <ele>1739.16</ele>
        <time>2011-07-31T14:31:18.000Z</time>
      </trkpt>
      <trkpt lat="46.38147" lon="6.74277">
        <ele>1743.97</ele>
        <time>2011-07-31T14:31:21.000Z</time>
      </trkpt>
      <trkpt lat="46.38155" lon="6.74276">
        <ele>1743.49</ele>
        <time>2011-07-31T14:31:22.000Z</time>
      </trkpt>
      <trkpt lat="46.38169" lon="6.74259">
        <ele>1745.89</ele>
        <time>2011-07-31T14:31:24.000Z</time>
      </trkpt>
      <trkpt lat="46.38171" lon="6.74241">
        <ele>1752.14</ele>
        <time>2011-07-31T14:31:26.000Z</time>
      </trkpt>
      <trkpt lat="46.38165" lon="6.74233">
        <ele>1752.14</ele>
        <time>2011-07-31T14:31:27.000Z</time>
      </trkpt>
      <trkpt lat="46.38145" lon="6.74224">
        <ele>1747.81</ele>
        <time>2011-07-31T14:31:29.000Z</time>
      </trkpt>
      <trkpt lat="46.38117" lon="6.74242">
        <ele>1751.18</ele>
        <time>2011-07-31T14:31:32.000Z</time>
      </trkpt>
      <trkpt lat="46.38113" lon="6.7427">
        <ele>1754.54</ele>
        <time>2011-07-31T14:31:34.000Z</time>
      </trkpt>
      <trkpt lat="46.38117" lon="6.74296">
        <ele>1755.99</ele>
        <time>2011-07-31T14:31:36.000Z</time>
      </trkpt>
      <trkpt lat="46.38146" lon="6.74313">
        <ele>1757.91</ele>
        <time>2011-07-31T14:31:40.000Z</time>
      </trkpt>
      <trkpt lat="46.3815" lon="6.74307">
        <ele>1757.91</ele>
        <time>2011-07-31T14:31:41.000Z</time>
      </trkpt>
      <trkpt lat="46.38145" lon="6.74256">
        <ele>1758.39</ele>
        <time>2011-07-31T14:31:46.000Z</time>
      </trkpt>
      <trkpt lat="46.38111" lon="6.74226">
        <ele>1762.23</ele>
        <time>2011-07-31T14:31:51.000Z</time>
      </trkpt>
      <trkpt lat="46.38078" lon="6.74265">
        <ele>1763.2</ele>
        <time>2011-07-31T14:31:56.000Z</time>
      </trkpt>
      <trkpt lat="46.38095" lon="6.74337">
        <ele>1765.12</ele>
        <time>2011-07-31T14:32:02.000Z</time>
      </trkpt>
      <trkpt lat="46.38126" lon="6.74332">
        <ele>1760.79</ele>
        <time>2011-07-31T14:32:07.000Z</time>
      </trkpt>
      <trkpt lat="46.38133" lon="6.74313">
        <ele>1757.43</ele>
        <time>2011-07-31T14:32:09.000Z</time>
      </trkpt>
      <trkpt lat="46.38135" lon="6.74301">
        <ele>1757.43</ele>
        <time>2011-07-31T14:32:10.000Z</time>
      </trkpt>
      <trkpt lat="46.38111" lon="6.7425">
        <ele>1757.91</ele>
        <time>2011-07-31T14:32:15.000Z</time>
      </trkpt>
      <trkpt lat="46.38104" lon="6.74244">
        <ele>1759.35</ele>
        <time>2011-07-31T14:32:16.000Z</time>
      </trkpt>
      <trkpt lat="46.38066" lon="6.7419">
        <ele>1761.75</ele>
        <time>2011-07-31T14:32:22.000Z</time>
      </trkpt>
      <trkpt lat="46.38058" lon="6.74168">
        <ele>1762.23</ele>
        <time>2011-07-31T14:32:24.000Z</time>
      </trkpt>
      <trkpt lat="46.38054" lon="6.74157">
        <ele>1763.68</ele>
        <time>2011-07-31T14:32:25.000Z</time>
      </trkpt>
      <trkpt lat="46.38052" lon="6.74138">
        <ele>1766.08</ele>
        <time>2011-07-31T14:32:27.000Z</time>
      </trkpt>
      <trkpt lat="46.38078" lon="6.74109">
        <ele>1764.16</ele>
        <time>2011-07-31T14:32:32.000Z</time>
      </trkpt>
      <trkpt lat="46.38074" lon="6.74153">
        <ele>1766.08</ele>
        <time>2011-07-31T14:32:36.000Z</time>
      </trkpt>
      <trkpt lat="46.38036" lon="6.74159">
        <ele>1766.56</ele>
        <time>2011-07-31T14:32:40.000Z</time>
      </trkpt>
      <trkpt lat="46.38021" lon="6.74129">
        <ele>1769.92</ele>
        <time>2011-07-31T14:32:43.000Z</time>
      </trkpt>
      <trkpt lat="46.3803" lon="6.74106">
        <ele>1771.37</ele>
        <time>2011-07-31T14:32:46.000Z</time>
      </trkpt>
      <trkpt lat="46.38052" lon="6.74123">
        <ele>1769.44</ele>
        <time>2011-07-31T14:32:50.000Z</time>
      </trkpt>
      <trkpt lat="46.38038" lon="6.74175">
        <ele>1771.85</ele>
        <time>2011-07-31T14:32:54.000Z</time>
      </trkpt>
      <trkpt lat="46.38017" lon="6.74199">
        <ele>1774.73</ele>
        <time>2011-07-31T14:32:57.000Z</time>
      </trkpt>
      <trkpt lat="46.37983" lon="6.7419">
        <ele>1772.33</ele>
        <time>2011-07-31T14:33:01.000Z</time>
      </trkpt>
      <trkpt lat="46.37982" lon="6.74156">
        <ele>1769.92</ele>
        <time>2011-07-31T14:33:04.000Z</time>
      </trkpt>
      <trkpt lat="46.38004" lon="6.7414">
        <ele>1774.73</ele>
        <time>2011-07-31T14:33:08.000Z</time>
      </trkpt>
      <trkpt lat="46.3801" lon="6.74145">
        <ele>1774.25</ele>
        <time>2011-07-31T14:33:09.000Z</time>
      </trkpt>
      <trkpt lat="46.38019" lon="6.74176">
        <ele>1776.17</ele>
        <time>2011-07-31T14:33:12.000Z</time>
      </trkpt>
      <trkpt lat="46.38018" lon="6.74216">
        <ele>1779.54</ele>
        <time>2011-07-31T14:33:15.000Z</time>
      </trkpt>
      <trkpt lat="46.38013" lon="6.74226">
        <ele>1779.54</ele>
        <time>2011-07-31T14:33:16.000Z</time>
      </trkpt>
      <trkpt lat="46.37983" lon="6.74225">
        <ele>1778.58</ele>
        <time>2011-07-31T14:33:20.000Z</time>
      </trkpt>
      <trkpt lat="46.37982" lon="6.74177">
        <ele>1778.1</ele>
        <time>2011-07-31T14:33:24.000Z</time>
      </trkpt>
      <trkpt lat="46.38005" lon="6.74145">
        <ele>1780.5</ele>
        <time>2011-07-31T14:33:28.000Z</time>
      </trkpt>
      <trkpt lat="46.38035" lon="6.7414">
        <ele>1776.17</ele>
        <time>2011-07-31T14:33:33.000Z</time>
      </trkpt>
      <trkpt lat="46.38065" lon="6.7413">
        <ele>1779.54</ele>
        <time>2011-07-31T14:33:37.000Z</time>
      </trkpt>
      <trkpt lat="46.38087" lon="6.74129">
        <ele>1781.94</ele>
        <time>2011-07-31T14:33:40.000Z</time>
      </trkpt>
      <trkpt lat="46.38095" lon="6.74129">
        <ele>1781.94</ele>
        <time>2011-07-31T14:33:41.000Z</time>
      </trkpt>
      <trkpt lat="46.38126" lon="6.74107">
        <ele>1775.21</ele>
        <time>2011-07-31T14:33:46.000Z</time>
      </trkpt>
      <trkpt lat="46.3813" lon="6.74096">
        <ele>1771.85</ele>
        <time>2011-07-31T14:33:47.000Z</time>
      </trkpt>
      <trkpt lat="46.38137" lon="6.7407">
        <ele>1770.41</ele>
        <time>2011-07-31T14:33:49.000Z</time>
      </trkpt>
      <trkpt lat="46.38152" lon="6.73993">
        <ele>1767.52</ele>
        <time>2011-07-31T14:33:55.000Z</time>
      </trkpt>
      <trkpt lat="46.38163" lon="6.7395">
        <ele>1763.2</ele>
        <time>2011-07-31T14:33:58.000Z</time>
      </trkpt>
      <trkpt lat="46.38166" lon="6.73913">
        <ele>1766.08</ele>
        <time>2011-07-31T14:34:01.000Z</time>
      </trkpt>
      <trkpt lat="46.38173" lon="6.73879">
        <ele>1761.75</ele>
        <time>2011-07-31T14:34:04.000Z</time>
      </trkpt>
      <trkpt lat="46.38176" lon="6.73865">
        <ele>1760.31</ele>
        <time>2011-07-31T14:34:05.000Z</time>
      </trkpt>
      <trkpt lat="46.38181" lon="6.73806">
        <ele>1756.95</ele>
        <time>2011-07-31T14:34:10.000Z</time>
      </trkpt>
      <trkpt lat="46.38186" lon="6.73769">
        <ele>1753.58</ele>
        <time>2011-07-31T14:34:13.000Z</time>
      </trkpt>
      <trkpt lat="46.38191" lon="6.73722">
        <ele>1750.22</ele>
        <time>2011-07-31T14:34:17.000Z</time>
      </trkpt>
      <trkpt lat="46.38145" lon="6.73694">
        <ele>1750.22</ele>
        <time>2011-07-31T14:34:18.000Z</time>
      </trkpt>
      <trkpt lat="46.38152" lon="6.73648">
        <ele>1745.89</ele>
        <time>2011-07-31T14:34:22.000Z</time>
      </trkpt>
      <trkpt lat="46.38157" lon="6.73624">
        <ele>1743.01</ele>
        <time>2011-07-31T14:34:24.000Z</time>
      </trkpt>
      <trkpt lat="46.38177" lon="6.73575">
        <ele>1745.89</ele>
        <time>2011-07-31T14:34:28.000Z</time>
      </trkpt>
      <trkpt lat="46.38178" lon="6.73566">
        <ele>1750.22</ele>
        <time>2011-07-31T14:34:29.000Z</time>
      </trkpt>
      <trkpt lat="46.3818" lon="6.73548">
        <ele>1751.66</ele>
        <time>2011-07-31T14:34:31.000Z</time>
      </trkpt>
      <trkpt lat="46.38182" lon="6.73525">
        <ele>1751.18</ele>
        <time>2011-07-31T14:34:33.000Z</time>
      </trkpt>
      <trkpt lat="46.38183" lon="6.73454">
        <ele>1748.29</ele>
        <time>2011-07-31T14:34:40.000Z</time>
      </trkpt>
      <trkpt lat="46.38183" lon="6.73436">
        <ele>1745.89</ele>
        <time>2011-07-31T14:34:42.000Z</time>
      </trkpt>
      <trkpt lat="46.38184" lon="6.73406">
        <ele>1740.12</ele>
        <time>2011-07-31T14:34:45.000Z</time>
      </trkpt>
      <trkpt lat="46.38184" lon="6.73396">
        <ele>1740.12</ele>
        <time>2011-07-31T14:34:46.000Z</time>
      </trkpt>
      <trkpt lat="46.38185" lon="6.73352">
        <ele>1736.28</ele>
        <time>2011-07-31T14:34:50.000Z</time>
      </trkpt>
      <trkpt lat="46.38184" lon="6.73317">
        <ele>1733.88</ele>
        <time>2011-07-31T14:34:53.000Z</time>
      </trkpt>
      <trkpt lat="46.38182" lon="6.73296">
        <ele>1731.47</ele>
        <time>2011-07-31T14:34:55.000Z</time>
      </trkpt>
      <trkpt lat="46.3818" lon="6.73272">
        <ele>1726.67</ele>
        <time>2011-07-31T14:34:57.000Z</time>
      </trkpt>
      <trkpt lat="46.38173" lon="6.73223">
        <ele>1730.51</ele>
        <time>2011-07-31T14:35:01.000Z</time>
      </trkpt>
      <trkpt lat="46.38167" lon="6.73177">
        <ele>1728.11</ele>
        <time>2011-07-31T14:35:05.000Z</time>
      </trkpt>
      <trkpt lat="46.38159" lon="6.73123">
        <ele>1733.88</ele>
        <time>2011-07-31T14:35:09.000Z</time>
      </trkpt>
      <trkpt lat="46.38156" lon="6.731">
        <ele>1735.8</ele>
        <time>2011-07-31T14:35:11.000Z</time>
      </trkpt>
      <trkpt lat="46.38156" lon="6.73103">
        <ele>1734.36</ele>
        <time>2011-07-31T14:35:15.000Z</time>
      </trkpt>
      <trkpt lat="46.38163" lon="6.73148">
        <ele>1734.84</ele>
        <time>2011-07-31T14:35:19.000Z</time>
      </trkpt>
      <trkpt lat="46.38172" lon="6.73158">
        <ele>1736.76</ele>
        <time>2011-07-31T14:35:21.000Z</time>
      </trkpt>
      <trkpt lat="46.3816" lon="6.73129">
        <ele>1739.64</ele>
        <time>2011-07-31T14:35:25.000Z</time>
      </trkpt>
      <trkpt lat="46.38152" lon="6.73071">
        <ele>1739.16</ele>
        <time>2011-07-31T14:35:30.000Z</time>
      </trkpt>
      <trkpt lat="46.38134" lon="6.73073">
        <ele>1738.68</ele>
        <time>2011-07-31T14:35:32.000Z</time>
      </trkpt>
      <trkpt lat="46.38157" lon="6.73109">
        <ele>1738.68</ele>
        <time>2011-07-31T14:35:37.000Z</time>
      </trkpt>
      <trkpt lat="46.38163" lon="6.73148">
        <ele>1736.76</ele>
        <time>2011-07-31T14:35:40.000Z</time>
      </trkpt>
      <trkpt lat="46.38166" lon="6.73172">
        <ele>1740.6</ele>
        <time>2011-07-31T14:35:42.000Z</time>
      </trkpt>
      <trkpt lat="46.38169" lon="6.73194">
        <ele>1745.89</ele>
        <time>2011-07-31T14:35:44.000Z</time>
      </trkpt>
      <trkpt lat="46.38173" lon="6.73218">
        <ele>1749.26</ele>
        <time>2011-07-31T14:35:46.000Z</time>
      </trkpt>
      <trkpt lat="46.38174" lon="6.73229">
        <ele>1749.26</ele>
        <time>2011-07-31T14:35:47.000Z</time>
      </trkpt>
      <trkpt lat="46.38174" lon="6.73226">
        <ele>1747.81</ele>
        <time>2011-07-31T14:35:51.000Z</time>
      </trkpt>
      <trkpt lat="46.38166" lon="6.73174">
        <ele>1747.81</ele>
        <time>2011-07-31T14:35:55.000Z</time>
      </trkpt>
      <trkpt lat="46.38116" lon="6.73186">
        <ele>1752.14</ele>
        <time>2011-07-31T14:35:59.000Z</time>
      </trkpt>
      <trkpt lat="46.38104" lon="6.73225">
        <ele>1755.02</ele>
        <time>2011-07-31T14:36:02.000Z</time>
      </trkpt>
      <trkpt lat="46.38109" lon="6.73262">
        <ele>1759.35</ele>
        <time>2011-07-31T14:36:05.000Z</time>
      </trkpt>
      <trkpt lat="46.38116" lon="6.73279">
        <ele>1760.31</ele>
        <time>2011-07-31T14:36:07.000Z</time>
      </trkpt>
      <trkpt lat="46.3818" lon="6.73274">
        <ele>1758.87</ele>
        <time>2011-07-31T14:36:11.000Z</time>
      </trkpt>
      <trkpt lat="46.38173" lon="6.73225">
        <ele>1760.31</ele>
        <time>2011-07-31T14:36:16.000Z</time>
      </trkpt>
      <trkpt lat="46.38114" lon="6.732">
        <ele>1763.68</ele>
        <time>2011-07-31T14:36:20.000Z</time>
      </trkpt>
      <trkpt lat="46.38082" lon="6.73218">
        <ele>1767.04</ele>
        <time>2011-07-31T14:36:23.000Z</time>
      </trkpt>
      <trkpt lat="46.38069" lon="6.73256">
        <ele>1770.89</ele>
        <time>2011-07-31T14:36:26.000Z</time>
      </trkpt>
      <trkpt lat="46.38069" lon="6.73267">
        <ele>1771.37</ele>
        <time>2011-07-31T14:36:27.000Z</time>
      </trkpt>
      <trkpt lat="46.38088" lon="6.733">
        <ele>1770.41</ele>
        <time>2011-07-31T14:36:31.000Z</time>
      </trkpt>
      <trkpt lat="46.38104" lon="6.73315">
        <ele>1771.37</ele>
        <time>2011-07-31T14:36:34.000Z</time>
      </trkpt>
      <trkpt lat="46.38116" lon="6.73322">
        <ele>1772.33</ele>
        <time>2011-07-31T14:36:36.000Z</time>
      </trkpt>
      <trkpt lat="46.38181" lon="6.73291">
        <ele>1770.41</ele>
        <time>2011-07-31T14:36:42.000Z</time>
      </trkpt>
      <trkpt lat="46.38174" lon="6.73231">
        <ele>1768</ele>
        <time>2011-07-31T14:36:47.000Z</time>
      </trkpt>
      <trkpt lat="46.3817" lon="6.73199">
        <ele>1775.69</ele>
        <time>2011-07-31T14:36:50.000Z</time>
      </trkpt>
      <trkpt lat="46.38145" lon="6.73199">
        <ele>1774.73</ele>
        <time>2011-07-31T14:36:52.000Z</time>
      </trkpt>
      <trkpt lat="46.38173" lon="6.73222">
        <ele>1773.77</ele>
        <time>2011-07-31T14:36:56.000Z</time>
      </trkpt>
      <trkpt lat="46.38178" lon="6.73259">
        <ele>1774.73</ele>
        <time>2011-07-31T14:36:59.000Z</time>
      </trkpt>
      <trkpt lat="46.38116" lon="6.73283">
        <ele>1777.13</ele>
        <time>2011-07-31T14:37:03.000Z</time>
      </trkpt>
      <trkpt lat="46.38101" lon="6.73268">
        <ele>1780.5</ele>
        <time>2011-07-31T14:37:05.000Z</time>
      </trkpt>
      <trkpt lat="46.38098" lon="6.73259">
        <ele>1780.5</ele>
        <time>2011-07-31T14:37:06.000Z</time>
      </trkpt>
      <trkpt lat="46.38116" lon="6.73231">
        <ele>1779.54</ele>
        <time>2011-07-31T14:37:11.000Z</time>
      </trkpt>
      <trkpt lat="46.38179" lon="6.73267">
        <ele>1781.46</ele>
        <time>2011-07-31T14:37:17.000Z</time>
      </trkpt>
      <trkpt lat="46.38184" lon="6.73317">
        <ele>1781.94</ele>
        <time>2011-07-31T14:37:21.000Z</time>
      </trkpt>
      <trkpt lat="46.38088" lon="6.73322">
        <ele>1782.9</ele>
        <time>2011-07-31T14:37:25.000Z</time>
      </trkpt>
      <trkpt lat="46.38079" lon="6.73292">
        <ele>1784.82</ele>
        <time>2011-07-31T14:37:28.000Z</time>
      </trkpt>
      <trkpt lat="46.38092" lon="6.73258">
        <ele>1780.98</ele>
        <time>2011-07-31T14:37:32.000Z</time>
      </trkpt>
      <trkpt lat="46.38099" lon="6.73258">
        <ele>1781.94</ele>
        <time>2011-07-31T14:37:33.000Z</time>
      </trkpt>
      <trkpt lat="46.38111" lon="6.73265">
        <ele>1783.38</ele>
        <time>2011-07-31T14:37:35.000Z</time>
      </trkpt>
      <trkpt lat="46.38184" lon="6.73321">
        <ele>1783.86</ele>
        <time>2011-07-31T14:37:43.000Z</time>
      </trkpt>
      <trkpt lat="46.38185" lon="6.73353">
        <ele>1780.5</ele>
        <time>2011-07-31T14:37:45.000Z</time>
      </trkpt>
      <trkpt lat="46.38185" lon="6.73367">
        <ele>1779.54</ele>
        <time>2011-07-31T14:37:46.000Z</time>
      </trkpt>
      <trkpt lat="46.38184" lon="6.73395">
        <ele>1778.58</ele>
        <time>2011-07-31T14:37:48.000Z</time>
      </trkpt>
      <trkpt lat="46.38183" lon="6.73445">
        <ele>1774.73</ele>
        <time>2011-07-31T14:37:52.000Z</time>
      </trkpt>
      <trkpt lat="46.38155" lon="6.73459">
        <ele>1770.41</ele>
        <time>2011-07-31T14:37:54.000Z</time>
      </trkpt>
      <trkpt lat="46.38183" lon="6.73452">
        <ele>1766.56</ele>
        <time>2011-07-31T14:37:56.000Z</time>
      </trkpt>
      <trkpt lat="46.38183" lon="6.73434">
        <ele>1762.71</ele>
        <time>2011-07-31T14:37:58.000Z</time>
      </trkpt>
      <trkpt lat="46.38184" lon="6.73423">
        <ele>1758.87</ele>
        <time>2011-07-31T14:37:59.000Z</time>
      </trkpt>
      <trkpt lat="46.38184" lon="6.73414">
        <ele>1759.35</ele>
        <time>2011-07-31T14:38:00.000Z</time>
      </trkpt>
      <trkpt lat="46.38184" lon="6.73396">
        <ele>1757.43</ele>
        <time>2011-07-31T14:38:02.000Z</time>
      </trkpt>
      <trkpt lat="46.38184" lon="6.73377">
        <ele>1756.47</ele>
        <time>2011-07-31T14:38:04.000Z</time>
      </trkpt>
      <trkpt lat="46.38185" lon="6.73335">
        <ele>1762.71</ele>
        <time>2011-07-31T14:38:08.000Z</time>
      </trkpt>
      <trkpt lat="46.38184" lon="6.73315">
        <ele>1767.04</ele>
        <time>2011-07-31T14:38:11.000Z</time>
      </trkpt>
      <trkpt lat="46.38182" lon="6.73303">
        <ele>1763.2</ele>
        <time>2011-07-31T14:38:13.000Z</time>
      </trkpt>
      <trkpt lat="46.38184" lon="6.73319">
        <ele>1759.35</ele>
        <time>2011-07-31T14:38:17.000Z</time>
      </trkpt>
      <trkpt lat="46.38185" lon="6.73356">
        <ele>1757.43</ele>
        <time>2011-07-31T14:38:20.000Z</time>
      </trkpt>
      <trkpt lat="46.38182" lon="6.73389">
        <ele>1758.87</ele>
        <time>2011-07-31T14:38:24.000Z</time>
      </trkpt>
      <trkpt lat="46.38185" lon="6.73352">
        <ele>1758.87</ele>
        <time>2011-07-31T14:38:29.000Z</time>
      </trkpt>
      <trkpt lat="46.38156" lon="6.73311">
        <ele>1754.06</ele>
        <time>2011-07-31T14:38:34.000Z</time>
      </trkpt>
      <trkpt lat="46.38185" lon="6.7333">
        <ele>1750.22</ele>
        <time>2011-07-31T14:38:38.000Z</time>
      </trkpt>
      <trkpt lat="46.38185" lon="6.73343">
        <ele>1746.85</ele>
        <time>2011-07-31T14:38:39.000Z</time>
      </trkpt>
      <trkpt lat="46.38184" lon="6.73374">
        <ele>1745.41</ele>
        <time>2011-07-31T14:38:41.000Z</time>
      </trkpt>
      <trkpt lat="46.38184" lon="6.73401">
        <ele>1747.33</ele>
        <time>2011-07-31T14:38:43.000Z</time>
      </trkpt>
      <trkpt lat="46.38183" lon="6.73467">
        <ele>1745.89</ele>
        <time>2011-07-31T14:38:48.000Z</time>
      </trkpt>
      <trkpt lat="46.38188" lon="6.73474">
        <ele>1744.93</ele>
        <time>2011-07-31T14:38:50.000Z</time>
      </trkpt>
      <trkpt lat="46.38183" lon="6.73466">
        <ele>1746.37</ele>
        <time>2011-07-31T14:38:52.000Z</time>
      </trkpt>
      <trkpt lat="46.38183" lon="6.73438">
        <ele>1745.41</ele>
        <time>2011-07-31T14:38:55.000Z</time>
      </trkpt>
      <trkpt lat="46.38184" lon="6.73418">
        <ele>1745.41</ele>
        <time>2011-07-31T14:38:57.000Z</time>
      </trkpt>
      <trkpt lat="46.38184" lon="6.73384">
        <ele>1743.49</ele>
        <time>2011-07-31T14:39:00.000Z</time>
      </trkpt>
      <trkpt lat="46.38184" lon="6.73374">
        <ele>1744.45</ele>
        <time>2011-07-31T14:39:01.000Z</time>
      </trkpt>
      <trkpt lat="46.38185" lon="6.73358">
        <ele>1746.37</ele>
        <time>2011-07-31T14:39:03.000Z</time>
      </trkpt>
      <trkpt lat="46.38185" lon="6.7335">
        <ele>1743.49</ele>
        <time>2011-07-31T14:39:04.000Z</time>
      </trkpt>
      <trkpt lat="46.38184" lon="6.73315">
        <ele>1738.68</ele>
        <time>2011-07-31T14:39:07.000Z</time>
      </trkpt>
      <trkpt lat="46.38179" lon="6.73267">
        <ele>1732.91</ele>
        <time>2011-07-31T14:39:12.000Z</time>
      </trkpt>
      <trkpt lat="46.38176" lon="6.73244">
        <ele>1730.03</ele>
        <time>2011-07-31T14:39:14.000Z</time>
      </trkpt>
      <trkpt lat="46.38186" lon="6.7322">
        <ele>1725.22</ele>
        <time>2011-07-31T14:39:17.000Z</time>
      </trkpt>
      <trkpt lat="46.382" lon="6.73215">
        <ele>1723.3</ele>
        <time>2011-07-31T14:39:19.000Z</time>
      </trkpt>
      <trkpt lat="46.38176" lon="6.73242">
        <ele>1724.74</ele>
        <time>2011-07-31T14:39:22.000Z</time>
      </trkpt>
      <trkpt lat="46.38179" lon="6.73261">
        <ele>1723.78</ele>
        <time>2011-07-31T14:39:24.000Z</time>
      </trkpt>
      <trkpt lat="46.3825" lon="6.73285">
        <ele>1719.94</ele>
        <time>2011-07-31T14:39:27.000Z</time>
      </trkpt>
      <trkpt lat="46.38254" lon="6.73298">
        <ele>1725.22</ele>
        <time>2011-07-31T14:39:28.000Z</time>
      </trkpt>
      <trkpt lat="46.38271" lon="6.73335">
        <ele>1733.88</ele>
        <time>2011-07-31T14:39:32.000Z</time>
      </trkpt>
      <trkpt lat="46.38279" lon="6.73341">
        <ele>1730.99</ele>
        <time>2011-07-31T14:39:33.000Z</time>
      </trkpt>
      <trkpt lat="46.38301" lon="6.73335">
        <ele>1727.63</ele>
        <time>2011-07-31T14:39:36.000Z</time>
      </trkpt>
      <trkpt lat="46.38304" lon="6.73314">
        <ele>1723.78</ele>
        <time>2011-07-31T14:39:38.000Z</time>
      </trkpt>
      <trkpt lat="46.38279" lon="6.73294">
        <ele>1718.01</ele>
        <time>2011-07-31T14:39:41.000Z</time>
      </trkpt>
      <trkpt lat="46.38268" lon="6.73301">
        <ele>1711.76</ele>
        <time>2011-07-31T14:39:42.000Z</time>
      </trkpt>
      <trkpt lat="46.38258" lon="6.73312">
        <ele>1711.76</ele>
        <time>2011-07-31T14:39:43.000Z</time>
      </trkpt>
      <trkpt lat="46.38243" lon="6.7335">
        <ele>1716.57</ele>
        <time>2011-07-31T14:39:46.000Z</time>
      </trkpt>
      <trkpt lat="46.38241" lon="6.73363">
        <ele>1717.05</ele>
        <time>2011-07-31T14:39:47.000Z</time>
      </trkpt>
      <trkpt lat="46.38242" lon="6.73391">
        <ele>1715.13</ele>
        <time>2011-07-31T14:39:49.000Z</time>
      </trkpt>
      <trkpt lat="46.38258" lon="6.73426">
        <ele>1710.8</ele>
        <time>2011-07-31T14:39:52.000Z</time>
      </trkpt>
      <trkpt lat="46.38273" lon="6.7344">
        <ele>1710.32</ele>
        <time>2011-07-31T14:39:54.000Z</time>
      </trkpt>
      <trkpt lat="46.38281" lon="6.73445">
        <ele>1710.8</ele>
        <time>2011-07-31T14:39:55.000Z</time>
      </trkpt>
      <trkpt lat="46.38301" lon="6.73455">
        <ele>1708.88</ele>
        <time>2011-07-31T14:39:58.000Z</time>
      </trkpt>
      <trkpt lat="46.38325" lon="6.73461">
        <ele>1705.04</ele>
        <time>2011-07-31T14:40:01.000Z</time>
      </trkpt>
      <trkpt lat="46.38348" lon="6.73466">
        <ele>1702.63</ele>
        <time>2011-07-31T14:40:04.000Z</time>
      </trkpt>
      <trkpt lat="46.38392" lon="6.73465">
        <ele>1702.63</ele>
        <time>2011-07-31T14:40:10.000Z</time>
      </trkpt>
      <trkpt lat="46.3842" lon="6.73471">
        <ele>1702.63</ele>
        <time>2011-07-31T14:40:14.000Z</time>
      </trkpt>
      <trkpt lat="46.38449" lon="6.73466">
        <ele>1699.75</ele>
        <time>2011-07-31T14:40:18.000Z</time>
      </trkpt>
      <trkpt lat="46.38463" lon="6.73459">
        <ele>1697.83</ele>
        <time>2011-07-31T14:40:20.000Z</time>
      </trkpt>
      <trkpt lat="46.38509" lon="6.73459">
        <ele>1695.9</ele>
        <time>2011-07-31T14:40:26.000Z</time>
      </trkpt>
      <trkpt lat="46.38552" lon="6.73511">
        <ele>1698.31</ele>
        <time>2011-07-31T14:40:33.000Z</time>
      </trkpt>
      <trkpt lat="46.38557" lon="6.73534">
        <ele>1699.75</ele>
        <time>2011-07-31T14:40:35.000Z</time>
      </trkpt>
      <trkpt lat="46.38536" lon="6.73598">
        <ele>1697.34</ele>
        <time>2011-07-31T14:40:41.000Z</time>
      </trkpt>
      <trkpt lat="46.38508" lon="6.73596">
        <ele>1693.02</ele>
        <time>2011-07-31T14:40:44.000Z</time>
      </trkpt>
      <trkpt lat="46.3847" lon="6.73538">
        <ele>1688.21</ele>
        <time>2011-07-31T14:40:50.000Z</time>
      </trkpt>
      <trkpt lat="46.38467" lon="6.73509">
        <ele>1686.77</ele>
        <time>2011-07-31T14:40:52.000Z</time>
      </trkpt>
      <trkpt lat="46.38465" lon="6.73483">
        <ele>1687.25</ele>
        <time>2011-07-31T14:40:54.000Z</time>
      </trkpt>
      <trkpt lat="46.38453" lon="6.73435">
        <ele>1686.29</ele>
        <time>2011-07-31T14:40:58.000Z</time>
      </trkpt>
      <trkpt lat="46.38441" lon="6.73385">
        <ele>1683.89</ele>
        <time>2011-07-31T14:41:02.000Z</time>
      </trkpt>
      <trkpt lat="46.38441" lon="6.73373">
        <ele>1682.44</ele>
        <time>2011-07-31T14:41:03.000Z</time>
      </trkpt>
      <trkpt lat="46.38441" lon="6.73322">
        <ele>1683.89</ele>
        <time>2011-07-31T14:41:07.000Z</time>
      </trkpt>
      <trkpt lat="46.38453" lon="6.73277">
        <ele>1690.62</ele>
        <time>2011-07-31T14:41:11.000Z</time>
      </trkpt>
      <trkpt lat="46.38478" lon="6.73275">
        <ele>1693.98</ele>
        <time>2011-07-31T14:41:15.000Z</time>
      </trkpt>
      <trkpt lat="46.38486" lon="6.73308">
        <ele>1698.31</ele>
        <time>2011-07-31T14:41:18.000Z</time>
      </trkpt>
      <trkpt lat="46.38473" lon="6.73339">
        <ele>1701.67</ele>
        <time>2011-07-31T14:41:21.000Z</time>
      </trkpt>
      <trkpt lat="46.38432" lon="6.73334">
        <ele>1703.59</ele>
        <time>2011-07-31T14:41:26.000Z</time>
      </trkpt>
      <trkpt lat="46.38413" lon="6.73285">
        <ele>1703.59</ele>
        <time>2011-07-31T14:41:30.000Z</time>
      </trkpt>
      <trkpt lat="46.38403" lon="6.73248">
        <ele>1709.36</ele>
        <time>2011-07-31T14:41:33.000Z</time>
      </trkpt>
      <trkpt lat="46.384" lon="6.73237">
        <ele>1711.76</ele>
        <time>2011-07-31T14:41:34.000Z</time>
      </trkpt>
      <trkpt lat="46.38409" lon="6.7318">
        <ele>1716.57</ele>
        <time>2011-07-31T14:41:39.000Z</time>
      </trkpt>
      <trkpt lat="46.38423" lon="6.73174">
        <ele>1718.01</ele>
        <time>2011-07-31T14:41:41.000Z</time>
      </trkpt>
      <trkpt lat="46.38443" lon="6.73207">
        <ele>1718.97</ele>
        <time>2011-07-31T14:41:45.000Z</time>
      </trkpt>
      <trkpt lat="46.3843" lon="6.73243">
        <ele>1722.34</ele>
        <time>2011-07-31T14:41:48.000Z</time>
      </trkpt>
      <trkpt lat="46.38411" lon="6.73257">
        <ele>1725.22</ele>
        <time>2011-07-31T14:41:50.000Z</time>
      </trkpt>
      <trkpt lat="46.38381" lon="6.73254">
        <ele>1728.59</ele>
        <time>2011-07-31T14:41:53.000Z</time>
      </trkpt>
      <trkpt lat="46.3836" lon="6.73215">
        <ele>1732.91</ele>
        <time>2011-07-31T14:41:57.000Z</time>
      </trkpt>
      <trkpt lat="46.3836" lon="6.73204">
        <ele>1732.43</ele>
        <time>2011-07-31T14:41:58.000Z</time>
      </trkpt>
      <trkpt lat="46.38372" lon="6.73175">
        <ele>1734.84</ele>
        <time>2011-07-31T14:42:01.000Z</time>
      </trkpt>
      <trkpt lat="46.38399" lon="6.73172">
        <ele>1737.72</ele>
        <time>2011-07-31T14:42:05.000Z</time>
      </trkpt>
      <trkpt lat="46.38409" lon="6.73205">
        <ele>1739.64</ele>
        <time>2011-07-31T14:42:08.000Z</time>
      </trkpt>
      <trkpt lat="46.38398" lon="6.73244">
        <ele>1744.45</ele>
        <time>2011-07-31T14:42:11.000Z</time>
      </trkpt>
      <trkpt lat="46.38383" lon="6.73258">
        <ele>1748.78</ele>
        <time>2011-07-31T14:42:13.000Z</time>
      </trkpt>
      <trkpt lat="46.38355" lon="6.73262">
        <ele>1753.58</ele>
        <time>2011-07-31T14:42:16.000Z</time>
      </trkpt>
      <trkpt lat="46.38346" lon="6.73258">
        <ele>1753.58</ele>
        <time>2011-07-31T14:42:17.000Z</time>
      </trkpt>
      <trkpt lat="46.38328" lon="6.73203">
        <ele>1755.99</ele>
        <time>2011-07-31T14:42:22.000Z</time>
      </trkpt>
      <trkpt lat="46.38338" lon="6.73173">
        <ele>1759.83</ele>
        <time>2011-07-31T14:42:25.000Z</time>
      </trkpt>
      <trkpt lat="46.38351" lon="6.73167">
        <ele>1763.68</ele>
        <time>2011-07-31T14:42:27.000Z</time>
      </trkpt>
      <trkpt lat="46.38366" lon="6.73186">
        <ele>1767.52</ele>
        <time>2011-07-31T14:42:30.000Z</time>
      </trkpt>
      <trkpt lat="46.38361" lon="6.73221">
        <ele>1770.89</ele>
        <time>2011-07-31T14:42:33.000Z</time>
      </trkpt>
      <trkpt lat="46.38335" lon="6.73242">
        <ele>1774.73</ele>
        <time>2011-07-31T14:42:36.000Z</time>
      </trkpt>
      <trkpt lat="46.38303" lon="6.73215">
        <ele>1779.06</ele>
        <time>2011-07-31T14:42:40.000Z</time>
      </trkpt>
      <trkpt lat="46.38296" lon="6.73175">
        <ele>1782.42</ele>
        <time>2011-07-31T14:42:43.000Z</time>
      </trkpt>
      <trkpt lat="46.383" lon="6.73137">
        <ele>1786.27</ele>
        <time>2011-07-31T14:42:46.000Z</time>
      </trkpt>
      <trkpt lat="46.38305" lon="6.73127">
        <ele>1787.23</ele>
        <time>2011-07-31T14:42:47.000Z</time>
      </trkpt>
      <trkpt lat="46.38319" lon="6.731">
        <ele>1789.63</ele>
        <time>2011-07-31T14:42:50.000Z</time>
      </trkpt>
      <trkpt lat="46.38349" lon="6.73107">
        <ele>1788.19</ele>
        <time>2011-07-31T14:42:55.000Z</time>
      </trkpt>
      <trkpt lat="46.38334" lon="6.73163">
        <ele>1791.55</ele>
        <time>2011-07-31T14:43:00.000Z</time>
      </trkpt>
      <trkpt lat="46.38304" lon="6.73171">
        <ele>1795.4</ele>
        <time>2011-07-31T14:43:03.000Z</time>
      </trkpt>
      <trkpt lat="46.38287" lon="6.73157">
        <ele>1799.73</ele>
        <time>2011-07-31T14:43:05.000Z</time>
      </trkpt>
      <trkpt lat="46.38272" lon="6.73107">
        <ele>1803.09</ele>
        <time>2011-07-31T14:43:09.000Z</time>
      </trkpt>
      <trkpt lat="46.38294" lon="6.73071">
        <ele>1805.49</ele>
        <time>2011-07-31T14:43:14.000Z</time>
      </trkpt>
      <trkpt lat="46.38319" lon="6.73104">
        <ele>1806.45</ele>
        <time>2011-07-31T14:43:19.000Z</time>
      </trkpt>
      <trkpt lat="46.383" lon="6.73159">
        <ele>1810.78</ele>
        <time>2011-07-31T14:43:24.000Z</time>
      </trkpt>
      <trkpt lat="46.38293" lon="6.73165">
        <ele>1810.78</ele>
        <time>2011-07-31T14:43:25.000Z</time>
      </trkpt>
      <trkpt lat="46.38253" lon="6.73155">
        <ele>1816.07</ele>
        <time>2011-07-31T14:43:29.000Z</time>
      </trkpt>
      <trkpt lat="46.38244" lon="6.7313">
        <ele>1820.87</ele>
        <time>2011-07-31T14:43:31.000Z</time>
      </trkpt>
      <trkpt lat="46.38247" lon="6.73106">
        <ele>1823.76</ele>
        <time>2011-07-31T14:43:33.000Z</time>
      </trkpt>
      <trkpt lat="46.38257" lon="6.73097">
        <ele>1827.12</ele>
        <time>2011-07-31T14:43:35.000Z</time>
      </trkpt>
      <trkpt lat="46.38264" lon="6.731">
        <ele>1827.12</ele>
        <time>2011-07-31T14:43:36.000Z</time>
      </trkpt>
      <trkpt lat="46.3827" lon="6.73146">
        <ele>1827.6</ele>
        <time>2011-07-31T14:43:40.000Z</time>
      </trkpt>
      <trkpt lat="46.38239" lon="6.73171">
        <ele>1831.45</ele>
        <time>2011-07-31T14:43:44.000Z</time>
      </trkpt>
      <trkpt lat="46.38165" lon="6.73164">
        <ele>1834.81</ele>
        <time>2011-07-31T14:43:47.000Z</time>
      </trkpt>
      <trkpt lat="46.38161" lon="6.73137">
        <ele>1839.14</ele>
        <time>2011-07-31T14:43:49.000Z</time>
      </trkpt>
      <trkpt lat="46.38157" lon="6.73111">
        <ele>1842.98</ele>
        <time>2011-07-31T14:43:51.000Z</time>
      </trkpt>
      <trkpt lat="46.38209" lon="6.73068">
        <ele>1846.35</ele>
        <time>2011-07-31T14:43:55.000Z</time>
      </trkpt>
      <trkpt lat="46.3823" lon="6.73093">
        <ele>1846.35</ele>
        <time>2011-07-31T14:43:59.000Z</time>
      </trkpt>
      <trkpt lat="46.38165" lon="6.73165">
        <ele>1847.31</ele>
        <time>2011-07-31T14:44:04.000Z</time>
      </trkpt>
      <trkpt lat="46.38193" lon="6.73163">
        <ele>1848.75</ele>
        <time>2011-07-31T14:44:06.000Z</time>
      </trkpt>
      <trkpt lat="46.38163" lon="6.73152">
        <ele>1850.68</ele>
        <time>2011-07-31T14:44:09.000Z</time>
      </trkpt>
      <trkpt lat="46.38158" lon="6.73114">
        <ele>1855</ele>
        <time>2011-07-31T14:44:12.000Z</time>
      </trkpt>
      <trkpt lat="46.38153" lon="6.73082">
        <ele>1858.85</ele>
        <time>2011-07-31T14:44:15.000Z</time>
      </trkpt>
      <trkpt lat="46.38151" lon="6.73069">
        <ele>1858.85</ele>
        <time>2011-07-31T14:44:20.000Z</time>
      </trkpt>
      <trkpt lat="46.38159" lon="6.73123">
        <ele>1860.77</ele>
        <time>2011-07-31T14:44:25.000Z</time>
      </trkpt>
      <trkpt lat="46.3816" lon="6.73134">
        <ele>1861.25</ele>
        <time>2011-07-31T14:44:26.000Z</time>
      </trkpt>
      <trkpt lat="46.38157" lon="6.7316">
        <ele>1862.21</ele>
        <time>2011-07-31T14:44:29.000Z</time>
      </trkpt>
      <trkpt lat="46.38163" lon="6.73153">
        <ele>1865.58</ele>
        <time>2011-07-31T14:44:32.000Z</time>
      </trkpt>
      <trkpt lat="46.38099" lon="6.73138">
        <ele>1868.94</ele>
        <time>2011-07-31T14:44:35.000Z</time>
      </trkpt>
      <trkpt lat="46.38093" lon="6.73104">
        <ele>1872.3</ele>
        <time>2011-07-31T14:44:38.000Z</time>
      </trkpt>
      <trkpt lat="46.38117" lon="6.7308">
        <ele>1871.34</ele>
        <time>2011-07-31T14:44:43.000Z</time>
      </trkpt>
      <trkpt lat="46.38124" lon="6.73081">
        <ele>1871.82</ele>
        <time>2011-07-31T14:44:44.000Z</time>
      </trkpt>
      <trkpt lat="46.38171" lon="6.73092">
        <ele>1872.3</ele>
        <time>2011-07-31T14:44:51.000Z</time>
      </trkpt>
      <trkpt lat="46.38157" lon="6.73108">
        <ele>1873.75</ele>
        <time>2011-07-31T14:44:54.000Z</time>
      </trkpt>
      <trkpt lat="46.38219" lon="6.7311">
        <ele>1871.82</ele>
        <time>2011-07-31T14:44:58.000Z</time>
      </trkpt>
      <trkpt lat="46.38232" lon="6.73113">
        <ele>1872.79</ele>
        <time>2011-07-31T14:45:00.000Z</time>
      </trkpt>
      <trkpt lat="46.38304" lon="6.73133">
        <ele>1872.79</ele>
        <time>2011-07-31T14:45:10.000Z</time>
      </trkpt>
      <trkpt lat="46.38341" lon="6.73188">
        <ele>1876.15</ele>
        <time>2011-07-31T14:45:17.000Z</time>
      </trkpt>
      <trkpt lat="46.38319" lon="6.73263">
        <ele>1876.15</ele>
        <time>2011-07-31T14:45:23.000Z</time>
      </trkpt>
      <trkpt lat="46.38258" lon="6.73283">
        <ele>1878.07</ele>
        <time>2011-07-31T14:45:29.000Z</time>
      </trkpt>
      <trkpt lat="46.38235" lon="6.73265">
        <ele>1881.44</ele>
        <time>2011-07-31T14:45:32.000Z</time>
      </trkpt>
      <trkpt lat="46.3823" lon="6.73256">
        <ele>1881.92</ele>
        <time>2011-07-31T14:45:33.000Z</time>
      </trkpt>
      <trkpt lat="46.38234" lon="6.73211">
        <ele>1884.32</ele>
        <time>2011-07-31T14:45:38.000Z</time>
      </trkpt>
      <trkpt lat="46.38263" lon="6.73219">
        <ele>1883.84</ele>
        <time>2011-07-31T14:45:43.000Z</time>
      </trkpt>
      <trkpt lat="46.38279" lon="6.73297">
        <ele>1883.36</ele>
        <time>2011-07-31T14:45:50.000Z</time>
      </trkpt>
      <trkpt lat="46.38263" lon="6.73336">
        <ele>1882.4</ele>
        <time>2011-07-31T14:45:53.000Z</time>
      </trkpt>
      <trkpt lat="46.38191" lon="6.73381">
        <ele>1885.28</ele>
        <time>2011-07-31T14:46:01.000Z</time>
      </trkpt>
      <trkpt lat="46.38181" lon="6.73377">
        <ele>1885.76</ele>
        <time>2011-07-31T14:46:02.000Z</time>
      </trkpt>
      <trkpt lat="46.38172" lon="6.73372">
        <ele>1887.21</ele>
        <time>2011-07-31T14:46:03.000Z</time>
      </trkpt>
      <trkpt lat="46.38144" lon="6.73357">
        <ele>1890.09</ele>
        <time>2011-07-31T14:46:06.000Z</time>
      </trkpt>
      <trkpt lat="46.38083" lon="6.73292">
        <ele>1894.42</ele>
        <time>2011-07-31T14:46:14.000Z</time>
      </trkpt>
      <trkpt lat="46.38061" lon="6.73263">
        <ele>1898.74</ele>
        <time>2011-07-31T14:46:17.000Z</time>
      </trkpt>
      <trkpt lat="46.38053" lon="6.73254">
        <ele>1902.11</ele>
        <time>2011-07-31T14:46:18.000Z</time>
      </trkpt>
      <trkpt lat="46.38059" lon="6.73212">
        <ele>1902.11</ele>
        <time>2011-07-31T14:46:23.000Z</time>
      </trkpt>
      <trkpt lat="46.38066" lon="6.73214">
        <ele>1902.59</ele>
        <time>2011-07-31T14:46:24.000Z</time>
      </trkpt>
      <trkpt lat="46.38081" lon="6.73266">
        <ele>1903.55</ele>
        <time>2011-07-31T14:46:29.000Z</time>
      </trkpt>
      <trkpt lat="46.38063" lon="6.73317">
        <ele>1906.91</ele>
        <time>2011-07-31T14:46:33.000Z</time>
      </trkpt>
      <trkpt lat="46.38034" lon="6.73343">
        <ele>1910.28</ele>
        <time>2011-07-31T14:46:36.000Z</time>
      </trkpt>
      <trkpt lat="46.38012" lon="6.73343">
        <ele>1914.12</ele>
        <time>2011-07-31T14:46:38.000Z</time>
      </trkpt>
      <trkpt lat="46.37995" lon="6.73333">
        <ele>1915.56</ele>
        <time>2011-07-31T14:46:40.000Z</time>
      </trkpt>
      <trkpt lat="46.37979" lon="6.73304">
        <ele>1918.93</ele>
        <time>2011-07-31T14:46:43.000Z</time>
      </trkpt>
      <trkpt lat="46.3798" lon="6.73286">
        <ele>1922.29</ele>
        <time>2011-07-31T14:46:45.000Z</time>
      </trkpt>
      <trkpt lat="46.38005" lon="6.73288">
        <ele>1923.25</ele>
        <time>2011-07-31T14:46:50.000Z</time>
      </trkpt>
      <trkpt lat="46.38011" lon="6.73314">
        <ele>1925.18</ele>
        <time>2011-07-31T14:46:52.000Z</time>
      </trkpt>
      <trkpt lat="46.38007" lon="6.73345">
        <ele>1928.54</ele>
        <time>2011-07-31T14:46:54.000Z</time>
      </trkpt>
      <trkpt lat="46.37996" lon="6.73375">
        <ele>1932.87</ele>
        <time>2011-07-31T14:46:56.000Z</time>
      </trkpt>
      <trkpt lat="46.3798" lon="6.73396">
        <ele>1936.71</ele>
        <time>2011-07-31T14:46:58.000Z</time>
      </trkpt>
      <trkpt lat="46.3797" lon="6.73401">
        <ele>1936.71</ele>
        <time>2011-07-31T14:46:59.000Z</time>
      </trkpt>
      <trkpt lat="46.37928" lon="6.73374">
        <ele>1939.6</ele>
        <time>2011-07-31T14:47:04.000Z</time>
      </trkpt>
      <trkpt lat="46.37925" lon="6.73366">
        <ele>1941.52</ele>
        <time>2011-07-31T14:47:05.000Z</time>
      </trkpt>
      <trkpt lat="46.37928" lon="6.73314">
        <ele>1951.13</ele>
        <time>2011-07-31T14:47:11.000Z</time>
      </trkpt>
      <trkpt lat="46.37939" lon="6.73314">
        <ele>1952.09</ele>
        <time>2011-07-31T14:47:13.000Z</time>
      </trkpt>
      <trkpt lat="46.37965" lon="6.73358">
        <ele>1950.17</ele>
        <time>2011-07-31T14:47:18.000Z</time>
      </trkpt>
      <trkpt lat="46.37986" lon="6.73398">
        <ele>1960.27</ele>
        <time>2011-07-31T14:47:22.000Z</time>
      </trkpt>
      <trkpt lat="46.37994" lon="6.73401">
        <ele>1964.59</ele>
        <time>2011-07-31T14:47:23.000Z</time>
      </trkpt>
      <trkpt lat="46.38008" lon="6.73382">
        <ele>1967.96</ele>
        <time>2011-07-31T14:47:26.000Z</time>
      </trkpt>
      <trkpt lat="46.38002" lon="6.73359">
        <ele>1971.32</ele>
        <time>2011-07-31T14:47:28.000Z</time>
      </trkpt>
      <trkpt lat="46.37993" lon="6.73352">
        <ele>1971.32</ele>
        <time>2011-07-31T14:47:29.000Z</time>
      </trkpt>
      <trkpt lat="46.37945" lon="6.73361">
        <ele>1976.13</ele>
        <time>2011-07-31T14:47:33.000Z</time>
      </trkpt>
      <trkpt lat="46.37931" lon="6.73386">
        <ele>1979.97</ele>
        <time>2011-07-31T14:47:35.000Z</time>
      </trkpt>
      <trkpt lat="46.37935" lon="6.73448">
        <ele>1982.86</ele>
        <time>2011-07-31T14:47:39.000Z</time>
      </trkpt>
      <trkpt lat="46.37947" lon="6.73469">
        <ele>1986.7</ele>
        <time>2011-07-31T14:47:41.000Z</time>
      </trkpt>
      <trkpt lat="46.37966" lon="6.7348">
        <ele>1990.55</ele>
        <time>2011-07-31T14:47:44.000Z</time>
      </trkpt>
      <trkpt lat="46.37979" lon="6.73463">
        <ele>1994.39</ele>
        <time>2011-07-31T14:47:47.000Z</time>
      </trkpt>
      <trkpt lat="46.37976" lon="6.73441">
        <ele>1995.35</ele>
        <time>2011-07-31T14:47:49.000Z</time>
      </trkpt>
      <trkpt lat="46.37967" lon="6.73417">
        <ele>1998.72</ele>
        <time>2011-07-31T14:47:51.000Z</time>
      </trkpt>
      <trkpt lat="46.37952" lon="6.734">
        <ele>2002.08</ele>
        <time>2011-07-31T14:47:53.000Z</time>
      </trkpt>
      <trkpt lat="46.37908" lon="6.73401">
        <ele>2007.37</ele>
        <time>2011-07-31T14:47:57.000Z</time>
      </trkpt>
      <trkpt lat="46.37867" lon="6.73465">
        <ele>2009.29</ele>
        <time>2011-07-31T14:48:02.000Z</time>
      </trkpt>
      <trkpt lat="46.37865" lon="6.73494">
        <ele>2013.14</ele>
        <time>2011-07-31T14:48:04.000Z</time>
      </trkpt>
      <trkpt lat="46.37867" lon="6.73506">
        <ele>2013.14</ele>
        <time>2011-07-31T14:48:05.000Z</time>
      </trkpt>
      <trkpt lat="46.37899" lon="6.73541">
        <ele>2017.94</ele>
        <time>2011-07-31T14:48:10.000Z</time>
      </trkpt>
      <trkpt lat="46.3791" lon="6.73535">
        <ele>2019.87</ele>
        <time>2011-07-31T14:48:12.000Z</time>
      </trkpt>
      <trkpt lat="46.3792" lon="6.73503">
        <ele>2024.67</ele>
        <time>2011-07-31T14:48:16.000Z</time>
      </trkpt>
      <trkpt lat="46.37902" lon="6.73464">
        <ele>2029</ele>
        <time>2011-07-31T14:48:20.000Z</time>
      </trkpt>
      <trkpt lat="46.37848" lon="6.73463">
        <ele>2031.4</ele>
        <time>2011-07-31T14:48:25.000Z</time>
      </trkpt>
      <trkpt lat="46.37822" lon="6.73498">
        <ele>2032.84</ele>
        <time>2011-07-31T14:48:28.000Z</time>
      </trkpt>
      <trkpt lat="46.37821" lon="6.73584">
        <ele>2034.29</ele>
        <time>2011-07-31T14:48:34.000Z</time>
      </trkpt>
      <trkpt lat="46.37826" lon="6.73594">
        <ele>2035.73</ele>
        <time>2011-07-31T14:48:35.000Z</time>
      </trkpt>
      <trkpt lat="46.37846" lon="6.73629">
        <ele>2038.13</ele>
        <time>2011-07-31T14:48:39.000Z</time>
      </trkpt>
      <trkpt lat="46.3787" lon="6.7363">
        <ele>2036.69</ele>
        <time>2011-07-31T14:48:43.000Z</time>
      </trkpt>
      <trkpt lat="46.37868" lon="6.73596">
        <ele>2039.09</ele>
        <time>2011-07-31T14:48:47.000Z</time>
      </trkpt>
      <trkpt lat="46.37843" lon="6.73559">
        <ele>2042.46</ele>
        <time>2011-07-31T14:48:51.000Z</time>
      </trkpt>
      <trkpt lat="46.37834" lon="6.73555">
        <ele>2042.94</ele>
        <time>2011-07-31T14:48:52.000Z</time>
      </trkpt>
      <trkpt lat="46.37816" lon="6.73545">
        <ele>2043.42</ele>
        <time>2011-07-31T14:48:54.000Z</time>
      </trkpt>
      <trkpt lat="46.37741" lon="6.7355">
        <ele>2041.02</ele>
        <time>2011-07-31T14:49:01.000Z</time>
      </trkpt>
      <trkpt lat="46.37698" lon="6.73619">
        <ele>2033.81</ele>
        <time>2011-07-31T14:49:04.000Z</time>
      </trkpt>
      <trkpt lat="46.37677" lon="6.73611">
        <ele>2032.84</ele>
        <time>2011-07-31T14:49:06.000Z</time>
      </trkpt>
      <trkpt lat="46.37664" lon="6.73606">
        <ele>2036.21</ele>
        <time>2011-07-31T14:49:09.000Z</time>
      </trkpt>
      <trkpt lat="46.37664" lon="6.73606">
        <ele>2038.13</ele>
        <time>2011-07-31T14:49:10.000Z</time>
      </trkpt>
      <trkpt lat="46.37615" lon="6.73633">
        <ele>2046.3</ele>
        <time>2011-07-31T14:49:14.000Z</time>
      </trkpt>
      <trkpt lat="46.37616" lon="6.73663">
        <ele>2048.71</ele>
        <time>2011-07-31T14:49:16.000Z</time>
      </trkpt>
      <trkpt lat="46.37646" lon="6.73694">
        <ele>2047.75</ele>
        <time>2011-07-31T14:49:20.000Z</time>
      </trkpt>
      <trkpt lat="46.37671" lon="6.73658">
        <ele>2044.86</ele>
        <time>2011-07-31T14:49:25.000Z</time>
      </trkpt>
      <trkpt lat="46.37664" lon="6.73606">
        <ele>2041.5</ele>
        <time>2011-07-31T14:49:29.000Z</time>
      </trkpt>
      <trkpt lat="46.37664" lon="6.73606">
        <ele>2039.57</ele>
        <time>2011-07-31T14:49:31.000Z</time>
      </trkpt>
      <trkpt lat="46.37611" lon="6.73631">
        <ele>2038.13</ele>
        <time>2011-07-31T14:49:33.000Z</time>
      </trkpt>
      <trkpt lat="46.37579" lon="6.73649">
        <ele>2034.77</ele>
        <time>2011-07-31T14:49:36.000Z</time>
      </trkpt>
      <trkpt lat="46.37561" lon="6.73667">
        <ele>2038.13</ele>
        <time>2011-07-31T14:49:38.000Z</time>
      </trkpt>
      <trkpt lat="46.37548" lon="6.73687">
        <ele>2042.46</ele>
        <time>2011-07-31T14:49:40.000Z</time>
      </trkpt>
      <trkpt lat="46.37536" lon="6.73705">
        <ele>2045.34</ele>
        <time>2011-07-31T14:49:42.000Z</time>
      </trkpt>
      <trkpt lat="46.37519" lon="6.73744">
        <ele>2041.98</ele>
        <time>2011-07-31T14:49:45.000Z</time>
      </trkpt>
      <trkpt lat="46.37515" lon="6.73761">
        <ele>2042.46</ele>
        <time>2011-07-31T14:49:46.000Z</time>
      </trkpt>
      <trkpt lat="46.37496" lon="6.73824">
        <ele>2038.61</ele>
        <time>2011-07-31T14:49:50.000Z</time>
      </trkpt>
      <trkpt lat="46.37489" lon="6.73837">
        <ele>2037.17</ele>
        <time>2011-07-31T14:49:51.000Z</time>
      </trkpt>
      <trkpt lat="46.37457" lon="6.73881">
        <ele>2033.81</ele>
        <time>2011-07-31T14:49:55.000Z</time>
      </trkpt>
      <trkpt lat="46.37421" lon="6.73914">
        <ele>2029</ele>
        <time>2011-07-31T14:49:59.000Z</time>
      </trkpt>
      <trkpt lat="46.37381" lon="6.73961">
        <ele>2023.71</ele>
        <time>2011-07-31T14:50:04.000Z</time>
      </trkpt>
      <trkpt lat="46.37372" lon="6.7397">
        <ele>2021.31</ele>
        <time>2011-07-31T14:50:05.000Z</time>
      </trkpt>
      <trkpt lat="46.37344" lon="6.73991">
        <ele>2016.02</ele>
        <time>2011-07-31T14:50:08.000Z</time>
      </trkpt>
      <trkpt lat="46.37323" lon="6.74001">
        <ele>2012.18</ele>
        <time>2011-07-31T14:50:10.000Z</time>
      </trkpt>
      <trkpt lat="46.37274" lon="6.74016">
        <ele>2013.62</ele>
        <time>2011-07-31T14:50:15.000Z</time>
      </trkpt>
      <trkpt lat="46.37236" lon="6.74019">
        <ele>2016.5</ele>
        <time>2011-07-31T14:50:19.000Z</time>
      </trkpt>
      <trkpt lat="46.37209" lon="6.74025">
        <ele>2016.5</ele>
        <time>2011-07-31T14:50:22.000Z</time>
      </trkpt>
      <trkpt lat="46.37193" lon="6.74034">
        <ele>2023.71</ele>
        <time>2011-07-31T14:50:24.000Z</time>
      </trkpt>
      <trkpt lat="46.37186" lon="6.74041">
        <ele>2027.08</ele>
        <time>2011-07-31T14:50:25.000Z</time>
      </trkpt>
      <trkpt lat="46.37177" lon="6.74063">
        <ele>2028.52</ele>
        <time>2011-07-31T14:50:27.000Z</time>
      </trkpt>
      <trkpt lat="46.37167" lon="6.74089">
        <ele>2036.69</ele>
        <time>2011-07-31T14:50:29.000Z</time>
      </trkpt>
      <trkpt lat="46.37143" lon="6.74105">
        <ele>2041.5</ele>
        <time>2011-07-31T14:50:32.000Z</time>
      </trkpt>
      <trkpt lat="46.37125" lon="6.74093">
        <ele>2046.3</ele>
        <time>2011-07-31T14:50:34.000Z</time>
      </trkpt>
      <trkpt lat="46.37121" lon="6.74083">
        <ele>2052.07</ele>
        <time>2011-07-31T14:50:35.000Z</time>
      </trkpt>
      <trkpt lat="46.37122" lon="6.74074">
        <ele>2054.96</ele>
        <time>2011-07-31T14:50:36.000Z</time>
      </trkpt>
      <trkpt lat="46.37135" lon="6.74061">
        <ele>2059.76</ele>
        <time>2011-07-31T14:50:38.000Z</time>
      </trkpt>
      <trkpt lat="46.37154" lon="6.74063">
        <ele>2064.09</ele>
        <time>2011-07-31T14:50:40.000Z</time>
      </trkpt>
      <trkpt lat="46.37167" lon="6.74085">
        <ele>2067.45</ele>
        <time>2011-07-31T14:50:42.000Z</time>
      </trkpt>
      <trkpt lat="46.37163" lon="6.74112">
        <ele>2070.34</ele>
        <time>2011-07-31T14:50:44.000Z</time>
      </trkpt>
      <trkpt lat="46.37147" lon="6.74126">
        <ele>2072.74</ele>
        <time>2011-07-31T14:50:46.000Z</time>
      </trkpt>
      <trkpt lat="46.37128" lon="6.74136">
        <ele>2078.99</ele>
        <time>2011-07-31T14:50:48.000Z</time>
      </trkpt>
      <trkpt lat="46.371" lon="6.74128">
        <ele>2086.2</ele>
        <time>2011-07-31T14:50:52.000Z</time>
      </trkpt>
      <trkpt lat="46.3709" lon="6.74114">
        <ele>2089.08</ele>
        <time>2011-07-31T14:50:54.000Z</time>
      </trkpt>
      <trkpt lat="46.37086" lon="6.74107">
        <ele>2092.45</ele>
        <time>2011-07-31T14:50:55.000Z</time>
      </trkpt>
      <trkpt lat="46.37061" lon="6.74091">
        <ele>2101.58</ele>
        <time>2011-07-31T14:50:59.000Z</time>
      </trkpt>
      <trkpt lat="46.37054" lon="6.74087">
        <ele>2104.46</ele>
        <time>2011-07-31T14:51:00.000Z</time>
      </trkpt>
      <trkpt lat="46.3704" lon="6.74072">
        <ele>2112.63</ele>
        <time>2011-07-31T14:51:03.000Z</time>
      </trkpt>
      <trkpt lat="46.37041" lon="6.74057">
        <ele>2119.36</ele>
        <time>2011-07-31T14:51:05.000Z</time>
      </trkpt>
      <trkpt lat="46.37054" lon="6.74051">
        <ele>2122.25</ele>
        <time>2011-07-31T14:51:07.000Z</time>
      </trkpt>
      <trkpt lat="46.3707" lon="6.74074">
        <ele>2125.61</ele>
        <time>2011-07-31T14:51:09.000Z</time>
      </trkpt>
      <trkpt lat="46.37066" lon="6.74126">
        <ele>2129.94</ele>
        <time>2011-07-31T14:51:12.000Z</time>
      </trkpt>
      <trkpt lat="46.37048" lon="6.74144">
        <ele>2134.26</ele>
        <time>2011-07-31T14:51:14.000Z</time>
      </trkpt>
      <trkpt lat="46.3703" lon="6.74148">
        <ele>2139.07</ele>
        <time>2011-07-31T14:51:16.000Z</time>
      </trkpt>
      <trkpt lat="46.37022" lon="6.74146">
        <ele>2141.95</ele>
        <time>2011-07-31T14:51:17.000Z</time>
      </trkpt>
      <trkpt lat="46.37014" lon="6.74144">
        <ele>2144.84</ele>
        <time>2011-07-31T14:51:18.000Z</time>
      </trkpt>
      <trkpt lat="46.36991" lon="6.74134">
        <ele>2150.13</ele>
        <time>2011-07-31T14:51:21.000Z</time>
      </trkpt>
      <trkpt lat="46.36984" lon="6.74132">
        <ele>2153.01</ele>
        <time>2011-07-31T14:51:22.000Z</time>
      </trkpt>
      <trkpt lat="46.3698" lon="6.74099">
        <ele>2155.89</ele>
        <time>2011-07-31T14:51:27.000Z</time>
      </trkpt>
      <trkpt lat="46.37006" lon="6.74106">
        <ele>2159.74</ele>
        <time>2011-07-31T14:51:30.000Z</time>
      </trkpt>
      <trkpt lat="46.37016" lon="6.74117">
        <ele>2158.78</ele>
        <time>2011-07-31T14:51:31.000Z</time>
      </trkpt>
      <trkpt lat="46.37022" lon="6.74132">
        <ele>2163.1</ele>
        <time>2011-07-31T14:51:32.000Z</time>
      </trkpt>
      <trkpt lat="46.37025" lon="6.74149">
        <ele>2167.91</ele>
        <time>2011-07-31T14:51:33.000Z</time>
      </trkpt>
      <trkpt lat="46.37022" lon="6.74182">
        <ele>2174.16</ele>
        <time>2011-07-31T14:51:35.000Z</time>
      </trkpt>
      <trkpt lat="46.37008" lon="6.74206">
        <ele>2178</ele>
        <time>2011-07-31T14:51:37.000Z</time>
      </trkpt>
      <trkpt lat="46.36998" lon="6.74213">
        <ele>2180.89</ele>
        <time>2011-07-31T14:51:38.000Z</time>
      </trkpt>
      <trkpt lat="46.36979" lon="6.74211">
        <ele>2186.66</ele>
        <time>2011-07-31T14:51:40.000Z</time>
      </trkpt>
      <trkpt lat="46.36968" lon="6.74199">
        <ele>2190.02</ele>
        <time>2011-07-31T14:51:42.000Z</time>
      </trkpt>
      <trkpt lat="46.36966" lon="6.74192">
        <ele>2193.39</ele>
        <time>2011-07-31T14:51:43.000Z</time>
      </trkpt>
      <trkpt lat="46.36972" lon="6.74179">
        <ele>2195.31</ele>
        <time>2011-07-31T14:51:45.000Z</time>
      </trkpt>
      <trkpt lat="46.36989" lon="6.74181">
        <ele>2200.59</ele>
        <time>2011-07-31T14:51:47.000Z</time>
      </trkpt>
      <trkpt lat="46.36999" lon="6.74187">
        <ele>2198.19</ele>
        <time>2011-07-31T14:51:48.000Z</time>
      </trkpt>
      <trkpt lat="46.37008" lon="6.74194">
        <ele>2203.48</ele>
        <time>2011-07-31T14:51:49.000Z</time>
      </trkpt>
      <trkpt lat="46.37015" lon="6.74209">
        <ele>2207.32</ele>
        <time>2011-07-31T14:51:50.000Z</time>
      </trkpt>
      <trkpt lat="46.37021" lon="6.74245">
        <ele>2213.57</ele>
        <time>2011-07-31T14:51:52.000Z</time>
      </trkpt>
      <trkpt lat="46.37019" lon="6.74264">
        <ele>2217.42</ele>
        <time>2011-07-31T14:51:53.000Z</time>
      </trkpt>
      <trkpt lat="46.37005" lon="6.7429">
        <ele>2224.15</ele>
        <time>2011-07-31T14:51:55.000Z</time>
      </trkpt>
      <trkpt lat="46.36987" lon="6.74297">
        <ele>2228.95</ele>
        <time>2011-07-31T14:51:57.000Z</time>
      </trkpt>
      <trkpt lat="46.36977" lon="6.74294">
        <ele>2232.8</ele>
        <time>2011-07-31T14:51:58.000Z</time>
      </trkpt>
      <trkpt lat="46.3697" lon="6.74286">
        <ele>2236.64</ele>
        <time>2011-07-31T14:51:59.000Z</time>
      </trkpt>
      <trkpt lat="46.36965" lon="6.74276">
        <ele>2239.53</ele>
        <time>2011-07-31T14:52:00.000Z</time>
      </trkpt>
      <trkpt lat="46.36965" lon="6.74261">
        <ele>2245.3</ele>
        <time>2011-07-31T14:52:02.000Z</time>
      </trkpt>
      <trkpt lat="46.36975" lon="6.74254">
        <ele>2252.51</ele>
        <time>2011-07-31T14:52:04.000Z</time>
      </trkpt>
      <trkpt lat="46.37" lon="6.74282">
        <ele>2257.79</ele>
        <time>2011-07-31T14:52:07.000Z</time>
      </trkpt>
      <trkpt lat="46.37002" lon="6.74318">
        <ele>2263.56</ele>
        <time>2011-07-31T14:52:09.000Z</time>
      </trkpt>
      <trkpt lat="46.36999" lon="6.74335">
        <ele>2266.93</ele>
        <time>2011-07-31T14:52:10.000Z</time>
      </trkpt>
      <trkpt lat="46.36985" lon="6.74362">
        <ele>2272.69</ele>
        <time>2011-07-31T14:52:12.000Z</time>
      </trkpt>
      <trkpt lat="46.36966" lon="6.74373">
        <ele>2277.02</ele>
        <time>2011-07-31T14:52:14.000Z</time>
      </trkpt>
      <trkpt lat="46.36948" lon="6.74371">
        <ele>2280.38</ele>
        <time>2011-07-31T14:52:16.000Z</time>
      </trkpt>
      <trkpt lat="46.36941" lon="6.74366">
        <ele>2283.75</ele>
        <time>2011-07-31T14:52:17.000Z</time>
      </trkpt>
      <trkpt lat="46.36934" lon="6.74362">
        <ele>2287.59</ele>
        <time>2011-07-31T14:52:18.000Z</time>
      </trkpt>
      <trkpt lat="46.36929" lon="6.74351">
        <ele>2291.92</ele>
        <time>2011-07-31T14:52:20.000Z</time>
      </trkpt>
      <trkpt lat="46.3693" lon="6.74346">
        <ele>2291.44</ele>
        <time>2011-07-31T14:52:21.000Z</time>
      </trkpt>
      <trkpt lat="46.36957" lon="6.74336">
        <ele>2295.28</ele>
        <time>2011-07-31T14:52:25.000Z</time>
      </trkpt>
      <trkpt lat="46.36977" lon="6.74373">
        <ele>2299.61</ele>
        <time>2011-07-31T14:52:28.000Z</time>
      </trkpt>
      <trkpt lat="46.36982" lon="6.74392">
        <ele>2302.49</ele>
        <time>2011-07-31T14:52:29.000Z</time>
      </trkpt>
      <trkpt lat="46.36976" lon="6.74426">
        <ele>2305.38</ele>
        <time>2011-07-31T14:52:31.000Z</time>
      </trkpt>
      <trkpt lat="46.36958" lon="6.74449">
        <ele>2311.15</ele>
        <time>2011-07-31T14:52:33.000Z</time>
      </trkpt>
      <trkpt lat="46.36948" lon="6.74453">
        <ele>2310.19</ele>
        <time>2011-07-31T14:52:34.000Z</time>
      </trkpt>
      <trkpt lat="46.36938" lon="6.74454">
        <ele>2311.63</ele>
        <time>2011-07-31T14:52:35.000Z</time>
      </trkpt>
      <trkpt lat="46.3692" lon="6.74455">
        <ele>2319.32</ele>
        <time>2011-07-31T14:52:37.000Z</time>
      </trkpt>
      <trkpt lat="46.36902" lon="6.74461">
        <ele>2320.76</ele>
        <time>2011-07-31T14:52:39.000Z</time>
      </trkpt>
      <trkpt lat="46.36873" lon="6.74468">
        <ele>2323.64</ele>
        <time>2011-07-31T14:52:42.000Z</time>
      </trkpt>
      <trkpt lat="46.36847" lon="6.74464">
        <ele>2322.2</ele>
        <time>2011-07-31T14:52:45.000Z</time>
      </trkpt>
      <trkpt lat="46.36819" lon="6.74458">
        <ele>2318.84</ele>
        <time>2011-07-31T14:52:48.000Z</time>
      </trkpt>
      <trkpt lat="46.3679" lon="6.74443">
        <ele>2311.63</ele>
        <time>2011-07-31T14:52:51.000Z</time>
      </trkpt>
      <trkpt lat="46.36762" lon="6.74424">
        <ele>2317.4</ele>
        <time>2011-07-31T14:52:54.000Z</time>
      </trkpt>
      <trkpt lat="46.36734" lon="6.74399">
        <ele>2325.09</ele>
        <time>2011-07-31T14:52:58.000Z</time>
      </trkpt>
      <trkpt lat="46.36711" lon="6.744">
        <ele>2331.33</ele>
        <time>2011-07-31T14:53:01.000Z</time>
      </trkpt>
      <trkpt lat="46.36702" lon="6.74404">
        <ele>2334.22</ele>
        <time>2011-07-31T14:53:02.000Z</time>
      </trkpt>
      <trkpt lat="46.36681" lon="6.74385">
        <ele>2333.26</ele>
        <time>2011-07-31T14:53:07.000Z</time>
      </trkpt>
      <trkpt lat="46.36668" lon="6.74368">
        <ele>2332.3</ele>
        <time>2011-07-31T14:53:10.000Z</time>
      </trkpt>
      <trkpt lat="46.36643" lon="6.74347">
        <ele>2331.33</ele>
        <time>2011-07-31T14:53:14.000Z</time>
      </trkpt>
      <trkpt lat="46.36627" lon="6.74332">
        <ele>2330.85</ele>
        <time>2011-07-31T14:53:17.000Z</time>
      </trkpt>
      <trkpt lat="46.36602" lon="6.74322">
        <ele>2337.1</ele>
        <time>2011-07-31T14:53:21.000Z</time>
      </trkpt>
      <trkpt lat="46.36595" lon="6.74312">
        <ele>2339.51</ele>
        <time>2011-07-31T14:53:23.000Z</time>
      </trkpt>
      <trkpt lat="46.36613" lon="6.74287">
        <ele>2341.43</ele>
        <time>2011-07-31T14:53:27.000Z</time>
      </trkpt>
      <trkpt lat="46.36645" lon="6.74325">
        <ele>2344.79</ele>
        <time>2011-07-31T14:53:31.000Z</time>
      </trkpt>
      <trkpt lat="46.36644" lon="6.74378">
        <ele>2348.16</ele>
        <time>2011-07-31T14:53:34.000Z</time>
      </trkpt>
      <trkpt lat="46.36637" lon="6.74391">
        <ele>2347.68</ele>
        <time>2011-07-31T14:53:35.000Z</time>
      </trkpt>
      <trkpt lat="46.36609" lon="6.74402">
        <ele>2348.64</ele>
        <time>2011-07-31T14:53:39.000Z</time>
      </trkpt>
      <trkpt lat="46.36589" lon="6.74398">
        <ele>2347.2</ele>
        <time>2011-07-31T14:53:42.000Z</time>
      </trkpt>
      <trkpt lat="46.36558" lon="6.74364">
        <ele>2345.75</ele>
        <time>2011-07-31T14:53:48.000Z</time>
      </trkpt>
      <trkpt lat="46.36539" lon="6.74345">
        <ele>2344.31</ele>
        <time>2011-07-31T14:53:51.000Z</time>
      </trkpt>
      <trkpt lat="46.36492" lon="6.74292">
        <ele>2343.35</ele>
        <time>2011-07-31T14:53:58.000Z</time>
      </trkpt>
      <trkpt lat="46.3647" lon="6.74267">
        <ele>2339.51</ele>
        <time>2011-07-31T14:54:01.000Z</time>
      </trkpt>
      <trkpt lat="46.36455" lon="6.74247">
        <ele>2338.54</ele>
        <time>2011-07-31T14:54:03.000Z</time>
      </trkpt>
      <trkpt lat="46.36437" lon="6.74218">
        <ele>2337.58</ele>
        <time>2011-07-31T14:54:06.000Z</time>
      </trkpt>
      <trkpt lat="46.36417" lon="6.74189">
        <ele>2332.78</ele>
        <time>2011-07-31T14:54:09.000Z</time>
      </trkpt>
      <trkpt lat="46.36393" lon="6.74143">
        <ele>2330.85</ele>
        <time>2011-07-31T14:54:13.000Z</time>
      </trkpt>
      <trkpt lat="46.36366" lon="6.74105">
        <ele>2327.01</ele>
        <time>2011-07-31T14:54:17.000Z</time>
      </trkpt>
      <trkpt lat="46.36346" lon="6.74075">
        <ele>2323.16</ele>
        <time>2011-07-31T14:54:20.000Z</time>
      </trkpt>
      <trkpt lat="46.36339" lon="6.74065">
        <ele>2321.72</ele>
        <time>2011-07-31T14:54:21.000Z</time>
      </trkpt>
      <trkpt lat="46.36311" lon="6.74031">
        <ele>2315.47</ele>
        <time>2011-07-31T14:54:25.000Z</time>
      </trkpt>
      <trkpt lat="46.36296" lon="6.74013">
        <ele>2312.11</ele>
        <time>2011-07-31T14:54:27.000Z</time>
      </trkpt>
      <trkpt lat="46.36287" lon="6.74004">
        <ele>2312.11</ele>
        <time>2011-07-31T14:54:28.000Z</time>
      </trkpt>
      <trkpt lat="46.36271" lon="6.73987">
        <ele>2308.74</ele>
        <time>2011-07-31T14:54:30.000Z</time>
      </trkpt>
      <trkpt lat="46.36255" lon="6.7397">
        <ele>2303.94</ele>
        <time>2011-07-31T14:54:32.000Z</time>
      </trkpt>
      <trkpt lat="46.36238" lon="6.73953">
        <ele>2300.57</ele>
        <time>2011-07-31T14:54:34.000Z</time>
      </trkpt>
      <trkpt lat="46.36217" lon="6.73926">
        <ele>2297.21</ele>
        <time>2011-07-31T14:54:37.000Z</time>
      </trkpt>
      <trkpt lat="46.36203" lon="6.73907">
        <ele>2295.28</ele>
        <time>2011-07-31T14:54:39.000Z</time>
      </trkpt>
      <trkpt lat="46.36179" lon="6.73879">
        <ele>2293.36</ele>
        <time>2011-07-31T14:54:42.000Z</time>
      </trkpt>
      <trkpt lat="46.36121" lon="6.73823">
        <ele>2291.92</ele>
        <time>2011-07-31T14:54:49.000Z</time>
      </trkpt>
      <trkpt lat="46.36092" lon="6.73789">
        <ele>2289.52</ele>
        <time>2011-07-31T14:54:53.000Z</time>
      </trkpt>
      <trkpt lat="46.36069" lon="6.73767">
        <ele>2285.67</ele>
        <time>2011-07-31T14:54:56.000Z</time>
      </trkpt>
      <trkpt lat="46.36035" lon="6.73724">
        <ele>2281.83</ele>
        <time>2011-07-31T14:55:01.000Z</time>
      </trkpt>
      <trkpt lat="46.36021" lon="6.73706">
        <ele>2277.5</ele>
        <time>2011-07-31T14:55:03.000Z</time>
      </trkpt>
      <trkpt lat="46.36005" lon="6.73685">
        <ele>2275.1</ele>
        <time>2011-07-31T14:55:05.000Z</time>
      </trkpt>
      <trkpt lat="46.35959" lon="6.73635">
        <ele>2271.25</ele>
        <time>2011-07-31T14:55:11.000Z</time>
      </trkpt>
      <trkpt lat="46.35927" lon="6.73604">
        <ele>2267.89</ele>
        <time>2011-07-31T14:55:15.000Z</time>
      </trkpt>
      <trkpt lat="46.35912" lon="6.73587">
        <ele>2263.56</ele>
        <time>2011-07-31T14:55:17.000Z</time>
      </trkpt>
      <trkpt lat="46.35896" lon="6.73569">
        <ele>2261.16</ele>
        <time>2011-07-31T14:55:19.000Z</time>
      </trkpt>
      <trkpt lat="46.35879" lon="6.73554">
        <ele>2259.24</ele>
        <time>2011-07-31T14:55:21.000Z</time>
      </trkpt>
      <trkpt lat="46.35857" lon="6.73527">
        <ele>2253.95</ele>
        <time>2011-07-31T14:55:24.000Z</time>
      </trkpt>
      <trkpt lat="46.3585" lon="6.73517">
        <ele>2251.54</ele>
        <time>2011-07-31T14:55:25.000Z</time>
      </trkpt>
      <trkpt lat="46.35811" lon="6.73488">
        <ele>2244.82</ele>
        <time>2011-07-31T14:55:30.000Z</time>
      </trkpt>
      <trkpt lat="46.35794" lon="6.73475">
        <ele>2237.13</ele>
        <time>2011-07-31T14:55:32.000Z</time>
      </trkpt>
      <trkpt lat="46.35779" lon="6.73459">
        <ele>2232.32</ele>
        <time>2011-07-31T14:55:34.000Z</time>
      </trkpt>
      <trkpt lat="46.35764" lon="6.73444">
        <ele>2231.84</ele>
        <time>2011-07-31T14:55:36.000Z</time>
      </trkpt>
      <trkpt lat="46.35745" lon="6.73421">
        <ele>2226.55</ele>
        <time>2011-07-31T14:55:39.000Z</time>
      </trkpt>
      <trkpt lat="46.35738" lon="6.73411">
        <ele>2223.67</ele>
        <time>2011-07-31T14:55:40.000Z</time>
      </trkpt>
      <trkpt lat="46.35722" lon="6.73395">
        <ele>2219.82</ele>
        <time>2011-07-31T14:55:42.000Z</time>
      </trkpt>
      <trkpt lat="46.35698" lon="6.73368">
        <ele>2214.05</ele>
        <time>2011-07-31T14:55:45.000Z</time>
      </trkpt>
      <trkpt lat="46.35682" lon="6.73346">
        <ele>2212.13</ele>
        <time>2011-07-31T14:55:47.000Z</time>
      </trkpt>
      <trkpt lat="46.35643" lon="6.73299">
        <ele>2208.29</ele>
        <time>2011-07-31T14:55:52.000Z</time>
      </trkpt>
      <trkpt lat="46.35617" lon="6.73271">
        <ele>2205.4</ele>
        <time>2011-07-31T14:55:55.000Z</time>
      </trkpt>
      <trkpt lat="46.3559" lon="6.73233">
        <ele>2206.36</ele>
        <time>2011-07-31T14:55:59.000Z</time>
      </trkpt>
      <trkpt lat="46.35564" lon="6.73197">
        <ele>2203.48</ele>
        <time>2011-07-31T14:56:03.000Z</time>
      </trkpt>
      <trkpt lat="46.35558" lon="6.73188">
        <ele>2203.96</ele>
        <time>2011-07-31T14:56:04.000Z</time>
      </trkpt>
      <trkpt lat="46.35536" lon="6.73165">
        <ele>2198.19</ele>
        <time>2011-07-31T14:56:07.000Z</time>
      </trkpt>
      <trkpt lat="46.35528" lon="6.73157">
        <ele>2196.75</ele>
        <time>2011-07-31T14:56:08.000Z</time>
      </trkpt>
      <trkpt lat="46.35514" lon="6.73136">
        <ele>2195.31</ele>
        <time>2011-07-31T14:56:10.000Z</time>
      </trkpt>
      <trkpt lat="46.35502" lon="6.73116">
        <ele>2194.83</ele>
        <time>2011-07-31T14:56:12.000Z</time>
      </trkpt>
      <trkpt lat="46.35489" lon="6.731">
        <ele>2191.46</ele>
        <time>2011-07-31T14:56:14.000Z</time>
      </trkpt>
      <trkpt lat="46.35471" lon="6.73071">
        <ele>2188.1</ele>
        <time>2011-07-31T14:56:17.000Z</time>
      </trkpt>
      <trkpt lat="46.3546" lon="6.73053">
        <ele>2187.62</ele>
        <time>2011-07-31T14:56:19.000Z</time>
      </trkpt>
      <trkpt lat="46.35447" lon="6.73036">
        <ele>2182.33</ele>
        <time>2011-07-31T14:56:21.000Z</time>
      </trkpt>
      <trkpt lat="46.3544" lon="6.73026">
        <ele>2179.45</ele>
        <time>2011-07-31T14:56:22.000Z</time>
      </trkpt>
      <trkpt lat="46.35418" lon="6.72986">
        <ele>2180.89</ele>
        <time>2011-07-31T14:56:26.000Z</time>
      </trkpt>
      <trkpt lat="46.35395" lon="6.72961">
        <ele>2172.72</ele>
        <time>2011-07-31T14:56:29.000Z</time>
      </trkpt>
      <trkpt lat="46.35386" lon="6.72953">
        <ele>2173.2</ele>
        <time>2011-07-31T14:56:30.000Z</time>
      </trkpt>
      <trkpt lat="46.35364" lon="6.72917">
        <ele>2171.27</ele>
        <time>2011-07-31T14:56:34.000Z</time>
      </trkpt>
      <trkpt lat="46.35357" lon="6.72909">
        <ele>2170.31</ele>
        <time>2011-07-31T14:56:35.000Z</time>
      </trkpt>
      <trkpt lat="46.35332" lon="6.72894">
        <ele>2169.83</ele>
        <time>2011-07-31T14:56:38.000Z</time>
      </trkpt>
      <trkpt lat="46.35263" lon="6.72827">
        <ele>2165.51</ele>
        <time>2011-07-31T14:56:42.000Z</time>
      </trkpt>
      <trkpt lat="46.35263" lon="6.72827">
        <ele>2162.62</ele>
        <time>2011-07-31T14:56:45.000Z</time>
      </trkpt>
      <trkpt lat="46.35262" lon="6.72823">
        <ele>2162.14</ele>
        <time>2011-07-31T14:56:47.000Z</time>
      </trkpt>
      <trkpt lat="46.3525" lon="6.72784">
        <ele>2157.82</ele>
        <time>2011-07-31T14:56:52.000Z</time>
      </trkpt>
      <trkpt lat="46.35212" lon="6.72802">
        <ele>2157.82</ele>
        <time>2011-07-31T14:56:53.000Z</time>
      </trkpt>
      <trkpt lat="46.35181" lon="6.72819">
        <ele>2159.26</ele>
        <time>2011-07-31T14:56:56.000Z</time>
      </trkpt>
      <trkpt lat="46.3515" lon="6.72841">
        <ele>2161.18</ele>
        <time>2011-07-31T14:56:59.000Z</time>
      </trkpt>
      <trkpt lat="46.35107" lon="6.72831">
        <ele>2165.51</ele>
        <time>2011-07-31T14:57:03.000Z</time>
      </trkpt>
      <trkpt lat="46.35103" lon="6.72822">
        <ele>2164.06</ele>
        <time>2011-07-31T14:57:04.000Z</time>
      </trkpt>
      <trkpt lat="46.35105" lon="6.72803">
        <ele>2155.89</ele>
        <time>2011-07-31T14:57:06.000Z</time>
      </trkpt>
      <trkpt lat="46.35112" lon="6.72798">
        <ele>2155.89</ele>
        <time>2011-07-31T14:57:07.000Z</time>
      </trkpt>
      <trkpt lat="46.35121" lon="6.72797">
        <ele>2151.57</ele>
        <time>2011-07-31T14:57:08.000Z</time>
      </trkpt>
      <trkpt lat="46.35136" lon="6.72804">
        <ele>2148.68</ele>
        <time>2011-07-31T14:57:10.000Z</time>
      </trkpt>
      <trkpt lat="46.35148" lon="6.72809">
        <ele>2146.76</ele>
        <time>2011-07-31T14:57:12.000Z</time>
      </trkpt>
      <trkpt lat="46.35159" lon="6.72805">
        <ele>2139.07</ele>
        <time>2011-07-31T14:57:14.000Z</time>
      </trkpt>
      <trkpt lat="46.35165" lon="6.72799">
        <ele>2135.23</ele>
        <time>2011-07-31T14:57:15.000Z</time>
      </trkpt>
      <trkpt lat="46.3517" lon="6.72786">
        <ele>2135.71</ele>
        <time>2011-07-31T14:57:17.000Z</time>
      </trkpt>
      <trkpt lat="46.3522" lon="6.7276">
        <ele>2129.94</ele>
        <time>2011-07-31T14:57:19.000Z</time>
      </trkpt>
      <trkpt lat="46.3522" lon="6.7276">
        <ele>2124.65</ele>
        <time>2011-07-31T14:57:20.000Z</time>
      </trkpt>
      <trkpt lat="46.35221" lon="6.72743">
        <ele>2112.63</ele>
        <time>2011-07-31T14:57:23.000Z</time>
      </trkpt>
      <trkpt lat="46.35222" lon="6.72733">
        <ele>2113.6</ele>
        <time>2011-07-31T14:57:24.000Z</time>
      </trkpt>
      <trkpt lat="46.35223" lon="6.72723">
        <ele>2113.6</ele>
        <time>2011-07-31T14:57:25.000Z</time>
      </trkpt>
      <trkpt lat="46.35203" lon="6.72698">
        <ele>2118.88</ele>
        <time>2011-07-31T14:57:28.000Z</time>
      </trkpt>
      <trkpt lat="46.35207" lon="6.72693">
        <ele>2118.4</ele>
        <time>2011-07-31T14:57:29.000Z</time>
      </trkpt>
      <trkpt lat="46.35217" lon="6.72703">
        <ele>2113.12</ele>
        <time>2011-07-31T14:57:31.000Z</time>
      </trkpt>
      <trkpt lat="46.35224" lon="6.72713">
        <ele>2116</ele>
        <time>2011-07-31T14:57:34.000Z</time>
      </trkpt>
      <trkpt lat="46.35224" lon="6.72713">
        <ele>2117.44</ele>
        <time>2011-07-31T14:57:36.000Z</time>
      </trkpt>
      <trkpt lat="46.35237" lon="6.72745">
        <ele>2112.15</ele>
        <time>2011-07-31T14:57:38.000Z</time>
      </trkpt>
      <trkpt lat="46.35299" lon="6.72717">
        <ele>2116.96</ele>
        <time>2011-07-31T14:57:41.000Z</time>
      </trkpt>
      <trkpt lat="46.35303" lon="6.72726">
        <ele>2118.4</ele>
        <time>2011-07-31T14:57:42.000Z</time>
      </trkpt>
      <trkpt lat="46.35308" lon="6.72745">
        <ele>2115.04</ele>
        <time>2011-07-31T14:57:44.000Z</time>
      </trkpt>
      <trkpt lat="46.35325" lon="6.72778">
        <ele>2111.19</ele>
        <time>2011-07-31T14:57:47.000Z</time>
      </trkpt>
      <trkpt lat="46.35353" lon="6.72842">
        <ele>2108.31</ele>
        <time>2011-07-31T14:57:53.000Z</time>
      </trkpt>
      <trkpt lat="46.35377" lon="6.72916">
        <ele>2105.91</ele>
        <time>2011-07-31T14:57:59.000Z</time>
      </trkpt>
      <trkpt lat="46.35387" lon="6.72975">
        <ele>2112.63</ele>
        <time>2011-07-31T14:58:03.000Z</time>
      </trkpt>
      <trkpt lat="46.35391" lon="6.73004">
        <ele>2116</ele>
        <time>2011-07-31T14:58:05.000Z</time>
      </trkpt>
      <trkpt lat="46.35406" lon="6.73025">
        <ele>2118.88</ele>
        <time>2011-07-31T14:58:07.000Z</time>
      </trkpt>
      <trkpt lat="46.35432" lon="6.72999">
        <ele>2118.4</ele>
        <time>2011-07-31T14:58:11.000Z</time>
      </trkpt>
      <trkpt lat="46.35405" lon="6.72972">
        <ele>2119.84</ele>
        <time>2011-07-31T14:58:15.000Z</time>
      </trkpt>
      <trkpt lat="46.3538" lon="6.73015">
        <ele>2123.21</ele>
        <time>2011-07-31T14:58:19.000Z</time>
      </trkpt>
      <trkpt lat="46.35386" lon="6.73059">
        <ele>2124.65</ele>
        <time>2011-07-31T14:58:22.000Z</time>
      </trkpt>
      <trkpt lat="46.35401" lon="6.73097">
        <ele>2128.5</ele>
        <time>2011-07-31T14:58:25.000Z</time>
      </trkpt>
      <trkpt lat="46.35428" lon="6.73114">
        <ele>2132.34</ele>
        <time>2011-07-31T14:58:28.000Z</time>
      </trkpt>
      <trkpt lat="46.35444" lon="6.73102">
        <ele>2133.78</ele>
        <time>2011-07-31T14:58:30.000Z</time>
      </trkpt>
      <trkpt lat="46.35441" lon="6.73068">
        <ele>2137.15</ele>
        <time>2011-07-31T14:58:33.000Z</time>
      </trkpt>
      <trkpt lat="46.35404" lon="6.73065">
        <ele>2139.55</ele>
        <time>2011-07-31T14:58:37.000Z</time>
      </trkpt>
      <trkpt lat="46.3539" lon="6.73121">
        <ele>2138.59</ele>
        <time>2011-07-31T14:58:41.000Z</time>
      </trkpt>
      <trkpt lat="46.354" lon="6.73151">
        <ele>2137.63</ele>
        <time>2011-07-31T14:58:43.000Z</time>
      </trkpt>
      <trkpt lat="46.35406" lon="6.73163">
        <ele>2138.11</ele>
        <time>2011-07-31T14:58:44.000Z</time>
      </trkpt>
      <trkpt lat="46.35418" lon="6.73182">
        <ele>2142.92</ele>
        <time>2011-07-31T14:58:46.000Z</time>
      </trkpt>
      <trkpt lat="46.35451" lon="6.73181">
        <ele>2147.24</ele>
        <time>2011-07-31T14:58:51.000Z</time>
      </trkpt>
      <trkpt lat="46.35452" lon="6.73164">
        <ele>2150.61</ele>
        <time>2011-07-31T14:58:53.000Z</time>
      </trkpt>
      <trkpt lat="46.35445" lon="6.73146">
        <ele>2151.57</ele>
        <time>2011-07-31T14:58:55.000Z</time>
      </trkpt>
      <trkpt lat="46.35411" lon="6.73143">
        <ele>2155.89</ele>
        <time>2011-07-31T14:58:59.000Z</time>
      </trkpt>
      <trkpt lat="46.35396" lon="6.73165">
        <ele>2157.34</ele>
        <time>2011-07-31T14:59:01.000Z</time>
      </trkpt>
      <trkpt lat="46.3539" lon="6.73214">
        <ele>2162.62</ele>
        <time>2011-07-31T14:59:04.000Z</time>
      </trkpt>
      <trkpt lat="46.35412" lon="6.73268">
        <ele>2168.39</ele>
        <time>2011-07-31T14:59:08.000Z</time>
      </trkpt>
      <trkpt lat="46.35437" lon="6.7327">
        <ele>2171.27</ele>
        <time>2011-07-31T14:59:11.000Z</time>
      </trkpt>
      <trkpt lat="46.35452" lon="6.7325">
        <ele>2175.12</ele>
        <time>2011-07-31T14:59:14.000Z</time>
      </trkpt>
      <trkpt lat="46.35458" lon="6.73232">
        <ele>2176.08</ele>
        <time>2011-07-31T14:59:16.000Z</time>
      </trkpt>
      <trkpt lat="46.35458" lon="6.73203">
        <ele>2179.45</ele>
        <time>2011-07-31T14:59:19.000Z</time>
      </trkpt>
      <trkpt lat="46.35429" lon="6.73188">
        <ele>2179.45</ele>
        <time>2011-07-31T14:59:23.000Z</time>
      </trkpt>
      <trkpt lat="46.35395" lon="6.73233">
        <ele>2178.97</ele>
        <time>2011-07-31T14:59:27.000Z</time>
      </trkpt>
      <trkpt lat="46.35387" lon="6.73288">
        <ele>2183.29</ele>
        <time>2011-07-31T14:59:30.000Z</time>
      </trkpt>
      <trkpt lat="46.35396" lon="6.73319">
        <ele>2186.66</ele>
        <time>2011-07-31T14:59:32.000Z</time>
      </trkpt>
      <trkpt lat="46.35403" lon="6.73329">
        <ele>2190.98</ele>
        <time>2011-07-31T14:59:33.000Z</time>
      </trkpt>
      <trkpt lat="46.35426" lon="6.73325">
        <ele>2193.87</ele>
        <time>2011-07-31T14:59:36.000Z</time>
      </trkpt>
      <trkpt lat="46.35434" lon="6.7331">
        <ele>2197.71</ele>
        <time>2011-07-31T14:59:38.000Z</time>
      </trkpt>
      <trkpt lat="46.35434" lon="6.73285">
        <ele>2201.56</ele>
        <time>2011-07-31T14:59:41.000Z</time>
      </trkpt>
      <trkpt lat="46.3543" lon="6.73277">
        <ele>2201.08</ele>
        <time>2011-07-31T14:59:42.000Z</time>
      </trkpt>
      <trkpt lat="46.35402" lon="6.73271">
        <ele>2198.19</ele>
        <time>2011-07-31T14:59:45.000Z</time>
      </trkpt>
      <trkpt lat="46.35365" lon="6.7333">
        <ele>2200.59</ele>
        <time>2011-07-31T14:59:50.000Z</time>
      </trkpt>
      <trkpt lat="46.3537" lon="6.73392">
        <ele>2203.48</ele>
        <time>2011-07-31T14:59:54.000Z</time>
      </trkpt>
      <trkpt lat="46.35408" lon="6.73421">
        <ele>2208.29</ele>
        <time>2011-07-31T14:59:59.000Z</time>
      </trkpt>
      <trkpt lat="46.3542" lon="6.73414">
        <ele>2210.21</ele>
        <time>2011-07-31T15:00:01.000Z</time>
      </trkpt>
      <trkpt lat="46.35431" lon="6.73403">
        <ele>2211.65</ele>
        <time>2011-07-31T15:00:03.000Z</time>
      </trkpt>
      <trkpt lat="46.35438" lon="6.73389">
        <ele>2213.09</ele>
        <time>2011-07-31T15:00:05.000Z</time>
      </trkpt>
      <trkpt lat="46.35439" lon="6.73371">
        <ele>2214.53</ele>
        <time>2011-07-31T15:00:07.000Z</time>
      </trkpt>
      <trkpt lat="46.35456" lon="6.73349">
        <ele>2210.69</ele>
        <time>2011-07-31T15:00:11.000Z</time>
      </trkpt>
      <trkpt lat="46.35483" lon="6.73359">
        <ele>2206.84</ele>
        <time>2011-07-31T15:00:14.000Z</time>
      </trkpt>
      <trkpt lat="46.35491" lon="6.73366">
        <ele>2208.29</ele>
        <time>2011-07-31T15:00:15.000Z</time>
      </trkpt>
      <trkpt lat="46.35506" lon="6.73379">
        <ele>2209.73</ele>
        <time>2011-07-31T15:00:17.000Z</time>
      </trkpt>
      <trkpt lat="46.35513" lon="6.73385">
        <ele>2211.17</ele>
        <time>2011-07-31T15:00:18.000Z</time>
      </trkpt>
      <trkpt lat="46.35538" lon="6.73397">
        <ele>2204.92</ele>
        <time>2011-07-31T15:00:21.000Z</time>
      </trkpt>
      <trkpt lat="46.35548" lon="6.734">
        <ele>2202.04</ele>
        <time>2011-07-31T15:00:22.000Z</time>
      </trkpt>
      <trkpt lat="46.35578" lon="6.73423">
        <ele>2205.4</ele>
        <time>2011-07-31T15:00:25.000Z</time>
      </trkpt>
      <trkpt lat="46.35594" lon="6.73437">
        <ele>2207.81</ele>
        <time>2011-07-31T15:00:27.000Z</time>
      </trkpt>
      <trkpt lat="46.35648" lon="6.73478">
        <ele>2206.84</ele>
        <time>2011-07-31T15:00:33.000Z</time>
      </trkpt>
      <trkpt lat="46.35686" lon="6.73497">
        <ele>2210.21</ele>
        <time>2011-07-31T15:00:37.000Z</time>
      </trkpt>
      <trkpt lat="46.35715" lon="6.73506">
        <ele>2208.77</ele>
        <time>2011-07-31T15:00:40.000Z</time>
      </trkpt>
      <trkpt lat="46.35745" lon="6.73519">
        <ele>2206.84</ele>
        <time>2011-07-31T15:00:43.000Z</time>
      </trkpt>
      <trkpt lat="46.35777" lon="6.73524">
        <ele>2209.25</ele>
        <time>2011-07-31T15:00:46.000Z</time>
      </trkpt>
      <trkpt lat="46.35796" lon="6.73535">
        <ele>2215.01</ele>
        <time>2011-07-31T15:00:48.000Z</time>
      </trkpt>
      <trkpt lat="46.35805" lon="6.73537">
        <ele>2215.98</ele>
        <time>2011-07-31T15:00:49.000Z</time>
      </trkpt>
      <trkpt lat="46.35832" lon="6.7353">
        <ele>2219.82</ele>
        <time>2011-07-31T15:00:52.000Z</time>
      </trkpt>
      <trkpt lat="46.35839" lon="6.73523">
        <ele>2219.34</ele>
        <time>2011-07-31T15:00:53.000Z</time>
      </trkpt>
      <trkpt lat="46.35832" lon="6.73488">
        <ele>2222.22</ele>
        <time>2011-07-31T15:00:57.000Z</time>
      </trkpt>
      <trkpt lat="46.35799" lon="6.73527">
        <ele>2223.67</ele>
        <time>2011-07-31T15:01:01.000Z</time>
      </trkpt>
      <trkpt lat="46.35798" lon="6.73579">
        <ele>2227.03</ele>
        <time>2011-07-31T15:01:04.000Z</time>
      </trkpt>
      <trkpt lat="46.3581" lon="6.73613">
        <ele>2222.71</ele>
        <time>2011-07-31T15:01:06.000Z</time>
      </trkpt>
      <trkpt lat="46.35819" lon="6.73628">
        <ele>2218.38</ele>
        <time>2011-07-31T15:01:07.000Z</time>
      </trkpt>
      <trkpt lat="46.35847" lon="6.73652">
        <ele>2222.22</ele>
        <time>2011-07-31T15:01:10.000Z</time>
      </trkpt>
      <trkpt lat="46.35855" lon="6.73655">
        <ele>2222.22</ele>
        <time>2011-07-31T15:01:11.000Z</time>
      </trkpt>
      <trkpt lat="46.35875" lon="6.73661">
        <ele>2215.5</ele>
        <time>2011-07-31T15:01:13.000Z</time>
      </trkpt>
      <trkpt lat="46.35899" lon="6.73667">
        <ele>2214.05</ele>
        <time>2011-07-31T15:01:15.000Z</time>
      </trkpt>
      <trkpt lat="46.3593" lon="6.7367">
        <ele>2215.5</ele>
        <time>2011-07-31T15:01:18.000Z</time>
      </trkpt>
      <trkpt lat="46.35969" lon="6.73682">
        <ele>2212.61</ele>
        <time>2011-07-31T15:01:22.000Z</time>
      </trkpt>
      <trkpt lat="46.36014" lon="6.73688">
        <ele>2203.96</ele>
        <time>2011-07-31T15:01:26.000Z</time>
      </trkpt>
      <trkpt lat="46.36044" lon="6.73691">
        <ele>2205.88</ele>
        <time>2011-07-31T15:01:29.000Z</time>
      </trkpt>
      <trkpt lat="46.36065" lon="6.73693">
        <ele>2202.52</ele>
        <time>2011-07-31T15:01:31.000Z</time>
      </trkpt>
      <trkpt lat="46.36087" lon="6.73694">
        <ele>2201.08</ele>
        <time>2011-07-31T15:01:33.000Z</time>
      </trkpt>
      <trkpt lat="46.36111" lon="6.73699">
        <ele>2198.19</ele>
        <time>2011-07-31T15:01:35.000Z</time>
      </trkpt>
      <trkpt lat="46.36156" lon="6.73715">
        <ele>2201.56</ele>
        <time>2011-07-31T15:01:39.000Z</time>
      </trkpt>
      <trkpt lat="46.36164" lon="6.73721">
        <ele>2201.56</ele>
        <time>2011-07-31T15:01:40.000Z</time>
      </trkpt>
      <trkpt lat="46.36183" lon="6.73732">
        <ele>2198.19</ele>
        <time>2011-07-31T15:01:42.000Z</time>
      </trkpt>
      <trkpt lat="46.3622" lon="6.73739">
        <ele>2192.42</ele>
        <time>2011-07-31T15:01:46.000Z</time>
      </trkpt>
      <trkpt lat="46.36229" lon="6.73744">
        <ele>2189.54</ele>
        <time>2011-07-31T15:01:47.000Z</time>
      </trkpt>
      <trkpt lat="46.36258" lon="6.73765">
        <ele>2180.89</ele>
        <time>2011-07-31T15:01:50.000Z</time>
      </trkpt>
      <trkpt lat="46.36267" lon="6.73769">
        <ele>2181.37</ele>
        <time>2011-07-31T15:01:51.000Z</time>
      </trkpt>
      <trkpt lat="46.3634" lon="6.73784">
        <ele>2180.41</ele>
        <time>2011-07-31T15:01:59.000Z</time>
      </trkpt>
      <trkpt lat="46.36367" lon="6.73796">
        <ele>2178</ele>
        <time>2011-07-31T15:02:02.000Z</time>
      </trkpt>
      <trkpt lat="46.36405" lon="6.73806">
        <ele>2179.45</ele>
        <time>2011-07-31T15:02:06.000Z</time>
      </trkpt>
      <trkpt lat="46.36446" lon="6.73818">
        <ele>2182.33</ele>
        <time>2011-07-31T15:02:10.000Z</time>
      </trkpt>
      <trkpt lat="46.36462" lon="6.73814">
        <ele>2191.46</ele>
        <time>2011-07-31T15:02:12.000Z</time>
      </trkpt>
      <trkpt lat="46.3647" lon="6.73811">
        <ele>2196.75</ele>
        <time>2011-07-31T15:02:13.000Z</time>
      </trkpt>
      <trkpt lat="46.36497" lon="6.73814">
        <ele>2204.92</ele>
        <time>2011-07-31T15:02:16.000Z</time>
      </trkpt>
      <trkpt lat="46.36507" lon="6.73816">
        <ele>2208.77</ele>
        <time>2011-07-31T15:02:17.000Z</time>
      </trkpt>
      <trkpt lat="46.36532" lon="6.73816">
        <ele>2218.38</ele>
        <time>2011-07-31T15:02:20.000Z</time>
      </trkpt>
      <trkpt lat="46.36581" lon="6.7383">
        <ele>2227.51</ele>
        <time>2011-07-31T15:02:25.000Z</time>
      </trkpt>
      <trkpt lat="46.36588" lon="6.73832">
        <ele>2233.76</ele>
        <time>2011-07-31T15:02:26.000Z</time>
      </trkpt>
      <trkpt lat="46.36602" lon="6.73836">
        <ele>2236.64</ele>
        <time>2011-07-31T15:02:28.000Z</time>
      </trkpt>
      <trkpt lat="46.36639" lon="6.73847">
        <ele>2242.89</ele>
        <time>2011-07-31T15:02:32.000Z</time>
      </trkpt>
      <trkpt lat="46.36647" lon="6.7385">
        <ele>2246.26</ele>
        <time>2011-07-31T15:02:33.000Z</time>
      </trkpt>
      <trkpt lat="46.36675" lon="6.7386">
        <ele>2251.06</ele>
        <time>2011-07-31T15:02:36.000Z</time>
      </trkpt>
      <trkpt lat="46.36683" lon="6.73864">
        <ele>2254.43</ele>
        <time>2011-07-31T15:02:37.000Z</time>
      </trkpt>
      <trkpt lat="46.36691" lon="6.73868">
        <ele>2257.31</ele>
        <time>2011-07-31T15:02:38.000Z</time>
      </trkpt>
      <trkpt lat="46.36714" lon="6.73879">
        <ele>2259.72</ele>
        <time>2011-07-31T15:02:41.000Z</time>
      </trkpt>
      <trkpt lat="46.36723" lon="6.73883">
        <ele>2260.68</ele>
        <time>2011-07-31T15:02:42.000Z</time>
      </trkpt>
      <trkpt lat="46.3674" lon="6.73888">
        <ele>2261.64</ele>
        <time>2011-07-31T15:02:44.000Z</time>
      </trkpt>
      <trkpt lat="46.36805" lon="6.73916">
        <ele>2265</ele>
        <time>2011-07-31T15:02:51.000Z</time>
      </trkpt>
      <trkpt lat="46.36812" lon="6.73919">
        <ele>2265</ele>
        <time>2011-07-31T15:02:52.000Z</time>
      </trkpt>
      <trkpt lat="46.36838" lon="6.73928">
        <ele>2261.16</ele>
        <time>2011-07-31T15:02:55.000Z</time>
      </trkpt>
      <trkpt lat="46.36865" lon="6.73936">
        <ele>2257.31</ele>
        <time>2011-07-31T15:02:58.000Z</time>
      </trkpt>
      <trkpt lat="46.36894" lon="6.73948">
        <ele>2253.47</ele>
        <time>2011-07-31T15:03:01.000Z</time>
      </trkpt>
      <trkpt lat="46.36914" lon="6.73958">
        <ele>2249.62</ele>
        <time>2011-07-31T15:03:03.000Z</time>
      </trkpt>
      <trkpt lat="46.36945" lon="6.73969">
        <ele>2245.3</ele>
        <time>2011-07-31T15:03:06.000Z</time>
      </trkpt>
      <trkpt lat="46.36976" lon="6.73976">
        <ele>2242.41</ele>
        <time>2011-07-31T15:03:09.000Z</time>
      </trkpt>
      <trkpt lat="46.37005" lon="6.73981">
        <ele>2241.45</ele>
        <time>2011-07-31T15:03:12.000Z</time>
      </trkpt>
      <trkpt lat="46.37042" lon="6.73978">
        <ele>2237.13</ele>
        <time>2011-07-31T15:03:16.000Z</time>
      </trkpt>
      <trkpt lat="46.37061" lon="6.73976">
        <ele>2233.76</ele>
        <time>2011-07-31T15:03:18.000Z</time>
      </trkpt>
      <trkpt lat="46.3709" lon="6.7397">
        <ele>2230.88</ele>
        <time>2011-07-31T15:03:21.000Z</time>
      </trkpt>
      <trkpt lat="46.37109" lon="6.73965">
        <ele>2229.92</ele>
        <time>2011-07-31T15:03:23.000Z</time>
      </trkpt>
      <trkpt lat="46.37148" lon="6.73954">
        <ele>2221.26</ele>
        <time>2011-07-31T15:03:27.000Z</time>
      </trkpt>
      <trkpt lat="46.37158" lon="6.7395">
        <ele>2219.34</ele>
        <time>2011-07-31T15:03:28.000Z</time>
      </trkpt>
      <trkpt lat="46.37195" lon="6.73941">
        <ele>2219.82</ele>
        <time>2011-07-31T15:03:32.000Z</time>
      </trkpt>
      <trkpt lat="46.37223" lon="6.73931">
        <ele>2215.01</ele>
        <time>2011-07-31T15:03:35.000Z</time>
      </trkpt>
      <trkpt lat="46.3724" lon="6.73925">
        <ele>2219.34</ele>
        <time>2011-07-31T15:03:37.000Z</time>
      </trkpt>
      <trkpt lat="46.37272" lon="6.73926">
        <ele>2217.9</ele>
        <time>2011-07-31T15:03:41.000Z</time>
      </trkpt>
      <trkpt lat="46.37289" lon="6.73936">
        <ele>2212.61</ele>
        <time>2011-07-31T15:03:43.000Z</time>
      </trkpt>
      <trkpt lat="46.37297" lon="6.73944">
        <ele>2211.65</ele>
        <time>2011-07-31T15:03:44.000Z</time>
      </trkpt>
      <trkpt lat="46.37314" lon="6.7396">
        <ele>2208.29</ele>
        <time>2011-07-31T15:03:46.000Z</time>
      </trkpt>
      <trkpt lat="46.37357" lon="6.73974">
        <ele>2205.4</ele>
        <time>2011-07-31T15:03:51.000Z</time>
      </trkpt>
      <trkpt lat="46.37366" lon="6.73975">
        <ele>2207.81</ele>
        <time>2011-07-31T15:03:52.000Z</time>
      </trkpt>
      <trkpt lat="46.37383" lon="6.73975">
        <ele>2203.48</ele>
        <time>2011-07-31T15:03:54.000Z</time>
      </trkpt>
      <trkpt lat="46.37402" lon="6.73973">
        <ele>2202.04</ele>
        <time>2011-07-31T15:03:56.000Z</time>
      </trkpt>
      <trkpt lat="46.37413" lon="6.73973">
        <ele>2201.08</ele>
        <time>2011-07-31T15:03:57.000Z</time>
      </trkpt>
      <trkpt lat="46.37448" lon="6.73978">
        <ele>2203.96</ele>
        <time>2011-07-31T15:04:01.000Z</time>
      </trkpt>
      <trkpt lat="46.37465" lon="6.73983">
        <ele>2201.08</ele>
        <time>2011-07-31T15:04:03.000Z</time>
      </trkpt>
      <trkpt lat="46.37474" lon="6.7399">
        <ele>2201.08</ele>
        <time>2011-07-31T15:04:04.000Z</time>
      </trkpt>
      <trkpt lat="46.37485" lon="6.73996">
        <ele>2199.15</ele>
        <time>2011-07-31T15:04:05.000Z</time>
      </trkpt>
      <trkpt lat="46.3755" lon="6.7399">
        <ele>2190.5</ele>
        <time>2011-07-31T15:04:12.000Z</time>
      </trkpt>
      <trkpt lat="46.3757" lon="6.73983">
        <ele>2187.14</ele>
        <time>2011-07-31T15:04:14.000Z</time>
      </trkpt>
      <trkpt lat="46.37587" lon="6.73977">
        <ele>2191.46</ele>
        <time>2011-07-31T15:04:16.000Z</time>
      </trkpt>
      <trkpt lat="46.37594" lon="6.73975">
        <ele>2190.98</ele>
        <time>2011-07-31T15:04:17.000Z</time>
      </trkpt>
      <trkpt lat="46.37609" lon="6.73968">
        <ele>2185.69</ele>
        <time>2011-07-31T15:04:19.000Z</time>
      </trkpt>
      <trkpt lat="46.37617" lon="6.73962">
        <ele>2181.85</ele>
        <time>2011-07-31T15:04:20.000Z</time>
      </trkpt>
      <trkpt lat="46.37661" lon="6.73937">
        <ele>2178.48</ele>
        <time>2011-07-31T15:04:26.000Z</time>
      </trkpt>
      <trkpt lat="46.37669" lon="6.73931">
        <ele>2175.12</ele>
        <time>2011-07-31T15:04:27.000Z</time>
      </trkpt>
      <trkpt lat="46.37697" lon="6.73906">
        <ele>2176.56</ele>
        <time>2011-07-31T15:04:31.000Z</time>
      </trkpt>
      <trkpt lat="46.37711" lon="6.73892">
        <ele>2172.72</ele>
        <time>2011-07-31T15:04:33.000Z</time>
      </trkpt>
      <trkpt lat="46.37726" lon="6.73876">
        <ele>2169.35</ele>
        <time>2011-07-31T15:04:35.000Z</time>
      </trkpt>
      <trkpt lat="46.37793" lon="6.73859">
        <ele>2171.27</ele>
        <time>2011-07-31T15:04:38.000Z</time>
      </trkpt>
      <trkpt lat="46.37793" lon="6.73842">
        <ele>2167.43</ele>
        <time>2011-07-31T15:04:41.000Z</time>
      </trkpt>
      <trkpt lat="46.37798" lon="6.73794">
        <ele>2164.06</ele>
        <time>2011-07-31T15:04:46.000Z</time>
      </trkpt>
      <trkpt lat="46.37805" lon="6.73765">
        <ele>2159.74</ele>
        <time>2011-07-31T15:04:49.000Z</time>
      </trkpt>
      <trkpt lat="46.37807" lon="6.73756">
        <ele>2156.37</ele>
        <time>2011-07-31T15:04:50.000Z</time>
      </trkpt>
      <trkpt lat="46.37807" lon="6.73756">
        <ele>2153.01</ele>
        <time>2011-07-31T15:04:51.000Z</time>
      </trkpt>
      <trkpt lat="46.37807" lon="6.73756">
        <ele>2149.65</ele>
        <time>2011-07-31T15:04:52.000Z</time>
      </trkpt>
      <trkpt lat="46.37807" lon="6.73756">
        <ele>2143.88</ele>
        <time>2011-07-31T15:04:54.000Z</time>
      </trkpt>
      <trkpt lat="46.37875" lon="6.73726">
        <ele>2138.11</ele>
        <time>2011-07-31T15:04:56.000Z</time>
      </trkpt>
      <trkpt lat="46.37882" lon="6.73719">
        <ele>2133.78</ele>
        <time>2011-07-31T15:04:57.000Z</time>
      </trkpt>
      <trkpt lat="46.37902" lon="6.73696">
        <ele>2125.61</ele>
        <time>2011-07-31T15:05:00.000Z</time>
      </trkpt>
      <trkpt lat="46.3792" lon="6.73682">
        <ele>2116.96</ele>
        <time>2011-07-31T15:05:02.000Z</time>
      </trkpt>
      <trkpt lat="46.37928" lon="6.73674">
        <ele>2115.52</ele>
        <time>2011-07-31T15:05:03.000Z</time>
      </trkpt>
      <trkpt lat="46.37943" lon="6.73658">
        <ele>2113.12</ele>
        <time>2011-07-31T15:05:05.000Z</time>
      </trkpt>
      <trkpt lat="46.37965" lon="6.73641">
        <ele>2107.35</ele>
        <time>2011-07-31T15:05:08.000Z</time>
      </trkpt>
      <trkpt lat="46.37973" lon="6.73633">
        <ele>2102.54</ele>
        <time>2011-07-31T15:05:09.000Z</time>
      </trkpt>
      <trkpt lat="46.37998" lon="6.73594">
        <ele>2101.58</ele>
        <time>2011-07-31T15:05:13.000Z</time>
      </trkpt>
      <trkpt lat="46.38018" lon="6.73567">
        <ele>2101.58</ele>
        <time>2011-07-31T15:05:17.000Z</time>
      </trkpt>
      <trkpt lat="46.38034" lon="6.73552">
        <ele>2097.25</ele>
        <time>2011-07-31T15:05:20.000Z</time>
      </trkpt>
      <trkpt lat="46.3804" lon="6.73548">
        <ele>2094.37</ele>
        <time>2011-07-31T15:05:21.000Z</time>
      </trkpt>
      <trkpt lat="46.38046" lon="6.73541">
        <ele>2090.04</ele>
        <time>2011-07-31T15:05:22.000Z</time>
      </trkpt>
      <trkpt lat="46.38056" lon="6.73524">
        <ele>2086.2</ele>
        <time>2011-07-31T15:05:24.000Z</time>
      </trkpt>
      <trkpt lat="46.3806" lon="6.73515">
        <ele>2087.16</ele>
        <time>2011-07-31T15:05:25.000Z</time>
      </trkpt>
      <trkpt lat="46.38064" lon="6.73507">
        <ele>2083.31</ele>
        <time>2011-07-31T15:05:26.000Z</time>
      </trkpt>
      <trkpt lat="46.38068" lon="6.73498">
        <ele>2079.95</ele>
        <time>2011-07-31T15:05:27.000Z</time>
      </trkpt>
      <trkpt lat="46.3808" lon="6.73481">
        <ele>2073.22</ele>
        <time>2011-07-31T15:05:29.000Z</time>
      </trkpt>
      <trkpt lat="46.38094" lon="6.73467">
        <ele>2069.86</ele>
        <time>2011-07-31T15:05:31.000Z</time>
      </trkpt>
      <trkpt lat="46.38112" lon="6.73446">
        <ele>2065.53</ele>
        <time>2011-07-31T15:05:34.000Z</time>
      </trkpt>
      <trkpt lat="46.38119" lon="6.73438">
        <ele>2061.68</ele>
        <time>2011-07-31T15:05:35.000Z</time>
      </trkpt>
      <trkpt lat="46.38126" lon="6.7343">
        <ele>2058.8</ele>
        <time>2011-07-31T15:05:36.000Z</time>
      </trkpt>
      <trkpt lat="46.38184" lon="6.7341">
        <ele>2055.44</ele>
        <time>2011-07-31T15:05:39.000Z</time>
      </trkpt>
      <trkpt lat="46.38184" lon="6.73394">
        <ele>2052.07</ele>
        <time>2011-07-31T15:05:41.000Z</time>
      </trkpt>
      <trkpt lat="46.38184" lon="6.73379">
        <ele>2048.71</ele>
        <time>2011-07-31T15:05:43.000Z</time>
      </trkpt>
      <trkpt lat="46.38185" lon="6.73362">
        <ele>2041.98</ele>
        <time>2011-07-31T15:05:45.000Z</time>
      </trkpt>
      <trkpt lat="46.38185" lon="6.73353">
        <ele>2038.61</ele>
        <time>2011-07-31T15:05:46.000Z</time>
      </trkpt>
      <trkpt lat="46.38184" lon="6.73324">
        <ele>2034.29</ele>
        <time>2011-07-31T15:05:50.000Z</time>
      </trkpt>
      <trkpt lat="46.38183" lon="6.7331">
        <ele>2029</ele>
        <time>2011-07-31T15:05:52.000Z</time>
      </trkpt>
      <trkpt lat="46.38234" lon="6.73281">
        <ele>2021.31</ele>
        <time>2011-07-31T15:05:55.000Z</time>
      </trkpt>
      <trkpt lat="46.38241" lon="6.73274">
        <ele>2021.79</ele>
        <time>2011-07-31T15:05:56.000Z</time>
      </trkpt>
      <trkpt lat="46.38246" lon="6.73268">
        <ele>2021.79</ele>
        <time>2011-07-31T15:05:57.000Z</time>
      </trkpt>
      <trkpt lat="46.38254" lon="6.73255">
        <ele>2017.94</ele>
        <time>2011-07-31T15:05:59.000Z</time>
      </trkpt>
      <trkpt lat="46.38259" lon="6.73247">
        <ele>2011.7</ele>
        <time>2011-07-31T15:06:00.000Z</time>
      </trkpt>
      <trkpt lat="46.38265" lon="6.73239">
        <ele>2006.41</ele>
        <time>2011-07-31T15:06:01.000Z</time>
      </trkpt>
      <trkpt lat="46.38277" lon="6.73219">
        <ele>2001.12</ele>
        <time>2011-07-31T15:06:03.000Z</time>
      </trkpt>
      <trkpt lat="46.38289" lon="6.73201">
        <ele>1997.76</ele>
        <time>2011-07-31T15:06:05.000Z</time>
      </trkpt>
      <trkpt lat="46.383" lon="6.73183">
        <ele>1996.8</ele>
        <time>2011-07-31T15:06:07.000Z</time>
      </trkpt>
      <trkpt lat="46.38316" lon="6.73141">
        <ele>1992.47</ele>
        <time>2011-07-31T15:06:11.000Z</time>
      </trkpt>
      <trkpt lat="46.38321" lon="6.7313">
        <ele>1990.55</ele>
        <time>2011-07-31T15:06:12.000Z</time>
      </trkpt>
      <trkpt lat="46.38358" lon="6.73069">
        <ele>1987.18</ele>
        <time>2011-07-31T15:06:18.000Z</time>
      </trkpt>
      <trkpt lat="46.38385" lon="6.73029">
        <ele>1985.26</ele>
        <time>2011-07-31T15:06:22.000Z</time>
      </trkpt>
      <trkpt lat="46.38414" lon="6.72995">
        <ele>1979.01</ele>
        <time>2011-07-31T15:06:26.000Z</time>
      </trkpt>
      <trkpt lat="46.38429" lon="6.72976">
        <ele>1973.72</ele>
        <time>2011-07-31T15:06:28.000Z</time>
      </trkpt>
      <trkpt lat="46.38474" lon="6.72941">
        <ele>1967.96</ele>
        <time>2011-07-31T15:06:34.000Z</time>
      </trkpt>
      <trkpt lat="46.38506" lon="6.72926">
        <ele>1961.23</ele>
        <time>2011-07-31T15:06:38.000Z</time>
      </trkpt>
      <trkpt lat="46.38527" lon="6.7291">
        <ele>1956.9</ele>
        <time>2011-07-31T15:06:41.000Z</time>
      </trkpt>
      <trkpt lat="46.38543" lon="6.72898">
        <ele>1954.5</ele>
        <time>2011-07-31T15:06:43.000Z</time>
      </trkpt>
      <trkpt lat="46.38562" lon="6.72876">
        <ele>1950.17</ele>
        <time>2011-07-31T15:06:46.000Z</time>
      </trkpt>
      <trkpt lat="46.38574" lon="6.7286">
        <ele>1946.33</ele>
        <time>2011-07-31T15:06:48.000Z</time>
      </trkpt>
      <trkpt lat="46.38586" lon="6.72843">
        <ele>1942.96</ele>
        <time>2011-07-31T15:06:50.000Z</time>
      </trkpt>
      <trkpt lat="46.38602" lon="6.72817">
        <ele>1937.67</ele>
        <time>2011-07-31T15:06:53.000Z</time>
      </trkpt>
      <trkpt lat="46.38613" lon="6.72798">
        <ele>1932.87</ele>
        <time>2011-07-31T15:06:55.000Z</time>
      </trkpt>
      <trkpt lat="46.38644" lon="6.7276">
        <ele>1926.14</ele>
        <time>2011-07-31T15:07:00.000Z</time>
      </trkpt>
      <trkpt lat="46.38657" lon="6.72744">
        <ele>1922.29</ele>
        <time>2011-07-31T15:07:02.000Z</time>
      </trkpt>
      <trkpt lat="46.38678" lon="6.72722">
        <ele>1917.97</ele>
        <time>2011-07-31T15:07:05.000Z</time>
      </trkpt>
      <trkpt lat="46.38697" lon="6.72698">
        <ele>1913.64</ele>
        <time>2011-07-31T15:07:08.000Z</time>
      </trkpt>
      <trkpt lat="46.38712" lon="6.72683">
        <ele>1910.76</ele>
        <time>2011-07-31T15:07:10.000Z</time>
      </trkpt>
      <trkpt lat="46.38719" lon="6.72676">
        <ele>1909.32</ele>
        <time>2011-07-31T15:07:11.000Z</time>
      </trkpt>
      <trkpt lat="46.38747" lon="6.72665">
        <ele>1904.03</ele>
        <time>2011-07-31T15:07:15.000Z</time>
      </trkpt>
      <trkpt lat="46.3878" lon="6.72656">
        <ele>1895.86</ele>
        <time>2011-07-31T15:07:19.000Z</time>
      </trkpt>
      <trkpt lat="46.38802" lon="6.7264">
        <ele>1893.93</ele>
        <time>2011-07-31T15:07:22.000Z</time>
      </trkpt>
      <trkpt lat="46.38813" lon="6.72625">
        <ele>1889.13</ele>
        <time>2011-07-31T15:07:24.000Z</time>
      </trkpt>
      <trkpt lat="46.38817" lon="6.72615">
        <ele>1885.76</ele>
        <time>2011-07-31T15:07:25.000Z</time>
      </trkpt>
      <trkpt lat="46.38827" lon="6.72592">
        <ele>1883.36</ele>
        <time>2011-07-31T15:07:27.000Z</time>
      </trkpt>
      <trkpt lat="46.38847" lon="6.72553">
        <ele>1878.07</ele>
        <time>2011-07-31T15:07:31.000Z</time>
      </trkpt>
      <trkpt lat="46.38853" lon="6.72544">
        <ele>1877.11</ele>
        <time>2011-07-31T15:07:32.000Z</time>
      </trkpt>
      <trkpt lat="46.38874" lon="6.72505">
        <ele>1871.82</ele>
        <time>2011-07-31T15:07:36.000Z</time>
      </trkpt>
      <trkpt lat="46.38876" lon="6.72493">
        <ele>1870.38</ele>
        <time>2011-07-31T15:07:37.000Z</time>
      </trkpt>
      <trkpt lat="46.38883" lon="6.72457">
        <ele>1866.54</ele>
        <time>2011-07-31T15:07:40.000Z</time>
      </trkpt>
      <trkpt lat="46.38882" lon="6.72419">
        <ele>1864.61</ele>
        <time>2011-07-31T15:07:43.000Z</time>
      </trkpt>
      <trkpt lat="46.38875" lon="6.72392">
        <ele>1860.29</ele>
        <time>2011-07-31T15:07:45.000Z</time>
      </trkpt>
      <trkpt lat="46.38863" lon="6.72366">
        <ele>1859.33</ele>
        <time>2011-07-31T15:07:47.000Z</time>
      </trkpt>
      <trkpt lat="46.38847" lon="6.72347">
        <ele>1855.48</ele>
        <time>2011-07-31T15:07:49.000Z</time>
      </trkpt>
      <trkpt lat="46.38818" lon="6.72323">
        <ele>1848.75</ele>
        <time>2011-07-31T15:07:52.000Z</time>
      </trkpt>
      <trkpt lat="46.38797" lon="6.72314">
        <ele>1847.79</ele>
        <time>2011-07-31T15:07:54.000Z</time>
      </trkpt>
      <trkpt lat="46.38776" lon="6.7231">
        <ele>1842.98</ele>
        <time>2011-07-31T15:07:56.000Z</time>
      </trkpt>
      <trkpt lat="46.38754" lon="6.72305">
        <ele>1840.1</ele>
        <time>2011-07-31T15:07:58.000Z</time>
      </trkpt>
      <trkpt lat="46.387" lon="6.72319">
        <ele>1835.29</ele>
        <time>2011-07-31T15:08:03.000Z</time>
      </trkpt>
      <trkpt lat="46.38681" lon="6.72335">
        <ele>1831.45</ele>
        <time>2011-07-31T15:08:05.000Z</time>
      </trkpt>
      <trkpt lat="46.38668" lon="6.72361">
        <ele>1829.53</ele>
        <time>2011-07-31T15:08:07.000Z</time>
      </trkpt>
      <trkpt lat="46.38662" lon="6.72387">
        <ele>1826.16</ele>
        <time>2011-07-31T15:08:09.000Z</time>
      </trkpt>
      <trkpt lat="46.38659" lon="6.7244">
        <ele>1821.35</ele>
        <time>2011-07-31T15:08:13.000Z</time>
      </trkpt>
      <trkpt lat="46.38668" lon="6.72464">
        <ele>1817.99</ele>
        <time>2011-07-31T15:08:15.000Z</time>
      </trkpt>
      <trkpt lat="46.38688" lon="6.72488">
        <ele>1814.15</ele>
        <time>2011-07-31T15:08:18.000Z</time>
      </trkpt>
      <trkpt lat="46.38704" lon="6.72497">
        <ele>1810.3</ele>
        <time>2011-07-31T15:08:20.000Z</time>
      </trkpt>
      <trkpt lat="46.38731" lon="6.72493">
        <ele>1805.97</ele>
        <time>2011-07-31T15:08:23.000Z</time>
      </trkpt>
      <trkpt lat="46.38748" lon="6.72478">
        <ele>1801.65</ele>
        <time>2011-07-31T15:08:25.000Z</time>
      </trkpt>
      <trkpt lat="46.38771" lon="6.72438">
        <ele>1797.8</ele>
        <time>2011-07-31T15:08:29.000Z</time>
      </trkpt>
      <trkpt lat="46.38779" lon="6.72413">
        <ele>1793.48</ele>
        <time>2011-07-31T15:08:31.000Z</time>
      </trkpt>
      <trkpt lat="46.38784" lon="6.72373">
        <ele>1790.11</ele>
        <time>2011-07-31T15:08:34.000Z</time>
      </trkpt>
      <trkpt lat="46.38779" lon="6.72333">
        <ele>1786.75</ele>
        <time>2011-07-31T15:08:37.000Z</time>
      </trkpt>
      <trkpt lat="46.38771" lon="6.72308">
        <ele>1783.38</ele>
        <time>2011-07-31T15:08:39.000Z</time>
      </trkpt>
      <trkpt lat="46.38766" lon="6.72295">
        <ele>1781.46</ele>
        <time>2011-07-31T15:08:40.000Z</time>
      </trkpt>
      <trkpt lat="46.38755" lon="6.7227">
        <ele>1778.1</ele>
        <time>2011-07-31T15:08:42.000Z</time>
      </trkpt>
      <trkpt lat="46.38733" lon="6.72239">
        <ele>1773.77</ele>
        <time>2011-07-31T15:08:45.000Z</time>
      </trkpt>
      <trkpt lat="46.3872" lon="6.7222">
        <ele>1772.33</ele>
        <time>2011-07-31T15:08:47.000Z</time>
      </trkpt>
      <trkpt lat="46.38709" lon="6.72197">
        <ele>1766.56</ele>
        <time>2011-07-31T15:08:49.000Z</time>
      </trkpt>
      <trkpt lat="46.38676" lon="6.72159">
        <ele>1761.27</ele>
        <time>2011-07-31T15:08:53.000Z</time>
      </trkpt>
      <trkpt lat="46.38648" lon="6.72138">
        <ele>1756.95</ele>
        <time>2011-07-31T15:08:56.000Z</time>
      </trkpt>
      <trkpt lat="46.38622" lon="6.72111">
        <ele>1751.18</ele>
        <time>2011-07-31T15:08:59.000Z</time>
      </trkpt>
      <trkpt lat="46.38605" lon="6.7209">
        <ele>1747.81</ele>
        <time>2011-07-31T15:09:01.000Z</time>
      </trkpt>
      <trkpt lat="46.38578" lon="6.72062">
        <ele>1744.93</ele>
        <time>2011-07-31T15:09:04.000Z</time>
      </trkpt>
      <trkpt lat="46.38568" lon="6.72055">
        <ele>1743.01</ele>
        <time>2011-07-31T15:09:05.000Z</time>
      </trkpt>
      <trkpt lat="46.38552" lon="6.72037">
        <ele>1742.05</ele>
        <time>2011-07-31T15:09:07.000Z</time>
      </trkpt>
      <trkpt lat="46.38546" lon="6.72024">
        <ele>1737.24</ele>
        <time>2011-07-31T15:09:08.000Z</time>
      </trkpt>
      <trkpt lat="46.38543" lon="6.72008">
        <ele>1733.88</ele>
        <time>2011-07-31T15:09:09.000Z</time>
      </trkpt>
      <trkpt lat="46.38541" lon="6.71992">
        <ele>1730.99</ele>
        <time>2011-07-31T15:09:10.000Z</time>
      </trkpt>
      <trkpt lat="46.38542" lon="6.71976">
        <ele>1730.99</ele>
        <time>2011-07-31T15:09:11.000Z</time>
      </trkpt>
      <trkpt lat="46.38545" lon="6.71948">
        <ele>1731.95</ele>
        <time>2011-07-31T15:09:13.000Z</time>
      </trkpt>
      <trkpt lat="46.38551" lon="6.71924">
        <ele>1726.67</ele>
        <time>2011-07-31T15:09:15.000Z</time>
      </trkpt>
      <trkpt lat="46.38563" lon="6.71901">
        <ele>1723.3</ele>
        <time>2011-07-31T15:09:17.000Z</time>
      </trkpt>
      <trkpt lat="46.386" lon="6.71844">
        <ele>1719.46</ele>
        <time>2011-07-31T15:09:23.000Z</time>
      </trkpt>
      <trkpt lat="46.38614" lon="6.71824">
        <ele>1715.61</ele>
        <time>2011-07-31T15:09:25.000Z</time>
      </trkpt>
      <trkpt lat="46.3862" lon="6.71816">
        <ele>1715.13</ele>
        <time>2011-07-31T15:09:26.000Z</time>
      </trkpt>
      <trkpt lat="46.38626" lon="6.71808">
        <ele>1716.09</ele>
        <time>2011-07-31T15:09:27.000Z</time>
      </trkpt>
      <trkpt lat="46.38647" lon="6.71786">
        <ele>1709.36</ele>
        <time>2011-07-31T15:09:30.000Z</time>
      </trkpt>
      <trkpt lat="46.3867" lon="6.71767">
        <ele>1707.44</ele>
        <time>2011-07-31T15:09:33.000Z</time>
      </trkpt>
      <trkpt lat="46.38684" lon="6.71756">
        <ele>1704.07</ele>
        <time>2011-07-31T15:09:35.000Z</time>
      </trkpt>
      <trkpt lat="46.387" lon="6.71747">
        <ele>1700.71</ele>
        <time>2011-07-31T15:09:37.000Z</time>
      </trkpt>
      <trkpt lat="46.38729" lon="6.71729">
        <ele>1697.83</ele>
        <time>2011-07-31T15:09:41.000Z</time>
      </trkpt>
      <trkpt lat="46.38745" lon="6.71722">
        <ele>1693.02</ele>
        <time>2011-07-31T15:09:43.000Z</time>
      </trkpt>
      <trkpt lat="46.3876" lon="6.71711">
        <ele>1690.14</ele>
        <time>2011-07-31T15:09:45.000Z</time>
      </trkpt>
      <trkpt lat="46.38781" lon="6.71696">
        <ele>1686.77</ele>
        <time>2011-07-31T15:09:48.000Z</time>
      </trkpt>
      <trkpt lat="46.38797" lon="6.71686">
        <ele>1681.96</ele>
        <time>2011-07-31T15:09:50.000Z</time>
      </trkpt>
      <trkpt lat="46.3882" lon="6.71668">
        <ele>1677.64</ele>
        <time>2011-07-31T15:09:53.000Z</time>
      </trkpt>
      <trkpt lat="46.38832" lon="6.71659">
        <ele>1675.23</ele>
        <time>2011-07-31T15:09:55.000Z</time>
      </trkpt>
      <trkpt lat="46.38863" lon="6.71645">
        <ele>1669.47</ele>
        <time>2011-07-31T15:09:59.000Z</time>
      </trkpt>
      <trkpt lat="46.38877" lon="6.71639">
        <ele>1667.06</ele>
        <time>2011-07-31T15:10:01.000Z</time>
      </trkpt>
      <trkpt lat="46.389" lon="6.71633">
        <ele>1660.33</ele>
        <time>2011-07-31T15:10:04.000Z</time>
      </trkpt>
      <trkpt lat="46.38923" lon="6.7163">
        <ele>1656.01</ele>
        <time>2011-07-31T15:10:07.000Z</time>
      </trkpt>
      <trkpt lat="46.38938" lon="6.71626">
        <ele>1652.16</ele>
        <time>2011-07-31T15:10:09.000Z</time>
      </trkpt>
      <trkpt lat="46.38953" lon="6.7162">
        <ele>1648.32</ele>
        <time>2011-07-31T15:10:11.000Z</time>
      </trkpt>
      <trkpt lat="46.38969" lon="6.71614">
        <ele>1642.55</ele>
        <time>2011-07-31T15:10:13.000Z</time>
      </trkpt>
      <trkpt lat="46.38984" lon="6.71605">
        <ele>1638.7</ele>
        <time>2011-07-31T15:10:15.000Z</time>
      </trkpt>
      <trkpt lat="46.38999" lon="6.71595">
        <ele>1635.34</ele>
        <time>2011-07-31T15:10:17.000Z</time>
      </trkpt>
      <trkpt lat="46.39013" lon="6.71584">
        <ele>1631.98</ele>
        <time>2011-07-31T15:10:19.000Z</time>
      </trkpt>
      <trkpt lat="46.39027" lon="6.71573">
        <ele>1630.53</ele>
        <time>2011-07-31T15:10:21.000Z</time>
      </trkpt>
      <trkpt lat="46.39034" lon="6.71569">
        <ele>1628.61</ele>
        <time>2011-07-31T15:10:22.000Z</time>
      </trkpt>
      <trkpt lat="46.39056" lon="6.71558">
        <ele>1621.88</ele>
        <time>2011-07-31T15:10:25.000Z</time>
      </trkpt>
      <trkpt lat="46.39071" lon="6.71551">
        <ele>1620.92</ele>
        <time>2011-07-31T15:10:27.000Z</time>
      </trkpt>
      <trkpt lat="46.39092" lon="6.71544">
        <ele>1617.07</ele>
        <time>2011-07-31T15:10:30.000Z</time>
      </trkpt>
      <trkpt lat="46.39108" lon="6.71538">
        <ele>1613.71</ele>
        <time>2011-07-31T15:10:32.000Z</time>
      </trkpt>
      <trkpt lat="46.39122" lon="6.71533">
        <ele>1610.35</ele>
        <time>2011-07-31T15:10:34.000Z</time>
      </trkpt>
      <trkpt lat="46.39137" lon="6.71528">
        <ele>1606.98</ele>
        <time>2011-07-31T15:10:36.000Z</time>
      </trkpt>
      <trkpt lat="46.39161" lon="6.71519">
        <ele>1602.17</ele>
        <time>2011-07-31T15:10:39.000Z</time>
      </trkpt>
      <trkpt lat="46.39181" lon="6.71503">
        <ele>1597.37</ele>
        <time>2011-07-31T15:10:42.000Z</time>
      </trkpt>
      <trkpt lat="46.39194" lon="6.71489">
        <ele>1594</ele>
        <time>2011-07-31T15:10:44.000Z</time>
      </trkpt>
      <trkpt lat="46.39214" lon="6.71468">
        <ele>1589.68</ele>
        <time>2011-07-31T15:10:47.000Z</time>
      </trkpt>
      <trkpt lat="46.39233" lon="6.71443">
        <ele>1585.83</ele>
        <time>2011-07-31T15:10:50.000Z</time>
      </trkpt>
      <trkpt lat="46.39252" lon="6.7142">
        <ele>1581.51</ele>
        <time>2011-07-31T15:10:53.000Z</time>
      </trkpt>
      <trkpt lat="46.39271" lon="6.71395">
        <ele>1576.22</ele>
        <time>2011-07-31T15:10:56.000Z</time>
      </trkpt>
      <trkpt lat="46.39283" lon="6.71379">
        <ele>1572.85</ele>
        <time>2011-07-31T15:10:58.000Z</time>
      </trkpt>
      <trkpt lat="46.39318" lon="6.71351">
        <ele>1566.12</ele>
        <time>2011-07-31T15:11:03.000Z</time>
      </trkpt>
      <trkpt lat="46.39333" lon="6.71343">
        <ele>1562.76</ele>
        <time>2011-07-31T15:11:05.000Z</time>
      </trkpt>
      <trkpt lat="46.39355" lon="6.71329">
        <ele>1558.92</ele>
        <time>2011-07-31T15:11:08.000Z</time>
      </trkpt>
      <trkpt lat="46.39362" lon="6.71326">
        <ele>1556.99</ele>
        <time>2011-07-31T15:11:09.000Z</time>
      </trkpt>
      <trkpt lat="46.39382" lon="6.71305">
        <ele>1552.19</ele>
        <time>2011-07-31T15:11:12.000Z</time>
      </trkpt>
      <trkpt lat="46.39394" lon="6.71286">
        <ele>1548.34</ele>
        <time>2011-07-31T15:11:14.000Z</time>
      </trkpt>
      <trkpt lat="46.39412" lon="6.71261">
        <ele>1543.05</ele>
        <time>2011-07-31T15:11:17.000Z</time>
      </trkpt>
      <trkpt lat="46.39425" lon="6.71244">
        <ele>1539.69</ele>
        <time>2011-07-31T15:11:19.000Z</time>
      </trkpt>
      <trkpt lat="46.39438" lon="6.71227">
        <ele>1536.32</ele>
        <time>2011-07-31T15:11:21.000Z</time>
      </trkpt>
      <trkpt lat="46.39452" lon="6.7121">
        <ele>1532</ele>
        <time>2011-07-31T15:11:23.000Z</time>
      </trkpt>
      <trkpt lat="46.39466" lon="6.71194">
        <ele>1531.04</ele>
        <time>2011-07-31T15:11:25.000Z</time>
      </trkpt>
      <trkpt lat="46.39486" lon="6.71172">
        <ele>1527.19</ele>
        <time>2011-07-31T15:11:28.000Z</time>
      </trkpt>
      <trkpt lat="46.395" lon="6.71156">
        <ele>1523.35</ele>
        <time>2011-07-31T15:11:30.000Z</time>
      </trkpt>
      <trkpt lat="46.39518" lon="6.71125">
        <ele>1518.54</ele>
        <time>2011-07-31T15:11:33.000Z</time>
      </trkpt>
      <trkpt lat="46.39536" lon="6.71093">
        <ele>1514.69</ele>
        <time>2011-07-31T15:11:36.000Z</time>
      </trkpt>
      <trkpt lat="46.39546" lon="6.71071">
        <ele>1510.85</ele>
        <time>2011-07-31T15:11:38.000Z</time>
      </trkpt>
      <trkpt lat="46.39557" lon="6.71049">
        <ele>1508.45</ele>
        <time>2011-07-31T15:11:40.000Z</time>
      </trkpt>
      <trkpt lat="46.39569" lon="6.71009">
        <ele>1502.68</ele>
        <time>2011-07-31T15:11:43.000Z</time>
      </trkpt>
      <trkpt lat="46.39576" lon="6.70966">
        <ele>1499.79</ele>
        <time>2011-07-31T15:11:46.000Z</time>
      </trkpt>
      <trkpt lat="46.39576" lon="6.70921">
        <ele>1494.99</ele>
        <time>2011-07-31T15:11:49.000Z</time>
      </trkpt>
      <trkpt lat="46.39573" lon="6.7089">
        <ele>1492.58</ele>
        <time>2011-07-31T15:11:51.000Z</time>
      </trkpt>
      <trkpt lat="46.39562" lon="6.70846">
        <ele>1487.78</ele>
        <time>2011-07-31T15:11:54.000Z</time>
      </trkpt>
      <trkpt lat="46.39552" lon="6.70817">
        <ele>1484.41</ele>
        <time>2011-07-31T15:11:56.000Z</time>
      </trkpt>
      <trkpt lat="46.39534" lon="6.70776">
        <ele>1480.09</ele>
        <time>2011-07-31T15:11:59.000Z</time>
      </trkpt>
      <trkpt lat="46.39511" lon="6.7074">
        <ele>1476.24</ele>
        <time>2011-07-31T15:12:02.000Z</time>
      </trkpt>
      <trkpt lat="46.39494" lon="6.70719">
        <ele>1472.4</ele>
        <time>2011-07-31T15:12:04.000Z</time>
      </trkpt>
      <trkpt lat="46.39475" lon="6.70702">
        <ele>1469.03</ele>
        <time>2011-07-31T15:12:06.000Z</time>
      </trkpt>
      <trkpt lat="46.39455" lon="6.70688">
        <ele>1465.19</ele>
        <time>2011-07-31T15:12:08.000Z</time>
      </trkpt>
      <trkpt lat="46.39434" lon="6.70678">
        <ele>1461.82</ele>
        <time>2011-07-31T15:12:10.000Z</time>
      </trkpt>
      <trkpt lat="46.39413" lon="6.7067">
        <ele>1457.98</ele>
        <time>2011-07-31T15:12:12.000Z</time>
      </trkpt>
      <trkpt lat="46.39391" lon="6.70665">
        <ele>1454.61</ele>
        <time>2011-07-31T15:12:14.000Z</time>
      </trkpt>
      <trkpt lat="46.39358" lon="6.70662">
        <ele>1453.17</ele>
        <time>2011-07-31T15:12:17.000Z</time>
      </trkpt>
      <trkpt lat="46.39276" lon="6.70663">
        <ele>1458.46</ele>
        <time>2011-07-31T15:12:25.000Z</time>
      </trkpt>
      <trkpt lat="46.39267" lon="6.70665">
        <ele>1459.9</ele>
        <time>2011-07-31T15:12:26.000Z</time>
      </trkpt>
      <trkpt lat="46.39237" lon="6.70688">
        <ele>1458.94</ele>
        <time>2011-07-31T15:12:30.000Z</time>
      </trkpt>
      <trkpt lat="46.39233" lon="6.7071">
        <ele>1460.38</ele>
        <time>2011-07-31T15:12:32.000Z</time>
      </trkpt>
      <trkpt lat="46.3924" lon="6.70728">
        <ele>1463.74</ele>
        <time>2011-07-31T15:12:34.000Z</time>
      </trkpt>
      <trkpt lat="46.39246" lon="6.70734">
        <ele>1463.74</ele>
        <time>2011-07-31T15:12:35.000Z</time>
      </trkpt>
      <trkpt lat="46.39287" lon="6.70719">
        <ele>1468.55</ele>
        <time>2011-07-31T15:12:40.000Z</time>
      </trkpt>
      <trkpt lat="46.39295" lon="6.70696">
        <ele>1472.4</ele>
        <time>2011-07-31T15:12:42.000Z</time>
      </trkpt>
      <trkpt lat="46.3928" lon="6.70628">
        <ele>1475.76</ele>
        <time>2011-07-31T15:12:47.000Z</time>
      </trkpt>
      <trkpt lat="46.39262" lon="6.70617">
        <ele>1477.2</ele>
        <time>2011-07-31T15:12:49.000Z</time>
      </trkpt>
      <trkpt lat="46.3923" lon="6.70634">
        <ele>1474.8</ele>
        <time>2011-07-31T15:12:53.000Z</time>
      </trkpt>
      <trkpt lat="46.39195" lon="6.70657">
        <ele>1478.16</ele>
        <time>2011-07-31T15:12:57.000Z</time>
      </trkpt>
      <trkpt lat="46.39186" lon="6.70662">
        <ele>1479.61</ele>
        <time>2011-07-31T15:12:58.000Z</time>
      </trkpt>
      <trkpt lat="46.39174" lon="6.7068">
        <ele>1480.57</ele>
        <time>2011-07-31T15:13:00.000Z</time>
      </trkpt>
      <trkpt lat="46.39169" lon="6.707">
        <ele>1485.37</ele>
        <time>2011-07-31T15:13:02.000Z</time>
      </trkpt>
      <trkpt lat="46.39166" lon="6.70709">
        <ele>1486.34</ele>
        <time>2011-07-31T15:13:03.000Z</time>
      </trkpt>
      <trkpt lat="46.39145" lon="6.70748">
        <ele>1482.97</ele>
        <time>2011-07-31T15:13:07.000Z</time>
      </trkpt>
      <trkpt lat="46.39137" lon="6.70757">
        <ele>1484.41</ele>
        <time>2011-07-31T15:13:08.000Z</time>
      </trkpt>
      <trkpt lat="46.39111" lon="6.70791">
        <ele>1481.53</ele>
        <time>2011-07-31T15:13:12.000Z</time>
      </trkpt>
      <trkpt lat="46.39099" lon="6.70827">
        <ele>1478.16</ele>
        <time>2011-07-31T15:13:15.000Z</time>
      </trkpt>
      <trkpt lat="46.39096" lon="6.70838">
        <ele>1476.72</ele>
        <time>2011-07-31T15:13:16.000Z</time>
      </trkpt>
      <trkpt lat="46.39089" lon="6.70874">
        <ele>1470.47</ele>
        <time>2011-07-31T15:13:19.000Z</time>
      </trkpt>
      <trkpt lat="46.39074" lon="6.70921">
        <ele>1463.26</ele>
        <time>2011-07-31T15:13:23.000Z</time>
      </trkpt>
      <trkpt lat="46.39066" lon="6.70941">
        <ele>1459.9</ele>
        <time>2011-07-31T15:13:25.000Z</time>
      </trkpt>
      <trkpt lat="46.39049" lon="6.7097">
        <ele>1452.69</ele>
        <time>2011-07-31T15:13:28.000Z</time>
      </trkpt>
      <trkpt lat="46.39036" lon="6.70989">
        <ele>1448.84</ele>
        <time>2011-07-31T15:13:30.000Z</time>
      </trkpt>
      <trkpt lat="46.39022" lon="6.71008">
        <ele>1444.04</ele>
        <time>2011-07-31T15:13:32.000Z</time>
      </trkpt>
      <trkpt lat="46.39014" lon="6.71017">
        <ele>1442.11</ele>
        <time>2011-07-31T15:13:33.000Z</time>
      </trkpt>
      <trkpt lat="46.38989" lon="6.71041">
        <ele>1436.83</ele>
        <time>2011-07-31T15:13:36.000Z</time>
      </trkpt>
      <trkpt lat="46.38967" lon="6.71068">
        <ele>1429.62</ele>
        <time>2011-07-31T15:13:39.000Z</time>
      </trkpt>
      <trkpt lat="46.38958" lon="6.71074">
        <ele>1426.25</ele>
        <time>2011-07-31T15:13:40.000Z</time>
      </trkpt>
      <trkpt lat="46.38924" lon="6.71076">
        <ele>1419.52</ele>
        <time>2011-07-31T15:13:43.000Z</time>
      </trkpt>
      <trkpt lat="46.38881" lon="6.71072">
        <ele>1414.24</ele>
        <time>2011-07-31T15:13:47.000Z</time>
      </trkpt>
      <trkpt lat="46.38859" lon="6.71072">
        <ele>1410.87</ele>
        <time>2011-07-31T15:13:49.000Z</time>
      </trkpt>
      <trkpt lat="46.38839" lon="6.71076">
        <ele>1407.51</ele>
        <time>2011-07-31T15:13:51.000Z</time>
      </trkpt>
      <trkpt lat="46.38819" lon="6.71083">
        <ele>1402.7</ele>
        <time>2011-07-31T15:13:53.000Z</time>
      </trkpt>
      <trkpt lat="46.388" lon="6.71093">
        <ele>1399.34</ele>
        <time>2011-07-31T15:13:55.000Z</time>
      </trkpt>
      <trkpt lat="46.38783" lon="6.71105">
        <ele>1395.01</ele>
        <time>2011-07-31T15:13:57.000Z</time>
      </trkpt>
      <trkpt lat="46.38766" lon="6.7112">
        <ele>1391.17</ele>
        <time>2011-07-31T15:13:59.000Z</time>
      </trkpt>
      <trkpt lat="46.38749" lon="6.71136">
        <ele>1385.88</ele>
        <time>2011-07-31T15:14:01.000Z</time>
      </trkpt>
      <trkpt lat="46.38725" lon="6.71161">
        <ele>1381.07</ele>
        <time>2011-07-31T15:14:04.000Z</time>
      </trkpt>
      <trkpt lat="46.38717" lon="6.71169">
        <ele>1378.19</ele>
        <time>2011-07-31T15:14:05.000Z</time>
      </trkpt>
      <trkpt lat="46.387" lon="6.71186">
        <ele>1372.42</ele>
        <time>2011-07-31T15:14:07.000Z</time>
      </trkpt>
      <trkpt lat="46.38684" lon="6.71205">
        <ele>1368.09</ele>
        <time>2011-07-31T15:14:09.000Z</time>
      </trkpt>
      <trkpt lat="46.38677" lon="6.71217">
        <ele>1364.73</ele>
        <time>2011-07-31T15:14:10.000Z</time>
      </trkpt>
      <trkpt lat="46.3867" lon="6.7123">
        <ele>1361.36</ele>
        <time>2011-07-31T15:14:11.000Z</time>
      </trkpt>
      <trkpt lat="46.38659" lon="6.71254">
        <ele>1360.4</ele>
        <time>2011-07-31T15:14:13.000Z</time>
      </trkpt>
      <trkpt lat="46.38667" lon="6.71297">
        <ele>1355.12</ele>
        <time>2011-07-31T15:14:17.000Z</time>
      </trkpt>
      <trkpt lat="46.38684" lon="6.71309">
        <ele>1352.23</ele>
        <time>2011-07-31T15:14:19.000Z</time>
      </trkpt>
      <trkpt lat="46.38693" lon="6.71308">
        <ele>1352.23</ele>
        <time>2011-07-31T15:14:20.000Z</time>
      </trkpt>
      <trkpt lat="46.38703" lon="6.71304">
        <ele>1351.27</ele>
        <time>2011-07-31T15:14:21.000Z</time>
      </trkpt>
      <trkpt lat="46.38721" lon="6.71295">
        <ele>1350.31</ele>
        <time>2011-07-31T15:14:23.000Z</time>
      </trkpt>
      <trkpt lat="46.3873" lon="6.71294">
        <ele>1345.5</ele>
        <time>2011-07-31T15:14:24.000Z</time>
      </trkpt>
      <trkpt lat="46.38747" lon="6.713">
        <ele>1338.77</ele>
        <time>2011-07-31T15:14:26.000Z</time>
      </trkpt>
      <trkpt lat="46.38754" lon="6.71304">
        <ele>1336.85</ele>
        <time>2011-07-31T15:14:27.000Z</time>
      </trkpt>
      <trkpt lat="46.38776" lon="6.71303">
        <ele>1329.64</ele>
        <time>2011-07-31T15:14:30.000Z</time>
      </trkpt>
      <trkpt lat="46.38785" lon="6.713">
        <ele>1325.8</ele>
        <time>2011-07-31T15:14:31.000Z</time>
      </trkpt>
      <trkpt lat="46.38808" lon="6.71324">
        <ele>1316.66</ele>
        <time>2011-07-31T15:14:35.000Z</time>
      </trkpt>
      <trkpt lat="46.38803" lon="6.71337">
        <ele>1311.86</ele>
        <time>2011-07-31T15:14:36.000Z</time>
      </trkpt>
      <trkpt lat="46.38793" lon="6.71347">
        <ele>1307.05</ele>
        <time>2011-07-31T15:14:37.000Z</time>
      </trkpt>
      <trkpt lat="46.38769" lon="6.71346">
        <ele>1303.2</ele>
        <time>2011-07-31T15:14:39.000Z</time>
      </trkpt>
      <trkpt lat="46.38759" lon="6.71334">
        <ele>1299.84</ele>
        <time>2011-07-31T15:14:40.000Z</time>
      </trkpt>
      <trkpt lat="46.38754" lon="6.71317">
        <ele>1295.99</ele>
        <time>2011-07-31T15:14:41.000Z</time>
      </trkpt>
      <trkpt lat="46.38754" lon="6.71298">
        <ele>1292.63</ele>
        <time>2011-07-31T15:14:42.000Z</time>
      </trkpt>
      <trkpt lat="46.3877" lon="6.71272">
        <ele>1285.9</ele>
        <time>2011-07-31T15:14:44.000Z</time>
      </trkpt>
      <trkpt lat="46.38788" lon="6.7128">
        <ele>1279.65</ele>
        <time>2011-07-31T15:14:46.000Z</time>
      </trkpt>
      <trkpt lat="46.38791" lon="6.71293">
        <ele>1275.81</ele>
        <time>2011-07-31T15:14:47.000Z</time>
      </trkpt>
      <trkpt lat="46.38779" lon="6.7132">
        <ele>1271.48</ele>
        <time>2011-07-31T15:14:49.000Z</time>
      </trkpt>
      <trkpt lat="46.38756" lon="6.71325">
        <ele>1266.67</ele>
        <time>2011-07-31T15:14:51.000Z</time>
      </trkpt>
      <trkpt lat="46.38745" lon="6.71317">
        <ele>1263.31</ele>
        <time>2011-07-31T15:14:52.000Z</time>
      </trkpt>
      <trkpt lat="46.3873" lon="6.71269">
        <ele>1257.54</ele>
        <time>2011-07-31T15:14:55.000Z</time>
      </trkpt>
      <trkpt lat="46.38735" lon="6.71253">
        <ele>1253.22</ele>
        <time>2011-07-31T15:14:56.000Z</time>
      </trkpt>
      <trkpt lat="46.38744" lon="6.71243">
        <ele>1249.37</ele>
        <time>2011-07-31T15:14:57.000Z</time>
      </trkpt>
      <trkpt lat="46.38762" lon="6.71249">
        <ele>1245.04</ele>
        <time>2011-07-31T15:14:59.000Z</time>
      </trkpt>
      <trkpt lat="46.38766" lon="6.71261">
        <ele>1241.68</ele>
        <time>2011-07-31T15:15:00.000Z</time>
      </trkpt>
      <trkpt lat="46.38761" lon="6.71289">
        <ele>1236.39</ele>
        <time>2011-07-31T15:15:02.000Z</time>
      </trkpt>
      <trkpt lat="46.38743" lon="6.71302">
        <ele>1233.03</ele>
        <time>2011-07-31T15:15:04.000Z</time>
      </trkpt>
      <trkpt lat="46.3872" lon="6.71295">
        <ele>1228.22</ele>
        <time>2011-07-31T15:15:06.000Z</time>
      </trkpt>
      <trkpt lat="46.3871" lon="6.71283">
        <ele>1223.9</ele>
        <time>2011-07-31T15:15:07.000Z</time>
      </trkpt>
      <trkpt lat="46.38704" lon="6.71248">
        <ele>1220.05</ele>
        <time>2011-07-31T15:15:09.000Z</time>
      </trkpt>
      <trkpt lat="46.38708" lon="6.71232">
        <ele>1215.72</ele>
        <time>2011-07-31T15:15:10.000Z</time>
      </trkpt>
      <trkpt lat="46.38718" lon="6.71222">
        <ele>1211.88</ele>
        <time>2011-07-31T15:15:11.000Z</time>
      </trkpt>
      <trkpt lat="46.38728" lon="6.71222">
        <ele>1208.51</ele>
        <time>2011-07-31T15:15:12.000Z</time>
      </trkpt>
      <trkpt lat="46.38739" lon="6.71242">
        <ele>1203.71</ele>
        <time>2011-07-31T15:15:14.000Z</time>
      </trkpt>
      <trkpt lat="46.38728" lon="6.71266">
        <ele>1197.94</ele>
        <time>2011-07-31T15:15:16.000Z</time>
      </trkpt>
      <trkpt lat="46.38705" lon="6.71268">
        <ele>1194.58</ele>
        <time>2011-07-31T15:15:18.000Z</time>
      </trkpt>
      <trkpt lat="46.38696" lon="6.71258">
        <ele>1191.21</ele>
        <time>2011-07-31T15:15:19.000Z</time>
      </trkpt>
      <trkpt lat="46.38689" lon="6.71244">
        <ele>1184.48</ele>
        <time>2011-07-31T15:15:20.000Z</time>
      </trkpt>
      <trkpt lat="46.38684" lon="6.71226">
        <ele>1181.12</ele>
        <time>2011-07-31T15:15:21.000Z</time>
      </trkpt>
      <trkpt lat="46.38689" lon="6.71178">
        <ele>1177.27</ele>
        <time>2011-07-31T15:15:24.000Z</time>
      </trkpt>
      <trkpt lat="46.38699" lon="6.71155">
        <ele>1171.98</ele>
        <time>2011-07-31T15:15:26.000Z</time>
      </trkpt>
      <trkpt lat="46.38705" lon="6.71144">
        <ele>1168.14</ele>
        <time>2011-07-31T15:15:27.000Z</time>
      </trkpt>
      <trkpt lat="46.38723" lon="6.7113">
        <ele>1160.93</ele>
        <time>2011-07-31T15:15:29.000Z</time>
      </trkpt>
      <trkpt lat="46.38741" lon="6.71132">
        <ele>1158.05</ele>
        <time>2011-07-31T15:15:31.000Z</time>
      </trkpt>
      <trkpt lat="46.3875" lon="6.71159">
        <ele>1153.24</ele>
        <time>2011-07-31T15:15:34.000Z</time>
      </trkpt>
      <trkpt lat="46.38746" lon="6.7117">
        <ele>1150.35</ele>
        <time>2011-07-31T15:15:35.000Z</time>
      </trkpt>
      <trkpt lat="46.38739" lon="6.71191">
        <ele>1144.11</ele>
        <time>2011-07-31T15:15:37.000Z</time>
      </trkpt>
      <trkpt lat="46.3873" lon="6.71225">
        <ele>1137.38</ele>
        <time>2011-07-31T15:15:40.000Z</time>
      </trkpt>
      <trkpt lat="46.38726" lon="6.71257">
        <ele>1133.05</ele>
        <time>2011-07-31T15:15:43.000Z</time>
      </trkpt>
      <trkpt lat="46.38725" lon="6.71268">
        <ele>1131.13</ele>
        <time>2011-07-31T15:15:44.000Z</time>
      </trkpt>
      <trkpt lat="46.38721" lon="6.713">
        <ele>1128.73</ele>
        <time>2011-07-31T15:15:47.000Z</time>
      </trkpt>
      <trkpt lat="46.38721" lon="6.71347">
        <ele>1126.32</ele>
        <time>2011-07-31T15:15:51.000Z</time>
      </trkpt>
      <trkpt lat="46.38728" lon="6.71371">
        <ele>1122.48</ele>
        <time>2011-07-31T15:15:54.000Z</time>
      </trkpt>
      <trkpt lat="46.38736" lon="6.71376">
        <ele>1117.19</ele>
        <time>2011-07-31T15:15:55.000Z</time>
      </trkpt>
      <trkpt lat="46.38745" lon="6.71378">
        <ele>1112.38</ele>
        <time>2011-07-31T15:15:56.000Z</time>
      </trkpt>
      <trkpt lat="46.38754" lon="6.71373">
        <ele>1112.38</ele>
        <time>2011-07-31T15:15:57.000Z</time>
      </trkpt>
      <trkpt lat="46.38761" lon="6.71364">
        <ele>1115.27</ele>
        <time>2011-07-31T15:15:58.000Z</time>
      </trkpt>
      <trkpt lat="46.38772" lon="6.71346">
        <ele>1111.42</ele>
        <time>2011-07-31T15:16:00.000Z</time>
      </trkpt>
      <trkpt lat="46.38779" lon="6.71338">
        <ele>1108.06</ele>
        <time>2011-07-31T15:16:01.000Z</time>
      </trkpt>
      <trkpt lat="46.38795" lon="6.71321">
        <ele>1102.77</ele>
        <time>2011-07-31T15:16:03.000Z</time>
      </trkpt>
      <trkpt lat="46.38811" lon="6.71304">
        <ele>1100.37</ele>
        <time>2011-07-31T15:16:05.000Z</time>
      </trkpt>
      <trkpt lat="46.38841" lon="6.71272">
        <ele>1094.12</ele>
        <time>2011-07-31T15:16:09.000Z</time>
      </trkpt>
      <trkpt lat="46.3885" lon="6.71264">
        <ele>1091.23</ele>
        <time>2011-07-31T15:16:10.000Z</time>
      </trkpt>
      <trkpt lat="46.38857" lon="6.71256">
        <ele>1090.75</ele>
        <time>2011-07-31T15:16:11.000Z</time>
      </trkpt>
      <trkpt lat="46.38887" lon="6.71259">
        <ele>1085.95</ele>
        <time>2011-07-31T15:16:15.000Z</time>
      </trkpt>
      <trkpt lat="46.38887" lon="6.71283">
        <ele>1081.62</ele>
        <time>2011-07-31T15:16:17.000Z</time>
      </trkpt>
      <trkpt lat="46.38881" lon="6.71292">
        <ele>1076.33</ele>
        <time>2011-07-31T15:16:18.000Z</time>
      </trkpt>
      <trkpt lat="46.38873" lon="6.71298">
        <ele>1073.45</ele>
        <time>2011-07-31T15:16:19.000Z</time>
      </trkpt>
      <trkpt lat="46.38857" lon="6.71333">
        <ele>1066.72</ele>
        <time>2011-07-31T15:16:23.000Z</time>
      </trkpt>
      <trkpt lat="46.38856" lon="6.71345">
        <ele>1067.2</ele>
        <time>2011-07-31T15:16:24.000Z</time>
      </trkpt>
      <trkpt lat="46.38857" lon="6.71356">
        <ele>1067.68</ele>
        <time>2011-07-31T15:16:25.000Z</time>
      </trkpt>
      <trkpt lat="46.3886" lon="6.71397">
        <ele>1061.43</ele>
        <time>2011-07-31T15:16:29.000Z</time>
      </trkpt>
      <trkpt lat="46.38859" lon="6.71422">
        <ele>1062.39</ele>
        <time>2011-07-31T15:16:31.000Z</time>
      </trkpt>
      <trkpt lat="46.38862" lon="6.71439">
        <ele>1063.36</ele>
        <time>2011-07-31T15:16:33.000Z</time>
      </trkpt>
      <trkpt lat="46.38868" lon="6.71442">
        <ele>1059.99</ele>
        <time>2011-07-31T15:16:34.000Z</time>
      </trkpt>
      <trkpt lat="46.38876" lon="6.71443">
        <ele>1056.15</ele>
        <time>2011-07-31T15:16:35.000Z</time>
      </trkpt>
      <trkpt lat="46.38892" lon="6.71438">
        <ele>1055.67</ele>
        <time>2011-07-31T15:16:37.000Z</time>
      </trkpt>
      <trkpt lat="46.38903" lon="6.71431">
        <ele>1054.22</ele>
        <time>2011-07-31T15:16:39.000Z</time>
      </trkpt>
      <trkpt lat="46.38919" lon="6.71432">
        <ele>1045.57</ele>
        <time>2011-07-31T15:16:41.000Z</time>
      </trkpt>
      <trkpt lat="46.38935" lon="6.71446">
        <ele>1042.21</ele>
        <time>2011-07-31T15:16:43.000Z</time>
      </trkpt>
      <trkpt lat="46.3894" lon="6.71455">
        <ele>1042.69</ele>
        <time>2011-07-31T15:16:44.000Z</time>
      </trkpt>
      <trkpt lat="46.3895" lon="6.71471">
        <ele>1044.61</ele>
        <time>2011-07-31T15:16:46.000Z</time>
      </trkpt>
      <trkpt lat="46.38959" lon="6.71482">
        <ele>1043.17</ele>
        <time>2011-07-31T15:16:53.000Z</time>
      </trkpt>
      <trkpt lat="46.38958" lon="6.71486">
        <ele>1042.69</ele>
        <time>2011-07-31T15:17:38.000Z</time>
      </trkpt>
      <trkpt lat="46.3896" lon="6.71484">
        <ele>1042.69</ele>
        <time>2011-07-31T15:17:46.000Z</time>
      </trkpt>
      <trkpt lat="46.38967" lon="6.71475">
        <ele>1041.73</ele>
        <time>2011-07-31T15:17:54.000Z</time>
      </trkpt>
      <trkpt lat="46.3897" lon="6.71465">
        <ele>1040.28</ele>
        <time>2011-07-31T15:18:01.000Z</time>
      </trkpt>
      <trkpt lat="46.38971" lon="6.71462">
        <ele>1039.8</ele>
        <time>2011-07-31T15:18:03.000Z</time>
      </trkpt>
      <trkpt lat="46.38973" lon="6.7145">
        <ele>1039.32</ele>
        <time>2011-07-31T15:18:19.000Z</time>
      </trkpt>
      <trkpt lat="46.38973" lon="6.7145">
        <ele>1038.36</ele>
        <time>2011-07-31T15:18:44.000Z</time>
      </trkpt>
      <trkpt lat="46.38973" lon="6.7145">
        <ele>1038.84</ele>
        <time>2011-07-31T15:19:01.000Z</time>
      </trkpt>
    </trkseg>
  </trk>
</gpx>